[[{"header":{"parameterUnit":"m.s-1","parameterCategory":1,"la1":30.6,"la2":28.766,"lo1":-90.7593,"lo2":-88.6598,"dy":0.0162,"dx":0.0183,"nx":116,"ny":114,"refTime":"2023-07-27T06:00:00:Z","depth":0,"parameterNumber":2,"parameterNumberName":"U-component_of_WINDS"},"data":[0.0,0.0,0.0,0.0,0.0,0.0,0.0,0.0,0.0,0.0,0.0,0.0,0.0,0.0,0.0,0.0,0.0,0.0,0.0,0.0,0.0,0.0,0.0,0.0,0.0,0.0,0.0,0.0,0.0,0.0,0.0,0.0,0.0,0.0,0.0,0.0,0.0,0.0,0.0,0.0,0.0,0.0,0.0,0.0,0.0,0.0,0.0,0.0,0.0,0.0,0.0,0.0,0.0,0.0,0.0,0.0,0.0,0.0,0.0,0.0,0.0,0.0,0.0,0.0,0.0,0.0,0.0,0.0,0.0,0.0,0.0,0.0,0.0,0.0,0.0,0.0,0.0,0.0,0.0,0.0,0.0,0.0,0.0,0.0,0.0,0.0,0.0,0.0,0.0,0.0,0.0,0.0,0.0,0.0,0.0,0.0,0.0,0.0,0.0,0.0,0.0,0.0,0.0,0.0,0.0,0.0,0.0,0.0,0.0,0.0,0.0,0.0,0.0,0.0,0.0,0.0,0.0,0.0,0.0,0.0,0.0,0.0,0.0,0.0,0.0,0.0,0.0,0.0,0.0,0.0,0.0,0.0,0.0,0.0,0.0,0.0,0.0,0.0,0.0,0.0,0.0,0.0,0.0,0.0,0.0,0.0,0.0,0.0,0.0,0.0,0.0,0.0,0.0,0.0,0.0,0.0,0.0,0.0,0.0,0.0,0.0,0.0,0.0,0.0,0.0,0.0,0.0,0.0,0.0,0.0,0.0,0.0,0.0,0.0,0.0,0.0,0.0,0.0,0.0,0.0,0.0,0.0,0.0,0.0,0.0,0.0,0.0,0.0,0.0,0.0,0.0,0.0,0.0,0.0,0.0,0.0,0.0,0.0,0.0,0.0,0.0,0.0,0.0,0.0,0.0,0.0,0.0,0.0,0.0,0.0,0.0,0.0,0.0,0.0,0.0,0.0,0.0,0.0,0.0,0.0,0.0,0.0,0.0,0.0,0.0,0.0,0.0,0.0,0.0,0.0,0.0,0.0,0.0,0.0,0.0,0.0,0.0,0.0,0.0,0.0,0.0,0.0,0.0,0.0,0.0,0.0,0.0,0.0,0.0,0.0,0.0,0.0,0.0,0.0,0.0,0.0,0.0,0.0,0.0,0.0,0.0,0.0,0.0,0.0,0.0,0.0,0.0,0.0,0.0,0.0,0.0,0.0,0.0,0.0,0.0,0.0,0.0,0.0,0.0,0.0,0.0,0.0,0.0,0.0,0.0,0.0,0.0,0.0,0.0,0.0,0.0,0.0,0.0,0.0,0.0,0.0,0.0,0.0,0.0,0.0,0.0,0.0,0.0,0.0,0.0,0.0,0.0,0.0,0.0,0.0,0.0,0.0,0.0,0.0,0.0,0.0,0.0,0.0,0.0,0.0,0.0,0.0,0.0,0.0,0.0,0.0,0.0,0.0,0.0,0.0,0.0,0.0,0.0,0.0,0.0,0.0,0.0,0.0,0.0,0.0,0.0,0.0,0.0,0.0,0.0,0.0,0.0,0.0,0.0,0.0,0.0,0.0,0.0,0.0,0.0,0.0,0.0,0.0,0.0,0.0,0.0,0.0,0.0,0.0,0.0,0.0,0.0,0.0,0.0,0.0,0.0,0.0,0.0,0.0,0.0,0.0,0.0,0.0,0.0,0.0,0.0,0.0,0.0,0.0,0.0,0.0,0.0,0.0,0.0,0.0,0.0,0.0,0.0,0.0,0.0,0.0,0.0,0.0,0.0,0.0,0.0,0.0,0.0,0.0,0.0,0.0,0.0,0.0,0.0,0.0,0.0,0.0,0.0,0.0,0.0,0.0,0.0,0.0,0.0,0.0,0.0,0.0,0.0,0.0,0.0,0.0,0.0,0.0,0.0,0.0,0.0,0.0,0.0,0.0,0.0,0.0,0.0,0.0,0.0,0.0,0.0,0.0,0.0,0.0,0.0,0.0,0.0,0.0,0.0,0.0,0.0,0.0,0.0,0.0,0.0,0.0,0.0,0.0,0.0,0.0,0.0,0.0,0.0,0.0,0.0,0.0,0.0,0.0,0.0,0.0,0.0,0.0,0.0,0.0,0.0,0.0,0.0,0.0,0.0,0.0,0.0,0.0,0.0,0.0,0.0,0.0,0.0,0.0,0.0,0.0,0.0,0.0,0.0,0.0,0.0,0.0,0.0,0.0,0.0,0.0,0.0,0.0,0.0,0.0,0.0,0.0,0.0,0.0,0.0,0.0,0.0,0.0,0.0,0.0,0.0,0.0,0.0,0.0,0.0,0.0,0.0,0.0,0.0,0.0,0.0,0.0,0.0,0.0,0.0,0.0,0.0,0.0,0.0,0.0,0.0,0.0,0.0,0.0,0.0,0.0,0.0,0.0,0.0,0.0,0.0,0.0,0.0,0.0,0.0,0.0,0.0,0.0,0.0,0.0,0.0,0.0,0.0,0.0,0.0,0.0,0.0,0.0,0.0,0.0,0.0,0.0,0.0,0.0,0.0,0.0,0.0,0.0,0.0,0.0,0.0,0.0,0.0,0.0,0.0,0.0,0.0,0.0,0.0,0.0,0.0,0.0,0.0,0.0,0.0,0.0,0.0,0.0,0.0,0.0,0.0,0.0,0.0,0.0,0.0,0.0,0.0,0.0,0.0,0.0,0.0,0.0,0.0,0.0,0.0,0.0,0.0,0.0,0.0,0.0,0.0,0.0,0.0,0.0,0.0,0.0,0.0,0.0,0.0,0.0,0.0,0.0,0.0,0.0,0.0,0.0,0.0,0.0,0.0,0.0,0.0,0.0,0.0,0.0,0.0,0.0,0.0,0.0,0.0,0.0,0.0,0.0,0.0,0.0,0.0,0.0,0.0,0.0,0.0,0.0,0.0,0.0,0.0,0.0,0.0,0.0,0.0,0.0,0.0,0.0,0.0,0.0,0.0,0.0,0.0,0.0,0.0,0.0,0.0,0.0,0.0,0.0,0.0,0.0,0.0,0.0,0.0,0.0,0.0,0.0,0.0,0.0,0.0,0.0,0.0,0.0,0.0,0.0,0.0,0.0,0.0,0.0,0.0,0.0,0.0,0.0,0.0,0.0,0.0,0.0,0.0,0.0,0.0,0.0,0.0,0.0,0.0,0.0,0.0,0.0,0.0,0.0,0.0,0.0,0.0,0.0,0.0,0.0,0.0,0.0,0.0,0.0,0.0,0.0,0.0,0.0,0.0,0.0,0.0,0.0,0.0,0.0,0.0,0.0,0.0,0.0,0.0,0.0,0.0,0.0,0.0,0.0,0.0,0.0,0.0,0.0,0.0,0.0,0.0,0.0,0.0,0.0,0.0,0.0,0.0,0.0,0.0,0.0,0.0,0.0,0.0,0.0,0.0,0.0,0.0,0.0,0.0,0.0,0.0,0.0,0.0,0.0,0.0,0.0,0.0,0.0,0.0,0.0,0.0,0.0,0.0,0.0,0.0,0.0,0.0,0.0,0.0,0.0,0.0,0.0,0.0,0.0,0.0,0.0,0.0,0.0,0.0,0.0,0.0,0.0,0.0,0.0,0.0,0.0,0.0,0.0,0.0,0.0,0.0,0.0,0.0,0.0,0.0,0.0,0.0,0.0,0.0,0.0,0.0,0.0,0.0,0.0,0.0,0.0,0.0,0.0,0.0,0.0,0.0,0.0,0.0,0.0,0.0,0.0,0.0,0.0,0.0,0.0,0.0,0.0,0.0,0.0,0.0,0.0,0.0,0.0,0.0,0.0,0.0,0.0,0.0,0.0,0.0,0.0,0.0,0.0,0.0,0.0,0.0,0.0,0.0,0.0,0.0,0.0,0.0,0.0,0.0,0.0,0.0,0.0,0.0,0.0,0.0,0.0,0.0,0.0,0.0,0.0,0.0,0.0,0.0,0.0,0.0,0.0,0.0,0.0,0.0,0.0,0.0,0.0,0.0,0.0,0.0,0.0,0.0,0.0,0.0,0.0,0.0,0.0,0.0,0.0,0.0,0.0,0.0,0.0,0.0,0.0,0.0,0.0,0.0,0.0,0.0,0.0,0.0,0.0,0.0,0.0,0.0,0.0,0.0,0.0,0.0,0.0,0.0,0.0,0.0,0.0,0.0,0.0,0.0,0.0,0.0,0.0,0.0,0.0,0.0,0.0,0.0,0.0,0.0,0.0,0.0,0.0,0.0,0.0,0.0,0.0,0.0,0.0,0.0,0.0,0.0,0.0,0.0,0.0,0.0,0.0,0.0,0.0,0.0,0.0,0.0,0.0,0.0,0.0,0.0,0.0,0.0,0.0,0.0,0.0,0.0,0.0,0.0,0.0,0.0,0.0,0.0,0.0,0.0,0.0,0.0,0.0,0.0,0.0,0.0,0.0,0.0,0.0,0.0,0.0,0.0,0.0,0.0,0.0,0.0,0.0,0.0,0.0,0.0,0.0,0.0,0.0,0.0,0.0,0.0,0.0,0.0,0.0,0.0,0.0,0.0,0.0,0.0,0.0,0.0,0.0,0.0,0.0,0.0,0.0,0.0,0.0,0.0,0.0,0.0,0.0,0.0,0.0,0.0,0.0,0.0,0.0,0.0,0.0,0.0,0.0,0.0,0.0,0.0,0.0,0.0,0.0,0.0,0.0,0.0,0.0,0.0,0.0,0.0,0.0,0.0,0.0,0.0,0.0,0.0,0.0,0.0,0.0,0.0,0.0,0.0,0.0,0.0,0.0,0.0,0.0,0.0,0.0,0.0,0.0,0.0,0.0,0.0,0.0,0.0,0.0,0.0,0.0,0.0,0.0,0.0,0.0,0.0,0.0,0.0,0.0,0.0,0.0,0.0,0.0,0.0,0.0,0.0,0.0,0.0,0.0,0.0,0.0,0.0,0.0,0.0,0.0,0.0,0.0,0.0,0.0,0.0,0.0,0.0,0.0,0.0,0.0,0.0,0.0,0.0,0.0,0.0,0.0,0.0,0.0,0.0,0.0,0.0,0.0,0.0,0.0,0.0,0.0,0.0,0.0,0.0,0.0,0.0,0.0,0.0,0.0,0.0,0.0,0.0,0.0,0.0,0.0,0.0,0.0,0.0,0.0,0.0,0.0,0.0,0.0,0.0,0.0,0.0,0.0,0.0,0.0,0.0,0.0,0.0,0.0,0.0,0.0,0.0,0.0,0.0,0.0,0.0,0.0,0.0,0.0,0.0,0.0,0.0,0.0,0.0,0.0,0.0,0.0,0.0,0.0,0.0,0.0,0.0,0.0,0.0,0.0,0.0,0.0,0.0,0.0,0.0,0.0,0.0,0.0,0.0,0.0,0.0,0.0,0.0,0.0,0.0,0.0,0.0,0.0,0.0,0.0,0.0,0.0,0.0,0.0,0.0,0.0,0.0,0.0,0.0,0.0,0.0,0.0,0.0,0.0,0.0,0.0,0.0,0.0,0.0,0.0,0.0,0.0,0.0,0.0,0.0,0.0,0.0,0.0,0.0,0.0,0.0,0.0,0.0,0.0,0.0,0.0,0.0,0.0,0.0,0.0,0.0,0.0,0.0,0.0,0.0,0.0,0.0,0.0,0.0,0.0,0.0,0.0,0.0,0.0,0.0,0.0,0.0,0.0,0.0,0.0,0.0,0.0,0.0,0.0,0.0,0.0,0.0,0.0,0.0,0.0,0.0,0.0,0.0,0.0,0.0,0.0,0.0,0.0,0.0,0.0,0.0,0.0,0.0,0.0,0.0,0.0,0.0,0.0,0.0,0.0,0.0,0.0,0.0,0.0,0.0,0.0,0.0,0.0,0.0,0.0,0.0,0.0,0.0,0.0,0.0,0.0,0.0,0.0,0.0,0.0,0.0,0.0,0.0,0.0,0.0,0.0,0.0,0.0,0.0,0.0,0.0,0.0,0.0,0.0,0.0,0.0,0.0,0.0,0.0,0.0,0.0,0.0,0.0,0.0,0.0,0.0,0.0,0.0,0.0,0.0,0.0,0.0,0.0,0.0,0.0,0.0,0.0,0.0,0.0,0.0,0.0,0.0,0.0,0.0,0.0,0.0,0.0,0.0,0.0,0.0,0.0,0.0,0.0,0.0,0.0,0.0,0.0,0.0,-2.3458,0.0,0.0,0.0,0.0,0.0,0.0,0.0,0.0,0.0,0.0,0.0,0.0,0.0,0.0,0.0,0.0,0.0,0.0,0.0,0.0,0.0,0.0,0.0,0.0,0.0,0.0,0.0,0.0,0.0,0.0,0.0,0.0,0.0,0.0,0.0,0.0,0.0,0.0,0.0,0.0,0.0,0.0,0.0,0.0,0.0,0.0,0.0,0.0,0.0,0.0,0.0,0.0,0.0,0.0,0.0,0.0,0.0,0.0,0.0,0.0,0.0,0.0,0.0,0.0,0.0,0.0,0.0,0.0,0.0,0.0,0.0,0.0,0.0,0.0,0.0,0.0,0.0,0.0,0.0,0.0,0.0,0.0,0.0,0.0,0.0,0.0,0.0,0.0,0.0,0.0,0.0,0.0,0.0,0.0,0.0,0.0,0.0,0.0,0.0,0.0,0.0,0.0,0.0,0.0,0.0,0.0,0.0,0.0,0.0,0.0,0.0,0.0,0.0,0.0,0.0,0.0,-2.4076,0.0,0.0,0.0,0.0,0.0,0.0,0.0,0.0,0.0,0.0,0.0,0.0,0.0,0.0,0.0,0.0,0.0,0.0,0.0,0.0,0.0,0.0,0.0,0.0,0.0,0.0,0.0,0.0,0.0,0.0,0.0,0.0,0.0,0.0,0.0,0.0,0.0,0.0,0.0,0.0,0.0,0.0,0.0,0.0,0.0,0.0,0.0,0.0,0.0,0.0,0.0,0.0,0.0,0.0,0.0,0.0,0.0,0.0,0.0,0.0,0.0,0.0,0.0,0.0,0.0,0.0,0.0,0.0,0.0,0.0,0.0,0.0,0.0,0.0,0.0,0.0,0.0,0.0,0.0,0.0,0.0,0.0,0.0,0.0,0.0,0.0,0.0,0.0,0.0,0.0,0.0,0.0,0.0,0.0,0.0,0.0,0.0,0.0,0.0,0.0,0.0,0.0,0.0,0.0,0.0,0.0,0.0,0.0,-2.7236,-2.7279,-2.727,-2.7322,-2.6853,-2.5965,-2.5741,-2.555,-2.5401,-2.5404,0.0,0.0,0.0,0.0,0.0,0.0,0.0,0.0,0.0,0.0,0.0,0.0,0.0,0.0,0.0,0.0,0.0,0.0,0.0,0.0,0.0,0.0,0.0,0.0,0.0,0.0,0.0,0.0,0.0,0.0,0.0,0.0,0.0,0.0,0.0,0.0,0.0,0.0,-3.3461,-3.5025,-3.5227,-3.4087,-3.0533,0.0,0.0,0.0,0.0,0.0,0.0,0.0,0.0,0.0,0.0,0.0,0.0,0.0,0.0,0.0,0.0,0.0,0.0,0.0,0.0,0.0,0.0,0.0,0.0,0.0,0.0,0.0,0.0,0.0,0.0,0.0,0.0,0.0,0.0,0.0,0.0,0.0,0.0,0.0,0.0,0.0,0.0,0.0,-2.5601,-2.5601,0.0,0.0,0.0,0.0,0.0,0.0,0.0,0.0,0.0,0.0,0.0,0.0,0.0,-2.7072,-2.7836,-2.7836,-2.8286,-2.9126,-2.9132,-2.9135,-2.9135,-2.9141,-2.8671,-2.7805,-2.7035,0.0,-2.5401,-2.5397,0.0,0.0,0.0,0.0,0.0,0.0,0.0,0.0,0.0,0.0,0.0,0.0,0.0,0.0,0.0,0.0,0.0,0.0,0.0,0.0,0.0,0.0,0.0,0.0,0.0,0.0,0.0,0.0,0.0,0.0,0.0,0.0,0.0,0.0,0.0,0.0,-3.0011,-3.2749,-3.4699,-3.6455,-3.7346,-3.7408,-3.5549,-3.3845,-3.2282,-3.0819,0.0,0.0,0.0,0.0,0.0,0.0,0.0,0.0,0.0,0.0,0.0,0.0,0.0,0.0,0.0,0.0,0.0,0.0,0.0,0.0,0.0,0.0,0.0,0.0,0.0,0.0,0.0,0.0,0.0,0.0,0.0,0.0,0.0,0.0,0.0,0.0,0.0,0.0,0.0,-2.5601,-2.5601,-2.5601,-2.5601,-2.5595,0.0,0.0,0.0,0.0,0.0,0.0,0.0,0.0,0.0,-2.9006,-2.9045,-2.9223,-2.9593,-2.9613,-3.0041,-3.0919,-3.0941,-3.0693,-3.0222,-3.0277,-2.9515,-2.8173,-2.7801,-2.7108,-2.6212,-2.5701,-2.5504,-2.5504,0.0,0.0,0.0,0.0,-2.5426,-2.541,0.0,0.0,0.0,0.0,0.0,0.0,0.0,0.0,0.0,0.0,0.0,0.0,0.0,0.0,0.0,-2.9143,0.0,0.0,0.0,0.0,0.0,0.0,0.0,0.0,0.0,0.0,0.0,-2.9453,-3.2836,-3.5258,-3.6739,-3.8965,-4.0243,-4.0719,-4.0918,-3.8725,-3.4762,-3.3511,-3.1678,0.0,0.0,0.0,0.0,0.0,0.0,0.0,0.0,0.0,0.0,0.0,0.0,0.0,0.0,0.0,0.0,0.0,0.0,0.0,0.0,0.0,0.0,0.0,0.0,0.0,0.0,0.0,0.0,0.0,0.0,0.0,0.0,0.0,0.0,0.0,0.0,0.0,0.0,-2.5967,-2.6084,-2.5659,-2.6179,-2.6418,0.0,0.0,0.0,0.0,0.0,0.0,-2.9157,-3.0017,-3.0863,-3.169,-3.1729,-3.1729,-3.1729,-3.1729,-3.2059,-3.268,-3.2741,-3.2316,-3.1474,-3.1522,-3.0565,-2.8879,-2.8664,-2.8188,-2.7506,-2.6392,-2.5796,-2.5601,-2.5598,-2.5574,-2.5529,-2.5526,-2.5489,-2.5453,0.0,0.0,0.0,0.0,0.0,0.0,0.0,0.0,0.0,0.0,0.0,0.0,0.0,0.0,-3.0002,-3.0803,-3.1691,-3.1473,0.0,0.0,0.0,0.0,0.0,0.0,0.0,0.0,0.0,-3.2851,-3.6148,-3.886,-4.1059,-4.4391,-4.566,-4.512,-4.5876,-4.3963,-3.9791,-3.4971,-3.332,-3.3569,0.0,0.0,0.0,0.0,0.0,0.0,0.0,0.0,0.0,0.0,0.0,0.0,0.0,0.0,0.0,0.0,0.0,0.0,0.0,0.0,0.0,0.0,0.0,0.0,0.0,0.0,0.0,0.0,0.0,0.0,0.0,0.0,0.0,0.0,0.0,0.0,0.0,0.0,0.0,-2.5795,-2.7795,0.0,0.0,0.0,0.0,-2.9296,-3.0822,-3.1789,-3.1899,-3.2721,-3.3606,-3.4472,-3.4492,-3.4492,-3.4492,-3.4492,-3.4512,-3.4551,-3.457,-3.4101,-3.3262,-3.3262,-3.2363,-3.0723,-2.9883,-2.9492,-2.9335,-2.7566,-2.6344,-2.56,-2.5591,-2.5591,-2.5595,-2.5587,-2.5587,-2.5593,0.0,0.0,0.0,0.0,0.0,0.0,0.0,0.0,0.0,0.0,0.0,0.0,0.0,-3.0261,-3.2082,-3.4405,-3.4873,-3.4153,-3.2046,0.0,0.0,0.0,0.0,0.0,0.0,0.0,-3.296,-3.6129,-3.9037,-4.1538,-4.3658,-4.5567,-4.6334,-4.6139,-4.698,-4.6277,-4.4164,-4.0196,-3.7145,-3.4712,-3.1311,-2.9047,0.0,0.0,0.0,0.0,0.0,0.0,0.0,0.0,0.0,0.0,0.0,0.0,0.0,0.0,0.0,0.0,0.0,0.0,0.0,0.0,0.0,0.0,0.0,0.0,0.0,0.0,0.0,0.0,0.0,0.0,0.0,0.0,0.0,0.0,0.0,0.0,0.0,-2.8887,-3.0725,0.0,-3.1089,-3.1616,-3.201,-3.2005,-3.3084,-3.3984,-3.457,-3.5448,-3.6308,-3.7187,-3.7207,-3.7207,-3.7207,-3.6641,-3.6367,-3.6367,-3.5801,-3.5078,-3.4238,-3.4238,-3.3594,-3.248,-3.2187,-3.1426,-3.0391,-2.9743,-2.8625,-2.7277,-2.6729,-2.6468,-2.6377,-2.5867,-2.5639,-2.5601,0.0,0.0,0.0,0.0,0.0,0.0,0.0,0.0,0.0,0.0,0.0,-2.7085,-2.9439,-3.1711,-3.4223,-3.7058,-3.7129,-3.6122,-3.4006,0.0,0.0,0.0,0.0,0.0,0.0,-3.2871,-3.597,-3.8567,-4.1473,-4.3731,-4.5369,-4.662,-4.7282,-4.7398,-4.799,-4.7936,-4.728,-4.4756,-4.1309,-3.726,-3.4218,-3.2237,-3.0761,0.0,0.0,0.0,0.0,0.0,0.0,0.0,0.0,0.0,0.0,0.0,0.0,0.0,0.0,0.0,0.0,0.0,0.0,0.0,0.0,0.0,0.0,0.0,0.0,0.0,0.0,0.0,0.0,0.0,0.0,0.0,0.0,0.0,0.0,0.0,-3.1414,-3.1942,-3.3858,-3.4998,-3.4646,-3.5194,-3.5562,-3.5585,-3.6382,-3.724,-3.8102,-3.871,-3.9297,-3.9863,-3.9883,-3.9609,-3.9043,-3.8164,-3.7598,-3.7285,-3.6426,-3.5547,-3.4687,-3.4394,-3.3809,-3.2988,-3.2676,-3.1934,-3.0898,-3.0898,-3.0215,-2.9023,-2.7578,-2.6972,-2.6829,-2.6009,-2.567,-2.5636,0.0,0.0,0.0,0.0,0.0,0.0,0.0,0.0,0.0,0.0,-2.6192,-2.7079,-2.9336,-3.3039,-3.6306,-3.8539,-3.8097,-3.7021,-3.5495,-3.1077,0.0,0.0,0.0,0.0,-3.1197,-3.5108,-3.8157,-4.0281,-4.3518,-4.5525,-4.6354,-4.7921,-4.8821,-4.9148,-4.9148,-4.9148,-4.9091,-4.8239,-4.5579,-4.1569,-3.7362,-3.622,-3.6393,0.0,0.0,0.0,0.0,0.0,0.0,0.0,0.0,0.0,0.0,0.0,0.0,0.0,0.0,0.0,0.0,0.0,0.0,0.0,0.0,0.0,0.0,0.0,0.0,0.0,0.0,0.0,0.0,0.0,0.0,0.0,0.0,0.0,-2.9665,-3.2575,-3.4737,-3.4799,-3.7089,-3.8339,-3.7478,-3.8932,-3.9959,-4.0003,-4.0746,-4.155,-4.2394,-4.2438,-4.2439,-4.24,-4.2402,-4.1601,-3.9941,-3.9043,-3.8184,-3.7324,-3.6426,-3.5566,-3.4707,-3.3848,-3.3027,-3.2226,-3.1367,-3.0957,-3.0937,-3.0937,-3.0918,-3.0644,-2.8086,-2.7051,-2.6934,-2.6055,-2.5723,-2.5703,0.0,0.0,0.0,0.0,0.0,0.0,0.0,0.0,0.0,0.0,-2.59,-2.8034,-3.0919,-3.3512,-3.6274,-3.9306,-3.6791,-3.5147,-3.5388,0.0,0.0,0.0,0.0,0.0,-3.6162,-3.864,-4.1423,-4.4521,-4.6455,-4.7895,-4.8907,-4.9518,-4.9868,-4.9977,-4.9977,-4.9977,-4.9958,-4.971,-4.8627,-4.6645,-4.1852,-3.9094,-3.7429,0.0,0.0,0.0,0.0,0.0,0.0,0.0,0.0,0.0,0.0,0.0,0.0,0.0,0.0,0.0,0.0,0.0,0.0,0.0,0.0,0.0,0.0,0.0,0.0,0.0,0.0,0.0,0.0,0.0,0.0,0.0,0.0,-3.3984,-3.3287,-3.5642,-3.789,-3.916,-4.1068,-4.2172,-4.1936,-4.2341,-4.2632,-4.2653,-4.2852,-4.3091,-4.3326,-4.3331,-4.3041,-4.2416,-4.24,-4.1874,-4.078,-3.9336,-3.8476,-3.8223,-3.6719,-3.5879,-3.5605,-3.4746,-3.4219,-3.3965,-3.3086,-3.2383,-3.1836,-3.1836,-3.1465,-3.0762,-2.9414,-2.8496,-2.7832,-2.6953,-2.623,-2.5703,0.0,0.0,0.0,0.0,0.0,0.0,0.0,0.0,0.0,0.0,-2.6279,-2.8501,-3.0585,-3.3037,-3.5403,-3.7607,-3.5241,-3.3715,-3.3934,0.0,0.0,0.0,0.0,-3.6272,-3.9586,-4.1845,-4.421,-4.6701,-4.797,-4.9043,-4.9893,-5.005,-5.0175,-5.0302,-5.0302,-5.0302,-5.0302,-5.0302,-5.0038,-4.9327,-4.6059,-4.3835,-4.1987,-3.7531,-3.5765,-3.531,-3.2675,-3.2031,-3.2246,-3.1056,0.0,0.0,0.0,0.0,0.0,0.0,0.0,0.0,0.0,0.0,0.0,0.0,0.0,0.0,0.0,0.0,0.0,0.0,0.0,0.0,0.0,0.0,0.0,0.0,-3.5742,-3.7397,-3.8281,-3.941,-4.0771,-4.253,-4.3633,-4.4387,-4.4758,-4.4797,-4.4797,-4.4797,-4.4449,-4.4393,-4.4764,-4.4439,-4.4013,-4.3505,-4.3139,-4.2535,-4.1656,-3.9979,-3.914,-3.9121,-3.7383,-3.6543,-3.6484,-3.4883,-3.416,-3.4082,-3.2871,-3.209,-3.166,-3.166,-3.1367,0.0,0.0,0.0,0.0,0.0,-2.6445,-2.5703,0.0,0.0,0.0,0.0,0.0,0.0,0.0,0.0,0.0,0.0,0.0,-2.8443,-2.8991,-3.1754,-3.3839,-3.45,-3.3418,-3.2406,0.0,0.0,0.0,-3.2687,-3.6538,-3.9747,-4.2104,-4.4693,-4.6543,-4.7586,-4.8587,-4.9365,-4.9912,-4.9925,-5.005,-5.0302,-5.0302,-5.0302,-5.0302,-5.0302,-5.0302,-5.0245,-4.9529,-4.8901,-4.779,-4.231,-4.1064,-4.1654,-3.7067,-3.5291,-3.4901,-3.336,0.0,0.0,0.0,0.0,0.0,0.0,0.0,0.0,0.0,0.0,0.0,0.0,0.0,0.0,0.0,0.0,0.0,0.0,0.0,0.0,0.0,0.0,0.0,0.0,-3.9071,-4.0348,-4.3665,-4.3391,-4.3411,-4.4953,-4.5148,-4.5441,-4.6222,-4.63,-4.63,-4.63,-4.5578,-4.548,-4.6261,0.0,0.0,0.0,0.0,-4.337,-4.2414,-4.0836,-3.9998,-3.988,-3.8222,-3.7402,-3.7226,-3.4805,-3.3633,-3.3457,-3.1875,-3.1133,-3.1055,-3.1055,-3.0937,-3.0684,-2.9902,-2.9531,-2.9258,-2.7617,-2.6445,-2.5703,0.0,0.0,0.0,0.0,0.0,0.0,0.0,0.0,0.0,-2.4013,-2.5925,-2.7339,-2.7503,-2.9571,-3.1337,-3.2391,-3.1073,-3.0186,0.0,0.0,-3.3208,-3.5944,-3.9513,-4.2554,-4.4949,-4.659,-4.783,-4.8682,-4.9277,-4.9688,-4.9893,-5.0018,-5.0145,-5.0302,-5.0302,-5.0302,-5.0302,-5.0302,-5.0302,-5.0283,-5.0187,-4.9422,-4.8044,-4.5535,-4.3245,-4.1226,-4.0211,-3.8982,-3.7791,-3.7459,-3.7225,-3.6795,-3.5055,0.0,0.0,0.0,0.0,0.0,0.0,0.0,0.0,0.0,0.0,0.0,0.0,0.0,0.0,0.0,0.0,0.0,0.0,0.0,0.0,-4.1149,-4.2252,-4.3684,-4.6456,-4.6105,-4.5675,-4.6007,-4.6046,-4.6105,-4.628,-4.63,-4.63,-4.63,-4.6144,-4.6124,-4.628,-4.6145,-4.5735,-4.5013,-4.4845,-4.399,-4.2428,-4.1379,-4.0541,-3.9897,0.0,0.0,-3.7264,-3.6053,-3.5117,-3.4394,-3.3359,-3.2559,-3.1953,-3.1953,-3.1113,-2.9824,-2.9668,-2.918,-2.8437,-2.7383,-2.6445,-2.5703,0.0,0.0,0.0,0.0,0.0,0.0,0.0,0.0,0.0,0.0,-2.5967,-2.7266,-2.7707,-2.8679,-2.954,-3.0108,-2.9116,0.0,0.0,-3.227,-3.5186,-3.9188,-4.1796,-4.4327,-4.6907,-4.7756,-4.8463,-4.8991,-4.9406,-4.9692,-4.9893,-4.9978,-5.012,-5.0302,-5.0302,-5.0302,-5.0302,-5.0302,-5.0302,-5.0302,-5.0337,-5.0009,-4.937,-4.8206,-4.634,-4.4309,-4.386,-4.2318,-4.0503,-4.0503,-4.0211,-3.9626,-3.8316,-3.613,-3.3632,0.0,0.0,0.0,0.0,0.0,0.0,0.0,0.0,0.0,0.0,0.0,0.0,0.0,0.0,-3.5412,0.0,0.0,-4.1578,-4.5046,-4.5623,-4.6105,-4.7411,-4.7237,-4.6788,-4.6358,-4.63,-4.63,-4.63,-4.63,-4.63,-4.63,-4.63,-4.63,-4.63,-4.63,-4.6105,-4.5656,-4.523,-4.4588,-4.371,-4.2408,-4.1551,-4.1142,-3.9856,-3.9018,-3.8531,-3.6792,-3.5759,-3.5272,-3.3964,-3.3164,-3.2773,-3.2363,-3.1426,-3.0215,-2.9766,-2.8809,-2.7598,-2.7168,-2.6445,-2.5703,0.0,0.0,0.0,0.0,0.0,0.0,0.0,0.0,0.0,0.0,-2.5942,-2.693,-2.7448,-2.7615,-2.7723,0.0,0.0,0.0,0.0,-3.3502,-3.6904,-4.1579,-4.3686,-4.5787,-4.7976,-4.8513,-4.889,-4.9094,-4.9361,-4.9638,-4.9912,-5.0063,-5.0285,-5.055,-5.055,-5.055,-5.055,-5.0378,-5.0302,-5.0302,-5.0314,-5.0497,-5.0637,-4.9781,-4.8569,-4.7184,-4.616,-4.3918,-4.1479,-4.1986,-4.1576,-4.0758,-4.0229,-3.9019,-3.7106,-3.3612,-3.1641,0.0,0.0,0.0,0.0,0.0,0.0,0.0,0.0,0.0,-3.4185,-3.664,-3.7557,-3.9188,-4.3418,-4.3883,-4.4835,-4.847,-4.8369,-4.782,-4.782,-4.7703,-4.7276,-4.6397,-4.63,-4.63,-4.63,-4.63,-4.63,-4.63,-4.63,-4.63,-4.63,-4.63,-4.63,-4.63,-4.5617,-4.5168,-4.499,-4.3612,-4.2816,-4.2621,-4.1102,-4.0304,-4.0051,-3.7609,-3.6418,-3.6166,-3.4411,-3.365,-3.3573,-3.2597,-3.1679,-3.0801,-2.9941,-2.8633,-2.7226,-2.7051,-2.6445,-2.5703,0.0,0.0,0.0,0.0,0.0,0.0,0.0,0.0,0.0,0.0,0.0,0.0,0.0,0.0,0.0,0.0,0.0,0.0,-3.1854,-3.4335,-3.7582,-4.1861,-4.5238,-4.7273,-4.7828,-4.8856,-4.9412,-4.9443,-4.9474,-4.9638,-4.9931,-5.0632,-5.114,-5.1436,-5.1436,-5.1436,-5.141,-5.0627,-5.0302,-5.0302,-5.0359,-5.0596,-5.0718,-4.9143,-4.7602,-4.607,-4.4549,-4.1342,-3.8219,-4.0485,-4.0678,-4.0054,-4.0738,-4.0288,-3.8843,-3.5408,0.0,-2.9651,-2.9261,-2.9835,-3.1432,-3.5235,-3.4736,-3.4834,0.0,0.0,-3.935,-4.1208,-4.3439,-4.5238,-4.5819,-4.7102,-4.849,-4.9755,-4.9228,-4.8662,-4.8662,-4.8057,-4.7276,-4.6397,-4.63,-4.63,-4.63,-4.63,-4.63,-4.63,-4.63,-4.63,-4.63,-4.63,-4.63,-4.63,-4.6202,-4.5773,-4.501,-4.4816,-4.433,-4.353,-4.2573,-4.1719,-4.0904,-3.9128,-3.7881,-3.7064,-3.5307,-3.4546,-3.4429,-3.2789,-3.1638,-3.0819,-2.994,-2.9003,-2.8066,-2.7285,-2.6445,-2.5703,0.0,0.0,0.0,0.0,0.0,0.0,0.0,0.0,0.0,0.0,0.0,0.0,0.0,0.0,0.0,0.0,0.0,0.0,-3.1459,-3.4485,-3.7995,-4.2095,-4.4486,-4.6284,-4.7472,-4.8016,-4.8578,-4.9195,-4.9393,-4.9638,-4.9912,-5.0253,-5.057,-5.0837,-5.0837,-5.0837,-5.0818,-5.0455,-5.0302,-5.0314,-5.0418,-5.0298,-4.9788,-4.7733,-4.5337,-4.2994,-4.2399,-3.9761,0.0,0.0,-3.8648,-3.859,-3.9917,-3.9429,-3.777,-3.4803,-3.2929,0.0,-3.1806,-3.3148,0.0,0.0,-3.8576,-4.1172,-4.3068,-4.3423,-4.4005,-4.6255,-4.6813,-4.7386,-4.8944,-4.9405,-4.9833,0.0,-5.0555,-4.9969,-4.8935,-4.8505,-4.7608,-4.5753,-4.5987,-4.63,-4.63,-4.63,-4.63,-4.63,-4.63,-4.63,-4.63,-4.63,-4.63,-4.63,-4.63,-4.6124,-4.5753,-4.4758,-4.4055,-4.3686,-4.2298,-4.1441,-4.1035,-3.9357,-3.7857,-3.6495,-3.5773,-3.5169,-3.4643,-3.3901,-3.312,-3.2223,-3.0875,-3.0134,-2.9588,-2.7695,-2.6777,-2.6387,0.0,0.0,0.0,0.0,0.0,0.0,0.0,0.0,0.0,0.0,0.0,0.0,0.0,0.0,0.0,0.0,0.0,0.0,0.0,-3.3324,-3.667,-4.0658,-4.2627,-4.4554,-4.6487,-4.7259,-4.8122,-4.9146,-4.9424,-4.9663,-4.9912,-5.018,-5.0437,-5.0665,-5.0665,-5.0531,-5.0283,-5.0054,-4.9713,-4.933,-4.9429,-4.893,-4.7835,-4.5434,-4.2591,-3.9898,-3.9749,-3.734,0.0,0.0,-3.5701,-3.5798,-3.7497,-3.7379,-3.6208,-3.4315,-3.3766,-3.376,-3.3743,0.0,0.0,-3.8579,-4.2742,-4.6521,-4.5783,-4.675,-4.819,-4.9617,-4.9162,-4.8874,-5.0097,-5.0204,-5.0221,-5.0614,-5.1082,-5.0887,-4.9364,-4.8759,-4.7705,-4.5617,-4.548,-4.5675,-4.5929,-4.6163,-4.63,-4.63,-4.63,-4.63,-4.63,-4.63,-4.63,-4.63,-4.63,-4.6183,-4.5948,-4.4699,-4.3938,-4.3686,-4.2181,-4.1459,-4.1381,-3.947,-3.7774,-3.6354,-3.6099,-3.5632,-3.5049,-3.4796,-3.4328,-3.3586,-3.1887,-3.1224,-3.0952,-2.8593,-2.7558,-2.7265,0.0,0.0,0.0,0.0,0.0,0.0,0.0,0.0,0.0,0.0,0.0,0.0,0.0,0.0,0.0,0.0,0.0,0.0,0.0,-3.0355,-3.2875,-3.6706,-3.9837,-4.2456,-4.4548,-4.6941,-4.8611,-4.9474,-4.9623,-4.9759,-4.9912,-5.0912,-5.1421,-5.1551,-5.1551,-5.1085,-5.0245,-4.9461,-4.8231,-4.681,-4.6886,-4.609,-4.4574,-4.2028,-3.9546,-3.73,-3.6461,0.0,0.0,0.0,-3.1699,-3.1308,-3.3045,-3.4139,0.0,-3.4686,-3.4658,0.0,0.0,0.0,-4.0622,-4.4753,-4.7169,-4.8949,-5.06,-5.1661,-5.1857,-5.0236,-5.0642,-5.0521,-4.8066,-4.8971,-4.9831,-4.9013,-5.0301,-5.1082,-5.0182,-4.866,-4.7295,-4.6378,-4.4797,-4.4114,0.0,-4.5792,-4.63,-4.63,-4.63,-4.63,-4.63,-4.63,-4.63,-4.63,-4.63,-4.589,-4.5049,-4.499,-4.4543,-4.3686,-4.2786,-4.2357,-4.2279,-3.9743,-3.8103,-3.7204,-3.6364,-3.5973,-3.5895,-3.5057,-3.4671,-3.448,-3.2742,-3.2061,-3.1869,-3.0152,-2.898,-2.8257,0.0,0.0,0.0,0.0,0.0,0.0,0.0,0.0,0.0,0.0,0.0,0.0,0.0,0.0,0.0,0.0,0.0,0.0,0.0,-3.0219,-3.2568,-3.4424,-3.7446,-3.9937,-4.174,-4.259,-4.3687,-4.5039,-4.5956,-4.6188,-4.5829,-4.7326,-4.8093,-4.82,-4.7665,-4.7551,-4.7685,-4.6309,-4.5394,-4.4824,-4.3815,-4.2867,-4.177,-3.9274,-3.6451,-3.3671,0.0,0.0,0.0,-2.8714,-2.8519,-2.8479,-2.965,-2.9826,-2.9922,-3.1628,-3.2923,-3.4447,0.0,0.0,-4.4418,-4.6411,-4.9465,-5.2141,-5.2737,-5.2665,-5.2325,-5.176,-4.9208,-4.6816,-4.5937,-4.6297,-4.6807,-4.7081,-4.9052,-5.0221,-4.9364,-4.8759,-4.7451,-4.4875,-4.507,0.0,0.0,0.0,0.0,-4.6202,-4.5753,-4.5695,-4.6261,-4.63,-4.63,-4.63,-4.63,-4.587,-4.501,-4.4426,-4.3704,-4.2825,-4.1361,-4.0405,-3.9821,-3.8394,-3.7262,-3.6422,-3.6129,-3.5992,-3.5973,-3.568,-3.5564,-3.545,-3.4278,-3.3479,-3.2817,-3.1685,-3.0709,-2.9793,0.0,0.0,0.0,0.0,0.0,0.0,0.0,0.0,0.0,0.0,0.0,0.0,0.0,0.0,0.0,0.0,0.0,0.0,0.0,0.0,-3.0289,-3.1569,-3.3971,-3.6118,-3.7852,-3.8768,-3.9882,-4.1199,-4.2403,-4.2759,-4.2379,-4.3596,-4.42,-4.4265,-4.3749,-4.3634,-4.3749,-4.2669,-4.1724,-4.0877,-3.988,-3.8749,-3.7413,-3.5507,-3.311,0.0,0.0,0.0,0.0,-2.6723,-2.6547,-2.6684,-2.7561,-2.8498,-2.9667,-3.1595,-3.3823,-3.6649,0.0,-4.4666,-4.7485,-4.9537,-5.2115,-5.4155,-5.4155,-5.3298,-5.2058,-5.0527,-4.7158,-4.3999,-4.2434,-4.2208,-4.2726,-4.4192,-4.6339,-4.7939,-4.833,-4.8096,-4.7081,-4.4894,-4.507,0.0,0.0,0.0,0.0,-4.6163,-4.5773,-4.5714,-4.6261,-4.63,-4.63,-4.63,-4.63,-4.587,-4.501,-4.4133,-4.3118,-4.1927,-4.0795,-3.9839,-3.9001,-3.8142,-3.7282,-3.6441,-3.6148,-3.5992,-3.5992,-3.5992,-3.5992,-3.5914,-3.5037,-3.4354,-3.3768,-3.289,-3.2207,-3.1485,0.0,0.0,0.0,0.0,0.0,0.0,0.0,0.0,0.0,0.0,0.0,0.0,0.0,0.0,0.0,0.0,0.0,0.0,0.0,0.0,0.0,-2.8192,-2.9708,-3.1333,-3.3164,-3.5522,-3.7129,-3.7925,-3.8987,-3.9505,-3.9458,-3.9814,-3.9976,-3.9976,-3.9919,-3.948,-3.8744,-3.8648,-3.7348,-3.5284,-3.5213,-3.3877,-3.1868,-3.0933,0.0,0.0,0.0,0.0,0.0,0.0,0.0,0.0,0.0,0.0,-3.3587,-3.4515,-3.7225,-4.1003,-4.6084,-4.8185,-4.9906,-5.398,-5.499,-5.4996,-5.4957,-5.3505,-5.1006,-4.683,-4.4473,-4.189,0.0,0.0,-3.8017,-4.062,-4.2572,-4.4697,-4.7352,-4.6942,-4.6337,0.0,0.0,0.0,0.0,0.0,0.0,-4.6183,0.0,-4.6241,-4.63,-4.63,-4.63,-4.63,-4.63,-4.587,-4.501,-4.4094,-4.2788,-4.1109,-4.1051,-4.06,-3.9761,-3.8923,-3.8084,-3.7243,-3.6383,-3.5992,-3.5992,-3.5992,-3.5992,-3.5914,-3.5135,-3.4783,-3.4608,-3.3826,-3.3474,-3.3162,0.0,0.0,0.0,0.0,0.0,0.0,0.0,0.0,0.0,0.0,0.0,0.0,0.0,0.0,0.0,0.0,0.0,0.0,0.0,0.0,0.0,0.0,0.0,0.0,0.0,0.0,0.0,0.0,-3.3819,-3.4017,-3.3448,-3.4925,-3.5611,-3.5572,-3.4934,-3.4857,-3.5198,-3.4006,-3.3151,-3.2494,0.0,-3.0442,-2.9849,0.0,0.0,0.0,0.0,0.0,0.0,0.0,0.0,0.0,0.0,0.0,-3.3936,-3.6699,-3.9934,-4.3442,-4.7267,-5.082,-5.3689,-5.475,-5.504,-5.4891,-5.4242,-5.0834,-4.7121,-4.4726,-3.9869,-3.5498,0.0,0.0,0.0,-3.9612,-4.2633,0.0,-4.9006,-4.8147,0.0,0.0,0.0,-4.6121,-4.5096,-4.5937,0.0,0.0,-4.5695,-4.5617,-4.6261,-4.63,-4.63,-4.63,-4.63,-4.587,-4.501,-4.3489,-4.2181,-4.109,-4.0444,-4.0015,-3.9741,-3.8297,-3.7516,-3.7243,-3.6383,-3.5992,-3.5992,-3.5992,-3.5992,-3.6031,-3.6462,-3.5837,-3.4744,-3.5172,-3.4528,-3.324,0.0,0.0,0.0,0.0,0.0,0.0,0.0,0.0,0.0,0.0,0.0,0.0,0.0,0.0,0.0,0.0,0.0,0.0,0.0,0.0,0.0,0.0,0.0,0.0,0.0,0.0,0.0,0.0,0.0,0.0,-2.9608,-3.0707,-3.1236,-3.1217,-3.0713,-3.0777,-3.1186,-3.0259,0.0,0.0,0.0,0.0,0.0,0.0,0.0,0.0,0.0,0.0,0.0,0.0,0.0,-3.2656,-3.3417,-3.5348,-3.7957,-4.0981,0.0,-4.6615,-5.0003,-5.2977,-5.5079,-5.5059,-5.4494,-5.3335,-5.0956,-4.7346,-4.3457,-3.9823,-3.5444,0.0,0.0,0.0,0.0,0.0,0.0,0.0,-4.6791,-4.7084,-4.6752,0.0,-4.6635,0.0,-4.6158,-4.6606,-4.706,0.0,-4.6255,-4.5773,-4.6261,-4.63,-4.63,-4.63,-4.63,-4.5843,-4.4921,-4.3532,-4.2406,-4.1529,-4.0652,-4.0048,-3.9639,-3.8684,-3.8077,-3.7706,0.0,-3.6811,-3.644,-3.6467,-3.6462,-3.6498,-3.6985,-3.6592,-3.581,-3.6298,-3.5666,-3.4411,0.0,0.0,0.0,0.0,0.0,0.0,0.0,0.0,0.0,0.0,0.0,0.0,0.0,0.0,0.0,0.0,0.0,0.0,0.0,0.0,0.0,0.0,0.0,0.0,0.0,0.0,0.0,0.0,0.0,0.0,0.0,0.0,0.0,0.0,0.0,0.0,0.0,0.0,0.0,0.0,0.0,0.0,0.0,0.0,0.0,0.0,0.0,0.0,0.0,0.0,-3.3573,-3.5545,-3.7399,-4.0249,-4.3406,-4.5821,-4.7786,-4.985,-5.3027,-5.4586,-5.5268,-5.5126,-5.3618,-5.1074,-4.6894,-4.3613,-3.9838,-3.4138,0.0,0.0,-2.8168,0.0,-2.9654,-3.4129,0.0,-3.9704,-4.3643,-4.5265,-4.6103,-4.6357,-4.6376,-4.661,-4.7276,-4.6847,-4.7081,-4.8368,-4.7196,-4.6425,-4.6425,-4.6329,-4.6269,-4.6245,-4.6245,-4.5716,-4.4619,-4.3806,-4.2903,-4.1913,-4.1155,-4.0398,-3.9679,-3.9543,-3.9111,-3.8466,-3.8412,-3.7914,-3.7174,-3.7231,-3.7217,-3.7184,-3.7281,-3.7292,-3.7251,-3.7251,-3.6779,-3.5997,0.0,0.0,0.0,0.0,0.0,0.0,0.0,0.0,0.0,0.0,0.0,0.0,0.0,0.0,0.0,0.0,0.0,0.0,0.0,0.0,0.0,0.0,0.0,0.0,0.0,0.0,0.0,0.0,0.0,0.0,0.0,0.0,0.0,0.0,0.0,0.0,0.0,0.0,0.0,0.0,0.0,0.0,0.0,0.0,0.0,0.0,0.0,0.0,0.0,0.0,-3.5291,-3.8337,-4.0756,-4.3411,-4.5984,-4.7811,-4.9577,-5.1379,-5.3366,-5.5042,-5.6077,-5.5296,-5.2749,-4.9509,-4.5918,-4.0912,0.0,0.0,0.0,-2.7279,-2.6314,-2.7266,0.0,-3.4874,0.0,0.0,0.0,0.0,-4.566,0.0,0.0,0.0,0.0,0.0,0.0,0.0,0.0,-4.7124,-4.7124,-4.6497,-4.6072,-4.5978,-4.5978,-4.5225,-4.3651,-4.3476,-4.2592,-4.1024,-4.0869,-4.0713,-4.0558,-3.9834,-3.9427,-3.9271,-3.86,0.0,-3.8073,-3.8091,-3.8091,-3.8131,-3.8801,-3.8674,-3.81,-3.8089,-3.7557,-3.6589,0.0,0.0,0.0,0.0,0.0,0.0,0.0,0.0,0.0,0.0,0.0,0.0,0.0,0.0,0.0,0.0,0.0,0.0,0.0,0.0,0.0,0.0,0.0,0.0,0.0,0.0,0.0,0.0,0.0,0.0,0.0,0.0,0.0,0.0,0.0,0.0,0.0,0.0,0.0,0.0,0.0,0.0,0.0,0.0,0.0,0.0,0.0,0.0,0.0,0.0,-3.4061,-3.7322,-4.1693,-4.5168,-4.7762,-4.8552,-5.0352,-5.2351,-5.3615,-5.4861,-5.55,-5.414,-5.0897,-4.6768,-4.1983,0.0,0.0,0.0,0.0,-2.6167,-2.5763,0.0,0.0,0.0,0.0,0.0,0.0,0.0,0.0,0.0,0.0,0.0,0.0,0.0,0.0,0.0,0.0,-4.6615,-4.6619,-4.6192,-4.5919,-4.5856,-4.577,-4.5364,-4.4544,-4.3659,-4.2774,-4.1924,-4.1061,-4.0636,-4.0636,-4.0211,-4.0005,-3.9946,-3.9623,0.0,-3.8775,-3.8839,-3.8858,-3.8858,-3.925,-3.9189,-3.8822,-3.8368,-3.7681,-3.6759,0.0,0.0,0.0,0.0,0.0,0.0,0.0,0.0,-2.0476,-2.1963,-2.1374,-2.1124,-2.1989,-2.143,0.0,0.0,0.0,0.0,0.0,0.0,0.0,0.0,0.0,0.0,0.0,0.0,0.0,0.0,0.0,0.0,0.0,0.0,0.0,0.0,0.0,0.0,0.0,0.0,0.0,0.0,0.0,0.0,0.0,0.0,0.0,0.0,0.0,0.0,0.0,0.0,-3.2012,-3.4764,-3.9878,-4.4351,-4.7714,-4.7714,-4.9806,-5.2332,-5.3202,-5.418,-5.4491,-5.2761,-4.8959,-4.4168,-3.8492,-3.4272,0.0,0.0,-2.5699,-2.5699,-2.5699,0.0,0.0,0.0,0.0,0.0,0.0,0.0,0.0,0.0,0.0,0.0,0.0,0.0,0.0,0.0,0.0,0.0,-4.5905,-4.579,-4.5717,-4.5705,-4.56,-4.5478,-4.5305,-4.3771,-4.2885,-4.2693,-4.1198,-4.0487,-4.0485,-4.0485,-4.0545,-4.0665,-4.0585,0.0,0.0,-3.9641,-3.9576,-3.9542,-3.9542,-3.9456,-3.9238,-3.837,-3.7531,-3.669,0.0,0.0,0.0,0.0,0.0,0.0,0.0,0.0,-2.0399,-2.129,-2.0694,-2.0497,-2.1295,-2.1155,0.0,0.0,0.0,0.0,0.0,0.0,0.0,0.0,0.0,0.0,0.0,0.0,0.0,0.0,0.0,0.0,0.0,0.0,0.0,0.0,0.0,0.0,0.0,0.0,0.0,0.0,0.0,0.0,0.0,0.0,0.0,0.0,0.0,0.0,0.0,0.0,0.0,-3.1522,-3.367,-3.8876,-4.4176,-4.4177,0.0,0.0,-5.1402,-5.2796,-5.3594,-5.1852,-4.7608,-4.2676,-3.8207,0.0,0.0,0.0,-2.5699,-2.5699,-2.5699,-2.5835,-2.7004,0.0,0.0,0.0,0.0,0.0,0.0,0.0,0.0,0.0,0.0,0.0,0.0,0.0,0.0,0.0,-4.5634,-4.5503,-4.5429,-4.5438,-4.5419,-4.5064,-4.4335,-4.3386,-4.2533,-4.1805,-4.0865,-4.0415,-4.0415,-4.0415,-4.0837,-4.1547,-4.0758,0.0,0.0,-4.0633,-4.0298,-4.0309,-4.0309,-3.9819,-3.9029,-3.8223,-3.7368,-3.6404,0.0,0.0,0.0,0.0,0.0,0.0,0.0,0.0,-2.0461,-2.132,-2.1072,-2.0938,-2.1275,-2.1233,0.0,0.0,0.0,0.0,0.0,0.0,0.0,0.0,0.0,0.0,0.0,0.0,0.0,0.0,0.0,0.0,0.0,0.0,0.0,0.0,0.0,0.0,0.0,0.0,0.0,0.0,0.0,0.0,0.0,0.0,0.0,0.0,0.0,0.0,0.0,0.0,0.0,0.0,-2.8705,-3.2051,0.0,0.0,-4.4023,-4.7495,-4.9941,-5.1468,-5.1923,-5.0218,-4.5514,-4.0328,-3.6493,0.0,0.0,-2.6128,-2.5699,-2.5699,-2.5699,-2.5699,-2.6478,0.0,0.0,0.0,0.0,0.0,0.0,0.0,0.0,0.0,0.0,0.0,0.0,0.0,0.0,0.0,-4.5419,-4.536,-4.5348,-4.535,-4.4823,-4.4651,-4.4871,-4.3522,-4.2938,-4.313,-4.1816,-4.1165,-4.111,-4.111,-4.1024,-4.0863,-4.1043,0.0,0.0,-4.0532,-4.0407,-4.0407,-4.0407,-3.987,-3.8997,-3.8202,-3.7351,-3.6358,0.0,0.0,0.0,0.0,0.0,0.0,-2.0402,-2.032,-2.0477,-2.1093,-2.1096,-2.1039,-2.1032,-2.1028,-2.1096,-2.1304,0.0,0.0,0.0,0.0,0.0,0.0,0.0,0.0,0.0,0.0,0.0,0.0,0.0,0.0,0.0,0.0,0.0,0.0,0.0,0.0,0.0,0.0,0.0,0.0,0.0,0.0,0.0,0.0,0.0,0.0,0.0,0.0,0.0,0.0,0.0,0.0,0.0,0.0,0.0,0.0,-4.0112,-4.3985,-4.6706,-4.8591,-4.9385,-4.7687,-4.3117,-3.8188,0.0,0.0,-2.7411,-2.5991,-2.5699,-2.5699,-2.5699,-2.5699,-2.6167,0.0,0.0,0.0,0.0,0.0,0.0,0.0,0.0,0.0,0.0,0.0,0.0,0.0,0.0,0.0,-4.5307,-4.5307,-4.5307,-4.5307,-4.4456,-4.4418,-4.5288,-4.3636,-4.312,-4.3704,-4.2307,-4.1484,-4.1217,-4.1466,-4.1237,-4.0692,-4.1303,0.0,0.0,-4.045,-4.0363,-4.0344,-4.0085,-3.9453,-3.8591,-3.7786,-3.6774,-3.5629,0.0,0.0,0.0,0.0,0.0,0.0,0.0,0.0,-2.0405,-2.0404,-2.0407,-2.0417,-2.0418,-2.0352,-2.0604,-2.1333,0.0,0.0,0.0,0.0,0.0,0.0,0.0,0.0,0.0,0.0,0.0,-2.0313,-2.1193,0.0,0.0,0.0,0.0,0.0,0.0,0.0,0.0,0.0,0.0,0.0,0.0,0.0,0.0,0.0,0.0,0.0,0.0,0.0,0.0,0.0,0.0,0.0,0.0,0.0,0.0,0.0,-3.5151,-4.0058,-4.0955,-4.3663,-4.5829,-4.4088,-4.0406,-3.6551,0.0,0.0,-2.6671,-2.5874,-2.5699,-2.5699,-2.5699,-2.5699,-2.5972,-2.6788,0.0,0.0,0.0,0.0,0.0,0.0,0.0,0.0,0.0,0.0,0.0,0.0,0.0,0.0,-4.5307,-4.5307,-4.5307,-4.5307,-4.4456,-4.4418,-4.5288,-4.3634,-4.2794,-4.2794,-4.1915,-4.1074,-4.0339,-4.1132,-4.1504,-4.1495,0.0,0.0,0.0,-4.0635,-4.0301,-4.0225,-3.9355,-3.8476,-3.7617,-3.6814,-3.5458,-3.3899,0.0,0.0,0.0,0.0,0.0,0.0,0.0,0.0,-1.8421,-1.7863,-1.8326,-1.845,-1.7873,-1.9348,-2.0456,-2.0704,0.0,0.0,0.0,0.0,0.0,0.0,0.0,0.0,0.0,0.0,-2.0239,-2.0239,-2.0601,-2.0789,-2.0789,0.0,0.0,0.0,0.0,0.0,0.0,0.0,0.0,0.0,0.0,0.0,0.0,0.0,0.0,0.0,0.0,0.0,0.0,0.0,0.0,0.0,0.0,0.0,0.0,0.0,0.0,0.0,-3.6999,-3.8772,-3.9766,-3.8617,-3.6006,-3.3183,-3.1193,-2.8756,-2.6671,-2.5874,-2.5699,-2.5699,-2.5699,-2.5699,-2.6167,-2.7567,-2.8015,0.0,0.0,0.0,0.0,0.0,0.0,0.0,0.0,0.0,0.0,0.0,0.0,0.0,-4.5307,-4.5307,-4.5307,-4.5307,-4.3921,-4.3864,-4.5288,-4.3634,-4.3386,-4.4494,-4.3061,-4.2545,-4.2803,-4.1915,-4.1495,0.0,0.0,0.0,0.0,-4.0416,-3.9938,-3.9374,-3.9107,-3.8132,-3.692,-3.7215,-3.5916,-3.3956,0.0,0.0,0.0,0.0,0.0,0.0,0.0,0.0,-1.7519,-1.7978,-1.7665,-1.7575,-1.8019,-1.9461,-2.0407,-2.0402,0.0,0.0,0.0,0.0,0.0,0.0,0.0,0.0,0.0,-2.0297,-2.0308,-2.0308,-2.0407,-2.0432,-2.0432,-2.0478,-2.0507,0.0,0.0,0.0,0.0,0.0,0.0,0.0,0.0,0.0,-2.1854,0.0,0.0,0.0,0.0,0.0,0.0,0.0,0.0,0.0,0.0,0.0,0.0,0.0,-2.7336,0.0,0.0,-3.4603,-3.5558,-3.4683,-3.2774,0.0,0.0,-2.7684,-2.6303,-2.5796,-2.5699,-2.5699,-2.5699,-2.5699,-2.605,-2.708,-2.7782,0.0,0.0,0.0,0.0,0.0,0.0,0.0,0.0,0.0,0.0,0.0,0.0,0.0,-4.5307,-4.5307,-4.5144,-4.4819,-4.3806,-4.3615,-4.4341,-4.3615,-4.3615,-4.4341,-4.3291,-4.3061,-4.3491,-4.2125,-4.1495,0.0,0.0,0.0,0.0,-4.0301,-3.9976,-3.9431,-3.8763,-3.8075,-3.7436,-3.7311,-3.5859,-3.3995,0.0,0.0,0.0,0.0,0.0,0.0,0.0,0.0,0.0,0.0,0.0,-1.7469,-1.9944,-2.0325,0.0,0.0,0.0,0.0,0.0,0.0,0.0,0.0,0.0,0.0,0.0,-2.0465,-2.0483,-2.0483,-2.0546,-2.0585,-2.0585,-2.0643,-2.0643,-2.0585,-2.0585,-2.0548,-2.0497,-2.0502,-2.0498,-2.0492,-2.0501,-2.0976,0.0,0.0,0.0,0.0,0.0,0.0,0.0,0.0,0.0,0.0,0.0,0.0,0.0,0.0,0.0,0.0,0.0,0.0,0.0,0.0,0.0,0.0,0.0,-2.6829,0.0,-2.5699,-2.5699,-2.5718,-2.5777,-2.5738,-2.5755,-2.5929,-2.7271,0.0,0.0,0.0,0.0,0.0,0.0,0.0,0.0,0.0,0.0,0.0,0.0,0.0,-4.5307,-4.5239,-4.48,-4.393,-4.3911,-4.3548,-4.2813,-4.3529,-4.3567,-4.2889,-4.2832,-4.2832,-4.2851,-4.1858,-4.1437,0.0,0.0,0.0,0.0,-4.0167,-4.011,-3.9938,-3.8323,-3.8113,-3.8572,-3.7188,-3.5496,-3.3918,0.0,0.0,0.0,0.0,0.0,0.0,0.0,0.0,0.0,0.0,0.0,-1.6081,-1.7387,-1.9284,0.0,0.0,0.0,0.0,0.0,0.0,0.0,0.0,0.0,0.0,0.0,-2.0382,-2.0424,-2.0424,-2.1097,-2.1422,-2.1422,-2.2105,-2.2066,-2.1422,-2.1422,-2.1079,-2.0492,-2.0497,-2.0506,-2.0507,-2.0507,-2.0618,0.0,0.0,0.0,0.0,-2.2116,-2.2661,0.0,0.0,0.0,0.0,0.0,0.0,0.0,0.0,-2.3546,-2.3984,-2.5247,0.0,-2.7452,-2.7258,0.0,0.0,0.0,0.0,-2.5699,0.0,0.0,0.0,0.0,-2.6108,-2.6329,-2.8212,0.0,0.0,0.0,0.0,0.0,0.0,0.0,0.0,0.0,0.0,0.0,0.0,0.0,-4.5307,-4.5307,-4.4666,-4.394,-4.3119,-4.308,-4.2985,-4.2794,-4.2985,-4.331,-4.3701,-4.31,-4.3119,-4.3643,-4.1542,-4.0922,0.0,0.0,0.0,-4.0205,-3.8858,-3.8304,-3.8266,-3.7865,-3.7043,-3.6279,-3.7846,-3.6118,-3.3196,0.0,0.0,0.0,0.0,0.0,0.0,0.0,0.0,0.0,0.0,0.0,0.0,0.0,0.0,0.0,0.0,0.0,0.0,0.0,0.0,0.0,0.0,0.0,0.0,-2.0385,-2.0427,-2.0457,-2.0457,-2.1296,-2.1694,-2.1714,-2.259,-2.2532,-2.1677,-2.1314,-2.0912,-2.0507,-2.0509,-2.0505,-2.0506,-2.05,0.0,0.0,0.0,0.0,0.0,-2.12,-2.1765,0.0,-2.2505,-2.2771,-2.3095,0.0,0.0,0.0,0.0,-2.2751,-2.3164,-2.3623,-2.4419,-2.5192,-2.5601,-2.5699,-2.5699,0.0,0.0,0.0,0.0,0.0,0.0,0.0,0.0,0.0,0.0,0.0,0.0,0.0,0.0,0.0,0.0,0.0,0.0,0.0,0.0,0.0,0.0,0.0,-4.4532,-4.4169,-4.3711,-4.308,-4.2221,-4.2202,-4.203,-4.1667,-4.2412,-4.2813,-4.2851,-4.2412,-4.2641,-4.3376,-4.1256,-4.075,0.0,0.0,0.0,-4.0225,-3.9279,-3.8897,-3.882,-3.8018,-3.7636,-3.7608,-3.819,-3.647,-3.3979,0.0,0.0,0.0,0.0,0.0,0.0,0.0,0.0,0.0,0.0,0.0,0.0,0.0,0.0,0.0,0.0,0.0,0.0,0.0,0.0,0.0,0.0,0.0,-2.0352,-2.0507,-2.0507,-2.0507,-2.0507,-2.1442,-2.1908,-2.1927,-2.2785,-2.2673,-2.1672,-2.086,-2.0492,-2.0504,-2.0506,-2.0506,-2.0498,-2.0508,0.0,0.0,0.0,0.0,0.0,0.0,0.0,0.0,-2.1607,-2.2094,-2.2697,-2.2698,0.0,0.0,0.0,0.0,0.0,-2.2923,-2.3577,-2.4425,-2.5436,-2.5671,-2.5673,0.0,0.0,0.0,0.0,0.0,0.0,0.0,0.0,0.0,0.0,0.0,0.0,0.0,0.0,0.0,0.0,0.0,0.0,0.0,0.0,0.0,0.0,0.0,-4.3643,-4.2822,-4.2679,-4.2259,-4.1504,-4.138,-4.0998,-4.0301,-4.1839,-4.224,-4.1485,-4.1485,-4.181,-4.2345,-4.0788,-4.0454,-4.1074,0.0,0.0,-4.0282,-4.0014,-3.9976,-3.9929,-3.8467,-3.8707,-3.9728,-3.8382,-3.6644,-3.4937,0.0,0.0,0.0,0.0,0.0,0.0,0.0,0.0,0.0,0.0,0.0,0.0,0.0,0.0,0.0,0.0,0.0,0.0,0.0,0.0,0.0,0.0,-1.9327,-1.9735,-2.0488,-2.0507,-2.0507,-2.0507,-2.2046,-2.2804,-2.2823,-2.3695,-2.3276,-2.1744,-2.0873,-2.0494,-2.0507,-2.0505,-2.0494,-2.0509,-2.0506,0.0,0.0,0.0,0.0,0.0,0.0,0.0,0.0,-2.0683,-2.0781,-2.0904,-2.0903,0.0,0.0,0.0,0.0,0.0,-2.2605,-2.3103,-2.3597,-2.5207,-2.5615,-2.5627,-2.5621,0.0,0.0,0.0,0.0,0.0,0.0,0.0,0.0,0.0,0.0,0.0,0.0,0.0,0.0,0.0,0.0,0.0,0.0,0.0,0.0,0.0,0.0,-4.3614,-4.2763,-4.2067,-4.1609,-4.1426,-4.0817,-4.0416,-4.0301,-4.1227,-4.1609,-4.1426,-4.1426,-4.1121,-4.0578,-3.9567,-3.9204,-3.9336,0.0,-3.8935,-4.0186,-3.8706,-3.8497,-3.909,-3.8823,-3.8432,-3.8061,-3.8471,-3.6661,-3.3709,0.0,0.0,0.0,0.0,0.0,0.0,0.0,0.0,0.0,0.0,0.0,0.0,0.0,0.0,0.0,0.0,0.0,0.0,0.0,0.0,0.0,-1.987,-1.9454,-1.9607,-2.049,-2.0934,-2.1167,-2.1196,-2.2888,-2.3482,-2.3054,-2.2975,-2.2548,-2.1753,-2.0889,-2.0508,-2.0501,-2.049,-2.0496,-2.0498,0.0,0.0,0.0,0.0,0.0,0.0,0.0,0.0,0.0,0.0,-2.0398,-2.039,-2.0383,0.0,0.0,0.0,0.0,0.0,-2.1945,-2.2296,-2.2694,-2.4362,-2.514,-2.5486,-2.5489,0.0,0.0,0.0,0.0,0.0,0.0,0.0,0.0,0.0,0.0,0.0,0.0,0.0,0.0,0.0,0.0,0.0,0.0,0.0,0.0,0.0,0.0,0.0,-4.1357,-4.0939,-4.05,-4.0004,-3.9671,-3.949,-3.949,-3.9706,-4.0143,-4.0749,-4.0243,-3.9795,-3.9442,-3.9042,-3.8861,-3.8899,0.0,-3.9462,-4.0129,-3.9328,-3.9214,-3.9499,-3.9023,-3.8899,-3.8775,-3.7319,-3.5254,-3.2855,0.0,0.0,0.0,0.0,0.0,0.0,0.0,0.0,0.0,0.0,0.0,0.0,0.0,0.0,0.0,0.0,0.0,0.0,0.0,0.0,-1.9619,-2.0457,-1.9678,-1.9604,-2.0484,-2.0908,-2.114,-2.1194,-2.2689,-2.3208,-2.278,-2.2117,-2.1685,-2.1465,-2.0801,-2.05,-2.0494,-2.0492,-2.0498,-2.0498,0.0,0.0,0.0,0.0,0.0,0.0,0.0,0.0,0.0,0.0,0.0,0.0,0.0,0.0,0.0,-2.0392,-2.0407,-2.0582,-2.1462,-2.1678,-2.2002,-2.3433,0.0,-2.5197,-2.5576,0.0,0.0,0.0,0.0,0.0,0.0,0.0,0.0,0.0,0.0,0.0,0.0,0.0,0.0,0.0,0.0,0.0,0.0,0.0,0.0,0.0,0.0,0.0,-3.9887,-3.9802,-3.9402,-3.8527,-3.8509,-3.8509,-3.8509,-3.8415,-3.8934,-4.0048,-3.9252,-3.8774,-3.8593,-3.8593,-3.8584,-3.8633,-3.9296,-3.9702,-3.9892,-3.9892,-3.9778,-3.9521,-3.8858,-3.8631,-3.8357,-3.542,-3.3392,-3.1914,0.0,0.0,0.0,0.0,0.0,0.0,0.0,0.0,0.0,0.0,0.0,0.0,0.0,0.0,0.0,0.0,0.0,0.0,0.0,0.0,-1.9648,-2.0469,-1.9664,-1.9618,-2.0472,-1.9765,-1.9374,-1.9396,-2.0312,-2.1154,-2.1883,-2.1825,-2.1365,-2.0583,-2.0522,-2.0492,-2.0503,-2.05,-2.0498,-2.0497,-2.0422,0.0,0.0,0.0,0.0,0.0,0.0,0.0,0.0,0.0,0.0,0.0,0.0,0.0,-2.0408,-2.0392,-2.0407,-2.0582,-2.1462,-2.1608,-2.1737,-2.2658,0.0,0.0,-2.6079,-2.7038,0.0,0.0,0.0,0.0,0.0,0.0,0.0,0.0,0.0,0.0,0.0,0.0,0.0,0.0,0.0,0.0,0.0,0.0,0.0,0.0,0.0,0.0,-3.8981,-3.8898,-3.8489,-3.7613,-3.7652,-3.77,-3.77,-3.8107,-3.8752,-3.9635,-3.9258,-3.8699,-3.7951,-3.7951,-3.7952,-3.796,-3.8035,-3.8515,-3.9257,-3.9257,-3.8782,-3.804,-3.7984,-3.6609,-3.4403,-3.268,-3.1496,-3.0611,0.0,0.0,0.0,0.0,0.0,0.0,0.0,0.0,0.0,0.0,0.0,0.0,0.0,0.0,0.0,0.0,0.0,0.0,0.0,0.0,-2.0249,-2.0542,-2.0252,-2.0214,-2.0566,-2.0736,-2.0555,-2.0017,-2.0879,-2.1484,-2.1797,-2.1247,-2.0814,-2.0501,-2.0508,-2.0493,-2.0498,-2.0498,-2.0487,-2.0443,-2.0407,-2.0378,0.0,0.0,0.0,0.0,0.0,0.0,0.0,0.0,-2.0179,-2.0179,0.0,0.0,-2.0271,-2.0273,-2.028,-2.035,-2.0684,-2.1104,-2.163,-2.2465,0.0,0.0,0.0,0.0,0.0,0.0,0.0,0.0,0.0,0.0,0.0,0.0,0.0,0.0,0.0,0.0,0.0,0.0,0.0,0.0,0.0,0.0,0.0,0.0,0.0,0.0,-3.8019,-3.7925,-3.7546,-3.6729,-3.6729,-3.672,-3.672,-3.7031,-3.7113,-3.6994,-3.7862,-3.7883,-3.7121,-3.761,-3.7023,-3.5708,-3.7731,-3.8234,-3.7714,-3.8694,-3.8327,-3.7055,-3.6044,-3.446,-3.2631,-3.2017,-3.0945,-2.9744,0.0,0.0,0.0,0.0,0.0,0.0,0.0,0.0,0.0,0.0,0.0,0.0,0.0,0.0,0.0,0.0,0.0,0.0,0.0,-2.0594,-2.0594,-2.0594,-2.0594,-2.0594,-2.0594,-2.1133,-2.0995,-2.0116,-2.0712,-2.1139,-2.1381,-2.0775,-2.0497,-2.0492,-2.0492,-2.0494,-2.0464,-2.0464,-2.0439,-2.0371,-2.0352,-2.0317,0.0,0.0,0.0,0.0,0.0,0.0,0.0,0.0,-2.0093,0.0,0.0,0.0,0.0,0.0,-2.02,-2.0196,-2.02,-2.0595,-2.1173,0.0,0.0,0.0,0.0,0.0,0.0,0.0,0.0,0.0,0.0,0.0,0.0,0.0,0.0,0.0,0.0,0.0,0.0,0.0,0.0,0.0,0.0,0.0,0.0,0.0,0.0,0.0,0.0,-3.7021,-3.6612,-3.5728,-3.569,-3.566,-3.5568,-3.5628,-3.5528,-3.529,-3.6311,-3.6367,-3.5638,-3.6698,-3.6141,-3.4452,-3.6929,-3.739,-3.6496,-3.7556,-3.7224,-3.5826,-3.3709,-3.249,-3.1825,-3.1062,-3.0219,-2.9429,0.0,0.0,0.0,0.0,0.0,0.0,0.0,0.0,0.0,0.0,0.0,0.0,0.0,0.0,0.0,0.0,0.0,0.0,-2.0594,-2.0594,-2.0594,-2.0594,-2.0594,-2.0594,-2.0594,-2.0594,-2.0183,-1.9304,-1.9298,-1.9703,-2.0498,-2.051,-2.0503,-2.0498,-2.0498,-2.0459,-2.04,-2.04,-2.0366,-2.0296,-2.0223,-2.0208,-2.02,0.0,0.0,0.0,0.0,0.0,0.0,0.0,-2.0093,-2.0093,0.0,0.0,0.0,0.0,-2.0196,-2.0196,-2.02,-2.0162,0.0,0.0,0.0,0.0,0.0,0.0,0.0,0.0,0.0,0.0,0.0,0.0,0.0,0.0,0.0,0.0,0.0,0.0,0.0,0.0,0.0,0.0,0.0,0.0,0.0,0.0,0.0,0.0,0.0,-3.6178,-3.569,-3.4631,-3.4602,-3.4473,-3.4209,-3.3934,-3.4197,-3.4972,-3.4706,-3.419,-3.3465,-3.5062,-3.5351,-3.4609,-3.5442,-3.5786,-3.5768,-3.5768,-3.5297,-3.428,-3.1057,-3.0781,-3.189,-2.9487,-2.9119,-2.9676,0.0,0.0,0.0,0.0,0.0,0.0,0.0,0.0,0.0,0.0,0.0,0.0,0.0,0.0,0.0,0.0,0.0,0.0,0.0,-2.0594,-2.0594,-2.0594,-2.0594,-2.0594,-2.0594,-2.061,-2.0471,-2.0217,-1.8377,-1.8508,-2.0509,-2.0504,-2.0467,-2.042,-2.042,-2.0391,-2.0335,-2.0335,-2.0296,-2.0223,-2.0219,-2.0171,-2.013,0.0,0.0,0.0,0.0,0.0,0.0,0.0,0.0,0.0,0.0,0.0,0.0,-2.0135,-2.0098,-2.0055,-2.0065,-2.0906,0.0,0.0,0.0,0.0,0.0,0.0,0.0,0.0,0.0,0.0,0.0,0.0,0.0,0.0,0.0,0.0,0.0,0.0,0.0,0.0,0.0,0.0,0.0,0.0,0.0,0.0,0.0,0.0,0.0,-3.4563,-3.43,-3.4594,-3.4427,-3.4281,-3.4197,-3.4492,-3.4211,-3.3311,-3.3611,-3.3936,-3.428,-3.5315,-3.4736,-3.3013,-3.4953,-3.5152,-3.4117,-3.4117,-3.3973,-3.3556,-3.1469,-3.06,-3.0437,-2.9712,-2.9246,-2.8907,0.0,0.0,0.0,0.0,0.0,0.0,0.0,0.0,0.0,0.0,0.0,0.0,0.0,0.0,0.0,0.0,0.0,0.0,0.0,0.0,-2.0569,-2.059,-2.059,-2.0587,-2.0559,-1.9539,-1.9488,-2.0483,-1.8963,-1.9009,-2.0506,-2.0467,-2.0445,-2.04,-2.0376,-2.0329,-2.0259,-2.0259,-2.0215,-2.0159,-2.0159,-2.0143,-2.0093,0.0,0.0,0.0,0.0,0.0,0.0,0.0,0.0,0.0,0.0,0.0,0.0,-2.0108,-2.0049,-2.0079,-2.0418,0.0,0.0,0.0,0.0,0.0,0.0,0.0,0.0,0.0,0.0,0.0,0.0,0.0,0.0,0.0,0.0,0.0,0.0,0.0,0.0,0.0,0.0,0.0,0.0,0.0,0.0,0.0,0.0,0.0,0.0,-3.3068,-3.2903,-3.3328,-3.3165,-3.3198,-3.3403,-3.3414,-3.3259,-3.2931,-3.2918,-3.3339,-3.4135,-3.4298,-3.3574,-3.2288,-3.4081,-3.4298,-3.3375,-3.3067,-3.3103,-3.3248,-3.1618,-3.1079,-3.1106,-3.0473,-3.0121,-2.9864,0.0,0.0,0.0,0.0,0.0,0.0,0.0,0.0,0.0,0.0,0.0,0.0,0.0,0.0,0.0,0.0,0.0,0.0,0.0,0.0,-2.0533,-2.0676,-2.0697,-2.0627,-2.0499,-1.8169,-1.8037,-2.031,-2.019,-2.0243,-2.0476,-2.0415,-2.0391,-2.0383,-2.0323,-2.0252,-2.0196,-2.0196,-2.015,-2.0093,-2.0093,-2.0093,-2.0093,-2.0093,0.0,0.0,0.0,0.0,0.0,0.0,0.0,0.0,-2.0093,-2.0093,-2.0107,-2.0093,-2.0058,-2.0193,0.0,0.0,0.0,0.0,0.0,0.0,0.0,0.0,0.0,0.0,0.0,0.0,0.0,0.0,0.0,0.0,0.0,0.0,0.0,0.0,0.0,0.0,0.0,0.0,0.0,0.0,0.0,0.0,0.0,0.0,0.0,-3.1697,-3.1573,-3.1415,-3.1378,-3.1605,-3.2103,-3.1379,-3.1727,-3.3176,-3.2433,-3.2469,-3.3158,-3.2578,-3.2306,-3.2343,-3.3085,-3.3393,-3.3339,-3.2542,-3.2654,-3.3233,-3.1695,-3.196,-3.3006,-3.1546,-3.1376,-3.1682,0.0,0.0,0.0,0.0,0.0,0.0,0.0,0.0,0.0,0.0,0.0,0.0,0.0,0.0,0.0,0.0,0.0,0.0,0.0,0.0,-2.0646,-2.1357,-2.1376,-2.1082,-2.0434,-1.9823,-1.976,-2.031,-1.8321,-1.8384,-2.0347,-2.0332,0.0,-2.0245,0.0,-2.0188,-2.0125,-2.0125,-2.0112,-2.0093,-2.0093,-2.0093,-2.0093,-2.0093,-2.0093,0.0,0.0,0.0,0.0,0.0,0.0,0.0,-2.0093,-2.0093,-2.0093,-2.0098,-2.005,-2.0191,0.0,0.0,0.0,0.0,0.0,0.0,0.0,0.0,0.0,0.0,0.0,0.0,0.0,0.0,0.0,0.0,0.0,0.0,0.0,0.0,0.0,0.0,0.0,0.0,0.0,0.0,0.0,0.0,0.0,0.0,-3.1719,-3.0949,-3.0741,-3.1366,-3.1206,-3.1138,-3.127,-3.1089,-3.1179,-3.1524,-3.1342,-3.1347,-3.1546,-3.2632,-3.314,-3.3158,-3.3321,-3.3393,-3.3324,-3.247,-3.26,-3.3217,-3.218,-3.1989,-3.2232,-3.1891,-3.1459,-3.0999,0.0,0.0,0.0,0.0,0.0,0.0,0.0,0.0,0.0,0.0,0.0,0.0,0.0,0.0,0.0,0.0,0.0,0.0,0.0,0.0,0.0,-2.157,-2.1606,-2.1187,-2.0311,-2.0263,-2.0229,-2.0192,-1.8877,0.0,0.0,0.0,0.0,-2.0208,0.0,-2.0139,-2.0093,-2.0093,-2.0093,-2.0093,-2.0093,-2.0093,-2.0093,-2.0093,-2.0093,-2.0093,-2.0093,0.0,0.0,0.0,0.0,0.0,0.0,0.0,-2.0093,-2.0108,-2.005,-2.0273,0.0,0.0,0.0,0.0,0.0,0.0,0.0,0.0,0.0,0.0,0.0,0.0,0.0,0.0,0.0,0.0,0.0,0.0,0.0,0.0,0.0,0.0,0.0,0.0,0.0,0.0,0.0,0.0,0.0,-2.8321,-2.9089,-2.8917,-2.9022,-2.9466,-2.9722,-2.9862,-2.9862,-2.9862,-2.9862,-2.9862,-2.9817,-2.9791,-2.9818,-3.188,-3.2832,-3.2832,-3.2832,-3.2803,-3.2719,-3.1863,-3.1978,-3.2634,-3.219,-3.1966,-3.1942,-3.2337,-3.1715,-3.0664,0.0,0.0,0.0,0.0,0.0,0.0,0.0,0.0,0.0,0.0,0.0,0.0,0.0,0.0,0.0,0.0,0.0,0.0,0.0,0.0,0.0,0.0,-2.1847,-2.1432,-2.0223,-2.0334,-2.0308,-2.0093,0.0,0.0,0.0,0.0,0.0,-2.0184,0.0,-2.0093,-2.0093,-2.0093,-2.0108,-2.0103,-2.0108,-2.0088,-2.0079,-2.0103,-2.0084,-2.0079,-2.0079,-2.0079,-2.0079,-2.0079,0.0,0.0,0.0,0.0,-2.0107,-2.0093,-2.0064,-2.0359,0.0,0.0,0.0,0.0,0.0,0.0,0.0,0.0,0.0,0.0,0.0,0.0,0.0,0.0,0.0,0.0,0.0,0.0,0.0,0.0,0.0,0.0,0.0,0.0,0.0,0.0,0.0,0.0,0.0,-2.6282,-2.6186,-2.6826,-2.7188,-2.7188,-2.7827,-2.8171,-2.8171,-2.8158,-2.8176,-2.8176,-2.8108,-2.8129,-2.8288,-3.0392,-3.1409,-3.1554,-3.1699,-3.1711,-3.16,-3.063,-3.0854,-3.175,-3.1448,-3.153,-3.1849,-3.2371,-3.177,-3.0689,0.0,0.0,0.0,0.0,0.0,0.0,0.0,0.0,0.0,0.0,0.0,0.0,0.0,0.0,0.0,0.0,0.0,0.0,-2.1201,0.0,0.0,-2.1488,-2.2825,-2.2532,-2.0252,-2.0881,-2.0876,-2.0093,0.0,0.0,0.0,0.0,0.0,-2.0112,0.0,0.0,-2.0093,-2.0093,-2.0098,-2.0098,-2.0103,-2.0069,-2.0016,-2.0088,-2.0064,-2.0016,-2.0016,-2.0016,-2.0016,-2.0016,-2.0016,0.0,0.0,0.0,-2.0093,-2.0098,-2.0084,0.0,0.0,0.0,0.0,0.0,0.0,0.0,0.0,0.0,0.0,0.0,0.0,0.0,0.0,0.0,0.0,0.0,0.0,0.0,0.0,0.0,0.0,0.0,0.0,0.0,0.0,0.0,0.0,0.0,-2.5306,-2.5495,-2.6168,-2.6312,-2.6355,-2.6355,-2.641,-2.6429,-2.6429,-2.6429,-2.6423,-2.6423,-2.6411,-2.6789,-2.7461,-2.7792,-2.8296,-2.8945,-2.9647,-2.994,-2.98,-2.8254,-2.891,-3.0729,-2.9265,-2.9951,-3.1633,-3.1043,-3.1118,-3.1439,0.0,0.0,0.0,0.0,0.0,0.0,0.0,0.0,0.0,0.0,0.0,0.0,0.0,0.0,0.0,-2.1596,-2.1496,-2.1798,-2.2635,-2.2994,-2.3056,-2.2802,-2.3509,-2.2941,-2.0924,-2.1221,-2.0962,0.0,0.0,0.0,0.0,-2.0093,-2.0361,0.0,0.0,0.0,0.0,0.0,-2.0103,-2.0093,-2.0108,-2.0316,-2.0581,0.0,0.0,0.0,0.0,0.0,0.0,0.0,-2.0255,-1.9904,-2.0063,0.0,0.0,0.0,0.0,0.0,0.0,0.0,0.0,0.0,0.0,0.0,0.0,0.0,0.0,0.0,0.0,0.0,0.0,0.0,0.0,0.0,0.0,0.0,0.0,0.0,0.0,0.0,0.0,0.0,0.0,0.0,0.0,0.0,-2.4374,-2.4483,-2.4846,-2.528,-2.5522,-2.5525,-2.5899,-2.5882,-2.5426,-2.5421,-2.517,-2.4692,-2.4692,-2.486,-2.5183,-2.5643,-2.6541,-2.7803,-2.8162,-2.8275,-2.811,-2.6964,-2.732,-2.855,-2.7812,-2.8156,-2.9119,-2.969,-2.9547,-2.9052,0.0,0.0,0.0,0.0,0.0,0.0,0.0,0.0,0.0,0.0,0.0,0.0,0.0,0.0,0.0,0.0,-2.2492,-2.2697,-2.3379,-2.3105,-2.3116,-2.3556,-2.3779,-2.3116,-2.1445,-2.1363,0.0,0.0,0.0,0.0,-2.0379,-2.0589,-2.1162,0.0,-2.1598,0.0,0.0,0.0,0.0,0.0,0.0,0.0,0.0,0.0,0.0,0.0,0.0,0.0,0.0,0.0,0.0,0.0,0.0,0.0,0.0,0.0,0.0,0.0,0.0,0.0,0.0,0.0,0.0,0.0,0.0,0.0,0.0,0.0,0.0,0.0,0.0,0.0,0.0,0.0,0.0,0.0,0.0,0.0,0.0,0.0,0.0,0.0,0.0,0.0,0.0,0.0,-2.3806,-2.3806,-2.3806,-2.4375,-2.4708,-2.4711,-2.5208,-2.5192,-2.4599,-2.4565,-2.418,-2.3464,-2.3464,-2.3407,-2.3318,-2.3914,-2.4905,-2.6152,-2.6498,-2.6577,-2.6425,-2.5599,-2.5824,-2.6662,-2.6331,-2.6517,-2.709,-2.7964,-2.7808,-2.7165,0.0,0.0,0.0,0.0,0.0,0.0,0.0,0.0,0.0,0.0,0.0,0.0,0.0,-2.2307,-2.1584,-2.235,-2.242,-2.2468,-2.2642,-2.3397,-2.3479,-2.2696,-2.346,0.0,-2.1445,-2.1271,0.0,0.0,0.0,0.0,-2.1159,-2.1918,-2.2806,-2.3703,-2.2109,-2.1822,-2.2524,0.0,0.0,0.0,0.0,0.0,0.0,0.0,0.0,0.0,0.0,0.0,0.0,0.0,0.0,0.0,0.0,0.0,0.0,0.0,0.0,0.0,0.0,0.0,0.0,0.0,0.0,0.0,0.0,0.0,0.0,0.0,0.0,0.0,0.0,0.0,0.0,0.0,0.0,0.0,0.0,0.0,0.0,0.0,0.0,0.0,0.0,0.0,0.0,0.0,-2.3806,-2.3806,-2.3806,-2.3831,-2.385,-2.385,-2.3844,-2.3808,-2.3754,-2.3638,-2.3419,-2.3132,-2.3132,-2.299,-2.2743,-2.2777,-2.2842,-2.3003,-2.4281,-2.4831,-2.4736,-2.3682,-2.4279,-2.575,-2.4466,-2.5212,-2.6854,-2.5663,-2.6266,-2.742,0.0,0.0,0.0,0.0,0.0,0.0,0.0,0.0,0.0,0.0,0.0,0.0,0.0,-2.3437,-2.3623,-2.3272,-2.2652,-2.2265,-2.2219,-2.2105,-2.2123,-2.2331,-2.2142,-2.1764,-2.1158,-2.0551,0.0,0.0,0.0,-2.0295,-2.121,-2.1586,-2.2486,-2.372,-2.2553,-2.256,-2.3359,-2.2195,0.0,0.0,0.0,0.0,0.0,0.0,0.0,0.0,0.0,0.0,0.0,0.0,0.0,0.0,0.0,0.0,0.0,0.0,0.0,0.0,0.0,0.0,0.0,0.0,0.0,0.0,0.0,0.0,0.0,0.0,0.0,0.0,0.0,0.0,0.0,0.0,0.0,0.0,0.0,0.0,0.0,0.0,0.0,0.0,0.0,0.0,0.0,0.0,0.0,-2.3806,-2.3806,-2.3806,-2.3803,-2.3789,-2.3743,-2.3656,-2.3567,-2.3528,-2.336,-2.3107,-2.3107,-2.2965,-2.2703,-2.2703,-2.2703,-2.2734,-2.3206,-2.3417,-2.3387,-2.3006,-2.3241,-2.3754,-2.3284,-2.3562,-2.4239,-2.4233,-2.4653,-2.5076,0.0,0.0,0.0,0.0,0.0,0.0,0.0,0.0,0.0,0.0,0.0,0.0,0.0,0.0,-2.3582,-2.3172,-2.2253,-2.1673,-2.163,-2.1206,-2.1203,-2.1741,-2.1246,-2.0965,-2.0965,-2.0068,0.0,0.0,0.0,0.0,0.0,-2.1411,-2.2319,-2.3553,-2.2709,-2.3038,0.0,0.0,0.0,-2.2746,0.0,0.0,-2.2455,0.0,0.0,0.0,0.0,0.0,0.0,0.0,0.0,0.0,0.0,0.0,0.0,0.0,0.0,0.0,0.0,0.0,0.0,0.0,0.0,0.0,0.0,0.0,0.0,0.0,0.0,0.0,0.0,0.0,0.0,0.0,0.0,0.0,0.0,0.0,0.0,0.0,0.0,0.0,0.0,0.0,0.0,0.0,0.0,0.0,-2.3806,-2.3806,-2.3792,-2.3783,-2.3689,-2.3567,-2.336,-2.336,-2.3175,-2.279,-2.279,-2.266,-2.2392,-2.2392,-2.2392,-2.2392,-2.2392,-2.2514,-2.2686,-2.2581,-2.2594,-2.269,-2.2473,-2.2514,-2.2729,-2.3021,-2.3349,-2.3565,0.0,0.0,0.0,0.0,0.0,0.0,0.0,0.0,0.0,0.0,0.0,0.0,0.0,0.0,0.0,-2.1923,-2.1216,-2.0766,-2.085,-2.0856,-2.0862,-2.084,-2.0858,-2.0858,-2.0858,-1.9896,0.0,0.0,0.0,0.0,0.0,0.0,-2.2458,-2.3326,-2.2543,-2.3168,-2.478,0.0,-2.4084,-2.3599,0.0,-2.3134,-2.1804,0.0,0.0,0.0,-2.1568,-2.154,0.0,0.0,0.0,0.0,0.0,0.0,0.0,0.0,0.0,0.0,0.0,0.0,0.0,0.0,0.0,0.0,0.0,0.0,0.0,0.0,0.0,0.0,0.0,0.0,0.0,0.0,0.0,0.0,0.0,0.0,0.0,0.0,0.0,0.0,0.0,0.0,0.0,0.0,-2.3806,-2.3806,-2.3806,-2.3795,-2.3771,-2.37,-2.3629,-2.3436,-2.3089,-2.3077,-2.2777,-2.2206,-2.2206,-2.2053,-2.1812,-2.1812,-2.1812,-2.1812,-2.1812,-2.2127,-2.2664,-2.2334,-2.2375,-2.2624,-2.203,-2.2155,-2.2594,-2.2015,-2.2423,-2.3116,0.0,0.0,0.0,0.0,0.0,0.0,0.0,0.0,0.0,0.0,0.0,0.0,0.0,0.0,-2.1707,-2.1903,-2.1652,-2.1005,-1.9822,-1.9741,-1.9734,-1.9733,-1.9752,-1.971,-1.968,-1.9405,0.0,0.0,0.0,0.0,0.0,0.0,0.0,0.0,-2.2086,-2.2266,-2.2682,-2.2133,0.0,0.0,-2.3297,-2.2951,0.0,0.0,0.0,0.0,0.0,-2.2817,0.0,0.0,-2.0934,-2.0445,0.0,0.0,0.0,0.0,0.0,0.0,-1.9132,0.0,0.0,0.0,0.0,0.0,0.0,0.0,0.0,0.0,0.0,0.0,0.0,0.0,0.0,0.0,0.0,0.0,0.0,0.0,0.0,0.0,0.0,0.0,0.0,0.0,0.0,0.0,-2.3806,-2.3806,-2.3806,-2.38,-2.3775,-2.37,-2.3447,-2.3247,-2.3107,-2.2914,-2.2607,-2.2206,-2.2206,-2.2053,-2.1812,-2.1812,-2.1812,-2.1812,-2.1812,-2.1899,-2.2044,-2.1957,-2.1972,-2.203,-2.1869,-2.1899,-2.203,-2.1855,-2.1973,-2.218,0.0,0.0,0.0,0.0,0.0,0.0,0.0,0.0,0.0,0.0,0.0,0.0,0.0,0.0,-2.1291,-2.1281,-2.1235,-2.0646,-1.9289,-1.9222,-1.9222,-1.9229,-1.9229,-1.9194,-1.9162,-1.9162,0.0,0.0,0.0,0.0,0.0,0.0,0.0,0.0,0.0,0.0,0.0,0.0,0.0,0.0,-2.2795,0.0,0.0,-2.3397,-2.3614,0.0,0.0,0.0,-2.2536,-2.1377,-2.0699,0.0,0.0,0.0,0.0,0.0,0.0,0.0,0.0,0.0,0.0,0.0,0.0,0.0,-1.9793,-2.0155,0.0,0.0,0.0,0.0,0.0,0.0,0.0,0.0,0.0,0.0,0.0,0.0,0.0,0.0,0.0,0.0,0.0,-2.3806,-2.3806,-2.3806,-2.3806,-2.3806,-2.3806,-2.3768,-2.3689,-2.3538,-2.3277,-2.3022,-2.2725,-2.2581,-2.2334,-2.2025,-2.2025,-2.1955,-2.1812,-2.1812,-2.1812,-2.1812,-2.1812,-2.1812,-2.1812,-2.1812,-2.1812,-2.1812,-2.1812,-2.1812,-2.1812,-2.1812,-2.1812,-2.1797,0.0,0.0,0.0,0.0,0.0,0.0,0.0,0.0,0.0,0.0,0.0,0.0,0.0,0.0,0.0,0.0,-2.0651,-2.0297,-1.9416,-1.9362,-1.9327,-1.9249,-1.9222,-1.9186,-1.9095,-1.9095,0.0,0.0,0.0,0.0,0.0,0.0,0.0,0.0,0.0,0.0,0.0,0.0,0.0,-2.1681,-2.2316,-2.2138,0.0,0.0,-2.3397,0.0,-2.2825,-2.2771,-2.2463,-2.0952,-2.0427,0.0,0.0,0.0,0.0,0.0,-1.924,0.0,0.0,0.0,0.0,0.0,0.0,0.0,-1.9095,-1.9095,-1.9095,0.0,0.0,0.0,0.0,0.0,0.0,0.0,0.0,0.0,0.0,0.0,0.0,0.0,0.0,0.0,-2.3806,-2.3806,-2.3806,-2.3806,-2.3774,-2.3764,-2.3764,-2.3682,-2.3504,-2.3265,-2.3084,-2.2738,-2.2206,-2.2164,-2.2041,-2.1812,-2.1812,-2.1812,-2.1812,-2.1812,-2.1812,-2.1812,-2.1812,-2.1812,-2.1812,-2.1812,-2.1812,-2.1812,-2.1797,-2.1797,-2.1797,-2.1783,-2.1783,-2.1768,0.0,0.0,0.0,0.0,0.0,0.0,0.0,0.0,0.0,0.0,0.0,0.0,0.0,0.0,0.0,0.0,-2.2308,-2.1953,-2.1098,-2.1079,-2.0806,-2.0108,-2.0072,-1.9764,-1.9113,-1.9095,0.0,0.0,0.0,0.0,0.0,0.0,0.0,0.0,0.0,0.0,0.0,0.0,0.0,-2.0671,-2.1424,0.0,-2.1676,-2.3216,-2.3705,-2.3578,-2.3578,-2.3198,-2.2554,0.0,-2.1278,-2.1296,0.0,0.0,0.0,0.0,0.0,0.0,0.0,0.0,0.0,0.0,0.0,0.0,-1.9095,-1.9095,-1.9095,0.0,0.0,0.0,0.0,0.0,0.0,0.0,0.0,0.0,0.0,0.0,0.0,0.0,0.0,0.0,-2.3806,-2.3806,-2.3806,-2.3806,-2.3653,-2.3553,-2.3553,-2.3236,-2.303,-2.298,-2.259,-2.2317,-2.2206,-2.1984,-2.1855,-2.1812,-2.1812,-2.1812,-2.1812,-2.1812,-2.1812,-2.1812,-2.1812,-2.1812,-2.1812,-2.1812,-2.1812,-2.1781,-2.1738,-2.1708,-2.1708,-2.1664,-2.1634,-2.165,0.0,0.0,0.0,0.0,0.0,0.0,0.0,0.0,0.0,0.0,0.0,0.0,0.0,0.0,0.0,0.0,0.0,0.0,0.0,0.0,0.0,0.0,0.0,0.0,0.0,0.0,0.0,0.0,0.0,0.0,0.0,0.0,0.0,0.0,0.0,0.0,0.0,0.0,-1.9331,-1.9811,-2.1006,0.0,-2.221,-2.3361,-2.3806,-2.3806,-2.3806,-2.3324,-2.2681,-2.2654,-2.2401,0.0,0.0,-2.1896,-2.1734,0.0,-2.071,-2.0639,0.0,0.0,0.0,-1.9793,0.0,0.0,0.0,-1.9095,-1.9095,-1.9095,0.0,0.0,0.0,0.0,0.0,0.0,0.0,0.0,0.0,0.0,0.0,0.0,0.0,0.0,-2.3252,-2.3578,-2.3753,-2.3664,-2.344,-2.3301,-2.3301,-2.306,-2.2811,-2.2669,-2.2358,-2.2139,-2.2013,-2.1869,-2.1812,-2.1812,-2.1812,-2.1812,-2.1812,-2.1812,-2.1812,-2.1812,-2.1812,-2.1812,-2.1797,-2.1768,-2.1753,-2.1738,-2.1708,-2.1679,-2.165,-2.162,-2.1604,-2.1589,0.0,0.0,0.0,0.0,0.0,0.0,0.0,0.0,0.0,0.0,0.0,0.0,0.0,0.0,0.0,0.0,0.0,0.0,0.0,0.0,0.0,0.0,0.0,-2.1441,0.0,0.0,0.0,0.0,0.0,0.0,0.0,0.0,0.0,0.0,0.0,0.0,0.0,0.0,0.0,-1.9685,0.0,-2.1884,-2.2572,-2.3451,-2.3806,-2.3795,-2.3753,-2.3321,-2.2864,-2.3451,0.0,-2.2813,-2.2542,-2.2498,0.0,0.0,0.0,0.0,0.0,0.0,0.0,0.0,0.0,-2.0029,0.0,0.0,0.0,-1.9078,0.0,0.0,0.0,0.0,0.0,0.0,0.0,0.0,0.0,0.0,0.0,0.0,0.0,0.0,0.0,-2.2968,-2.3217,-2.3039,-2.2876,-2.2765,-2.2753,-2.2716,-2.2577,-2.23,-2.2178,-2.201,-2.1812,-2.1812,-2.1812,-2.1812,-2.1812,-2.1812,-2.1812,-2.1812,-2.1812,-2.1812,-2.1812,-2.1812,-2.1781,-2.1723,-2.1694,-2.1679,-2.1648,-2.1619,-2.1557,-2.1559,-2.1543,-2.1527,-1.795,-1.8056,0.0,0.0,0.0,0.0,0.0,0.0,0.0,0.0,0.0,0.0,0.0,0.0,0.0,0.0,0.0,0.0,-2.3287,0.0,0.0,0.0,0.0,0.0,-1.8371,0.0,0.0,0.0,0.0,0.0,0.0,0.0,0.0,0.0,-1.9095,0.0,0.0,0.0,-1.992,0.0,-2.1441,-2.154,0.0,-2.3252,-2.3806,-2.3774,-2.3598,-2.3329,-2.307,0.0,-2.3277,-2.3349,0.0,-2.3177,0.0,0.0,0.0,0.0,0.0,0.0,0.0,0.0,-1.9956,0.0,0.0,0.0,-1.9078,-1.9027,0.0,0.0,0.0,0.0,0.0,0.0,0.0,0.0,0.0,0.0,0.0,0.0,0.0,0.0,0.0,-2.1494,-2.1399,-2.1362,-2.1517,-2.1562,-2.1499,-2.1826,-2.1998,-2.1955,-2.1868,-2.1825,-2.1812,-2.1812,-2.1812,-2.1812,-2.1812,-2.1812,-2.1812,-2.1812,-2.1812,-2.1812,-2.1812,-2.1812,-2.1781,-2.1723,-2.1664,-2.1604,-2.148,-2.1433,-2.1433,-2.1356,-2.1324,-2.1341,0.0,0.0,0.0,0.0,0.0,0.0,0.0,0.0,0.0,0.0,0.0,0.0,0.0,0.0,0.0,0.0,0.0,-2.3667,0.0,0.0,0.0,0.0,0.0,0.0,0.0,0.0,0.0,0.0,-2.2419,0.0,0.0,0.0,0.0,0.0,-1.9594,0.0,-2.0038,0.0,0.0,0.0,0.0,0.0,0.0,-2.3207,-2.3484,-2.3277,-2.3171,-2.3038,-2.2933,0.0,-2.3032,0.0,0.0,0.0,0.0,0.0,0.0,0.0,0.0,0.0,0.0,0.0,0.0,0.0,0.0,0.0,-1.8765,0.0,0.0,0.0,0.0,0.0,0.0,0.0,0.0,0.0,0.0,0.0,0.0,0.0,0.0,0.0,0.0,0.0,0.0,0.0,-2.0578,-2.0699,-2.11,-2.1211,-2.1466,-2.1897,-2.1825,-2.1812,-2.1812,-2.1812,-2.1812,-2.1812,-2.1812,-2.1812,-2.1812,-2.1812,-2.1812,-2.1812,-2.1812,-2.1783,-2.1738,-2.1664,-2.1573,-2.1464,-2.1387,-2.134,-2.134,-2.1309,-2.1293,-2.1293,0.0,0.0,0.0,0.0,0.0,0.0,0.0,0.0,0.0,0.0,0.0,0.0,-2.3806,-2.3753,0.0,0.0,0.0,-2.3495,0.0,0.0,-2.3231,0.0,0.0,0.0,0.0,0.0,0.0,0.0,0.0,0.0,0.0,0.0,0.0,0.0,0.0,-2.0599,-2.0943,0.0,0.0,-2.174,-2.2093,-2.2284,-2.24,-2.3082,-2.3105,-2.2772,-2.2772,-2.2682,-2.2578,-2.2578,-2.2656,0.0,-2.2395,0.0,0.0,0.0,0.0,0.0,-2.2578,0.0,0.0,0.0,0.0,0.0,0.0,0.0,0.0,0.0,0.0,0.0,0.0,0.0,0.0,0.0,0.0,0.0,0.0,0.0,0.0,0.0,0.0,0.0,0.0,0.0,0.0,-1.9634,-1.9774,-2.0063,-2.0588,-2.0902,-2.1323,-2.1853,-2.1842,-2.1812,-2.1812,-2.1812,-2.1812,-2.1812,-2.1812,-2.1812,-2.1812,-2.1812,-2.1753,-2.1646,-2.1646,-2.1555,-2.1386,-2.1324,-2.123,-2.1087,-2.1023,-2.1007,-2.1007,-2.1119,-2.1167,-2.1151,-1.9565,-1.9945,0.0,0.0,0.0,0.0,0.0,0.0,0.0,0.0,0.0,0.0,0.0,0.0,0.0,0.0,0.0,-2.2738,-2.2738,0.0,-2.1811,0.0,0.0,-2.199,0.0,0.0,0.0,0.0,0.0,0.0,0.0,0.0,0.0,0.0,0.0,-2.0979,-2.1514,-2.2057,-2.227,-2.2264,-2.2151,-2.2228,-2.2441,0.0,-2.2708,-2.2422,-2.2422,0.0,0.0,-2.2041,-2.2206,0.0,0.0,0.0,0.0,0.0,0.0,0.0,0.0,0.0,0.0,-2.1358,0.0,0.0,0.0,0.0,-2.0148,0.0,0.0,0.0,0.0,0.0,0.0,0.0,0.0,0.0,0.0,0.0,0.0,0.0,0.0,0.0,0.0,0.0,0.0,-1.799,-1.9039,-1.9694,-1.9647,-2.0986,-2.1779,-2.1796,-2.1812,-2.1812,-2.1812,-2.1812,-2.1812,-2.1812,-2.1812,-2.1812,-2.1812,-2.1812,-2.1616,-2.1309,-2.1309,-2.1055,-2.063,-2.0564,-2.0465,-2.0331,-2.0261,-2.0225,-2.0277,-2.0663,-2.0811,-2.0761,0.0,0.0,0.0,0.0,0.0,0.0,0.0,-2.3816,0.0,0.0,0.0,0.0,0.0,0.0,-2.3733,0.0,0.0,-2.293,-2.2832,-2.3079,0.0,0.0,0.0,-2.2829,0.0,0.0,0.0,0.0,0.0,0.0,0.0,0.0,0.0,0.0,0.0,-2.1044,0.0,0.0,0.0,0.0,0.0,-2.2213,-2.2082,0.0,0.0,-2.2068,-2.2068,-2.1984,0.0,-2.1869,-2.1955,-2.2039,-2.1897,-2.1955,-2.2039,-2.1913,-2.1869,0.0,0.0,0.0,-2.1847,-2.1751,0.0,0.0,0.0,0.0,0.0,0.0,0.0,0.0,0.0,0.0,0.0,0.0,0.0,0.0,0.0,0.0,0.0,0.0,0.0,0.0,0.0,0.0,0.0,-1.7584,-1.8589,-1.9505,-2.029,-2.0801,-2.1298,-2.1779,-2.1812,-2.1812,-2.1812,-2.1812,-2.1693,-2.1464,-2.1464,-2.134,-2.1135,-2.1135,-2.1039,-2.0844,-2.0844,-2.0664,-2.0398,-2.0381,-2.0313,-2.0227,-2.0208,-2.0191,-2.0208,-2.0345,-2.0412,-2.0378,-2.1557,0.0,0.0,0.0,0.0,0.0,0.0,0.0,0.0,0.0,-2.4525,0.0,-2.423,0.0,-2.3493,0.0,-2.2846,-2.2738,-2.2669,-2.2862,0.0,-2.2542,-2.2807,0.0,0.0,0.0,0.0,0.0,0.0,-2.2382,0.0,0.0,0.0,0.0,0.0,0.0,0.0,0.0,-2.3009,0.0,0.0,-2.2082,0.0,0.0,-2.213,-2.1869,0.0,-2.184,-2.1812,-2.1812,-2.1825,-2.1855,-2.1811,-2.1825,-2.1855,-2.1811,-2.1812,-2.1796,-2.1855,-2.1825,0.0,-2.1913,-2.1504,0.0,-2.1811,0.0,0.0,0.0,0.0,0.0,0.0,0.0,0.0,0.0,0.0,0.0,0.0,-1.6636,0.0,0.0,0.0,0.0,0.0,0.0,-1.6631,-1.6702,-1.822,-1.9595,0.0,0.0,-2.1315,-2.1779,-2.1812,-2.1812,-2.1812,-2.1693,-2.151,-2.1293,-2.1183,-2.1006,-2.0794,-2.0794,-2.0663,-2.0412,-2.0412,-2.0225,-1.9932,-1.9932,-1.9894,-1.9806,-1.9806,-1.9806,-1.9839,-1.998,-1.9929,-1.9806,0.0,0.0,0.0,0.0,-2.3079,0.0,0.0,0.0,-2.4294,0.0,-2.438,-2.4213,-2.4165,-2.3297,-2.272,-2.2672,-2.2394,0.0,-2.2183,-2.2089,0.0,0.0,-2.2013,-2.1984,-2.1899,0.0,0.0,0.0,0.0,0.0,0.0,0.0,0.0,0.0,-2.1016,0.0,-2.3283,-2.2984,-2.2738,-2.2517,-2.207,-2.1871,-2.1928,-2.2626,-2.2477,-2.1897,-2.1879,-2.1862,-2.1862,-2.1812,-2.1812,-2.1812,-2.1812,-2.1812,-2.1812,-2.1812,-2.1812,-2.1812,-2.1812,-2.1812,-2.1812,-2.1812,-2.1812,0.0,0.0,0.0,-2.1597,0.0,0.0,0.0,0.0,0.0,0.0,0.0,0.0,0.0,0.0,0.0,0.0,0.0,0.0,0.0,0.0,-1.5238,-1.6724,-1.553,-1.7992,0.0,0.0,0.0,-2.1763,-2.1812,-2.1812,-2.1781,-2.1783,-2.1464,-2.1277,-2.1246,-2.0925,-2.0761,-2.0745,-2.0745,-2.0478,-2.0065,-2.0048,-1.9764,-1.9302,-1.9302,-1.9195,-1.9101,-1.9101,-1.9101,-1.9139,-1.9527,-1.9435,-1.9101,-2.2023,-2.2161,-2.2352,0.0,-2.2833,-2.3116,0.0,0.0,0.0,0.0,-2.4424,-2.4436,-2.3705,-2.3366,-2.3,-2.2442,-2.2282,0.0,0.0,0.0,0.0,-2.1869,-2.2136,-2.215,-2.1825,-2.1957,0.0,-2.1926,0.0,0.0,-2.0934,0.0,0.0,0.0,0.0,0.0,-2.1803,-2.2266,-2.2275,-2.2001,-2.1869,-2.2142,0.0,0.0,-2.3123,-2.3354,-2.2808,-2.2609,-2.2526,-2.198,-2.1812,-2.1812,-2.1812,-2.1812,-2.1812,-2.1812,-2.1812,-2.1812,-2.1812,-2.1812,-2.1812,-2.1812,-2.1812,-2.1812,0.0,0.0,0.0,0.0,0.0,0.0,0.0,0.0,0.0,0.0,0.0,0.0,0.0,0.0,0.0,-1.5843,0.0,0.0,-1.5071,-1.3821,-1.4305,-1.7179,-1.8436,0.0,0.0,0.0,0.0,-2.1779,-2.1812,-2.1693,-2.1433,-2.134,-2.1023,-2.0481,-2.0412,-2.0224,-1.9977,-1.9922,-1.9795,-1.9578,-1.9527,-1.9362,-1.9139,-1.9139,-1.912,-1.9101,-1.9101,-1.9101,-1.9101,-1.9232,-1.9195,-1.9101,-2.2296,0.0,0.0,-2.2296,0.0,0.0,-2.2949,0.0,0.0,-2.3802,-2.4067,0.0,-2.3473,-2.3105,-2.2736,-2.2304,-2.2166,0.0,0.0,0.0,0.0,-2.1796,-2.2027,-2.2025,-2.1796,-2.184,0.0,-2.1812,0.0,0.0,-2.1166,0.0,0.0,0.0,0.0,-2.1285,0.0,-2.2012,-2.2197,-2.2322,-2.2276,0.0,0.0,-2.3735,-2.4116,-2.4431,-2.4017,-2.3653,-2.3321,-2.2891,-2.2543,-2.2278,-2.2278,-2.2046,-2.1812,-2.1812,-2.1812,-2.1812,-2.1812,-2.1812,-2.1812,-2.1812,-2.1812,-2.1812,-2.1812,-2.1812,-2.1768,0.0,-2.1259,-2.0821,0.0,0.0,0.0,0.0,0.0,0.0,0.0,0.0,0.0,0.0,0.0,0.0,-1.6089,-1.4308,-1.4096,-1.6328,-1.7153,0.0,0.0,0.0,0.0,-2.1354,-2.1355,-2.1261,-2.1087,-2.0909,-2.0614,-2.0191,-2.005,-1.9871,-1.965,-1.9611,-1.952,-1.9358,-1.9321,-1.9213,-1.9101,-1.9101,-1.9101,-1.9101,-1.9101,-1.9101,-1.9101,-1.9101,-1.9101,-1.9101,0.0,0.0,0.0,0.0,0.0,0.0,0.0,-2.3161,0.0,-2.3721,0.0,-2.3359,-2.3274,-2.2685,-2.2254,-2.2214,0.0,-2.1955,-2.1897,-2.184,-2.1812,-2.1812,-2.1812,-2.1812,-2.1812,-2.1812,0.0,0.0,0.0,0.0,0.0,0.0,0.0,0.0,0.0,0.0,0.0,-2.2116,-2.24,-2.2999,-2.3021,-2.3487,-2.4216,-2.4862,-2.5176,-2.5243,-2.5143,-2.4696,-2.4116,-2.3918,-2.3437,-2.2891,-2.2891,-2.2377,-2.1829,-2.1928,-2.1834,-2.1721,-2.1721,-2.1691,-2.1661,-2.1661,-2.1661,-2.1661,-2.1661,-2.1661,-2.1602,-2.1293,-2.1214,-2.0926,0.0,0.0,0.0,0.0,0.0,0.0,0.0,0.0,0.0,0.0,0.0,0.0,-1.6176,-1.5675,-1.5226,0.0,0.0,0.0,0.0,0.0,0.0,-2.0653,-2.0747,-2.0778,-2.0712,-2.0378,-2.0174,-2.0122,-1.9836,-1.965,-1.9593,-1.9574,-1.9483,-1.9302,-1.9284,-1.9195,-1.9101,-1.9101,-1.9101,-1.9101,-1.9101,-1.9101,-1.9101,-1.9101,-1.9101,-1.9101,0.0,0.0,0.0,0.0,0.0,-2.3171,-2.2468,-2.3471,-2.41,-2.3534,-2.3437,-2.3173,-2.2564,-2.2324,-2.2197,-2.22,-2.2017,0.0,0.0,0.0,0.0,-2.1812,-2.1812,-2.1812,-2.1812,-2.1812,-2.1812,0.0,0.0,0.0,0.0,0.0,0.0,0.0,0.0,0.0,-2.1949,-2.2489,0.0,-2.2972,-2.3586,-2.4249,-2.4928,-2.506,-2.5491,-2.5921,-2.5325,-2.5027,-2.4729,-2.3503,-2.3007,-2.2891,-2.2891,-2.2377,-2.1928,-2.2542,-2.2078,-2.1387,-2.1387,-2.1198,-2.099,-2.099,-2.099,-2.099,-2.099,-2.099,-2.0958,-2.0893,-2.0795,-2.0665,-2.0473,0.0,0.0,0.0,0.0,0.0,0.0,0.0,0.0,0.0,0.0,0.0,0.0,0.0,0.0,0.0,0.0,0.0,0.0,0.0,0.0,0.0,-2.051,0.0,0.0,0.0,-2.0052,-1.9782,-1.9669,-1.9611,-1.9593,-1.9431,-1.9339,-1.9302,-1.9176,-1.912,-1.9101,-1.9101,-1.9101,-1.9101,-1.9101,-1.9101,-1.9101,-1.9101,-1.9101,-1.9101,0.0,0.0,0.0,0.0,0.0,0.0,0.0,-2.399,0.0,-2.2929,-2.2777,-2.2627,-2.2197,-2.218,-2.2154,-2.2049,-2.1974,-2.1899,-2.1855,-2.1811,-2.1812,-2.1812,-2.1812,0.0,-2.1812,-2.1812,-2.1812,-2.1812,0.0,0.0,0.0,0.0,0.0,0.0,0.0,-2.2026,0.0,0.0,0.0,-2.3568,-2.4298,-2.4779,-2.5126,-2.5507,-2.5639,-2.5573,-2.5243,-2.4862,-2.4431,-2.3719,-2.347,-2.3404,-2.3023,-2.2377,-2.1879,-2.2243,-2.185,-2.1293,-2.1293,-2.1055,-2.0794,-2.0794,-2.0794,-2.0794,-2.0794,-2.0794,-2.0745,-2.053,-2.0412,-2.0326,-2.0244,-1.9487,0.0,0.0,0.0,0.0,0.0,0.0,0.0,0.0,0.0,0.0,0.0,0.0,0.0,0.0,0.0,0.0,0.0,0.0,0.0,0.0,0.0,0.0,-1.9889,0.0,-1.9693,-1.9527,-1.9505,-1.9483,-1.9446,-1.9339,-1.9265,-1.9176,-1.912,-1.9101,-1.9101,-1.9101,-1.9101,-1.9101,-1.9101,-1.9101,-1.9101,-1.9101,-1.9101,-1.9101,0.0,-2.3532,0.0,0.0,-2.4611,0.0,-2.4214,-2.4251,-2.3866,-2.2589,-2.2269,-2.212,-2.2013,-2.2092,-2.2063,-2.1913,-2.1899,-2.1855,-2.1796,-2.1812,-2.1812,-2.1812,-2.1812,-2.1812,-2.1812,-2.1812,-2.1812,0.0,0.0,0.0,0.0,0.0,0.0,0.0,0.0,0.0,0.0,0.0,-2.3269,-2.3899,-2.458,-2.4878,-2.4928,-2.5507,-2.5375,-2.4862,-2.4696,-2.4365,-2.3934,-2.3555,-2.3539,-2.3555,-2.2978,-2.2239,-2.1619,-2.1766,-2.1453,-2.1071,-2.1071,-2.0828,-2.0578,-2.0578,-2.0561,-2.0561,-2.0562,-2.0529,-2.0427,-2.0137,-1.9995,-1.9889,-1.9755,-1.9084,0.0,0.0,0.0,0.0,0.0,0.0,0.0,0.0,0.0,0.0,0.0,0.0,0.0,0.0,0.0,0.0,0.0,0.0,0.0,0.0,0.0,-1.9556,-1.9556,0.0,-1.9395,-1.9395,-1.9395,-1.9358,-1.9302,-1.9265,-1.9195,-1.9101,-1.9101,-1.9101,-1.9101,-1.9101,-1.9101,-1.9101,-1.9101,-1.9101,-1.9101,-1.9101,-1.9082,-1.9078,0.0,0.0,0.0,0.0,0.0,0.0,-2.3609,-2.3823,-2.3878,-2.3202,-2.248,-2.2013,-2.2013,-2.1955,-2.1928,-2.1913,-2.184,-2.1812,-2.1812,-2.1812,-2.1812,-2.1812,-2.1812,-2.1812,-2.1812,-2.1812,-2.1812,0.0,0.0,0.0,0.0,0.0,0.0,0.0,0.0,0.0,0.0,-2.2624,-2.294,-2.3089,-2.3802,-2.41,-2.4116,-2.4183,-2.4166,-2.4017,-2.3338,-2.3487,-2.3753,-2.2117,-2.2005,-2.2541,-2.2476,-2.173,-2.1004,-2.1624,-2.1084,-2.0294,-2.0294,-2.0067,-1.98,-1.98,-1.9759,-1.9738,-1.9797,-1.9654,-1.956,-1.9647,-1.9505,-1.9325,-1.9199,-1.9099,-1.8848,0.0,0.0,0.0,0.0,0.0,0.0,0.0,0.0,0.0,0.0,-1.5841,0.0,0.0,0.0,0.0,0.0,0.0,0.0,-1.8458,-1.9122,-1.9413,-1.9413,-1.9413,-1.9395,-1.9395,-1.9339,-1.9321,-1.9302,-1.9157,-1.9101,-1.9101,-1.9101,-1.9101,-1.9101,-1.9101,-1.9101,-1.9101,-1.9101,-1.9101,-1.9101,-1.9101,-1.9059,-1.8979,0.0,0.0,0.0,0.0,0.0,0.0,0.0,-2.3579,-2.3181,-2.245,-2.2111,-2.1926,-2.1868,-2.1899,-2.1868,-2.184,-2.1827,-2.1812,-2.1812,-2.1812,-2.1812,-2.1812,-2.1812,-2.1812,-2.1812,-2.1812,-2.1812,0.0,0.0,0.0,0.0,0.0,0.0,0.0,0.0,-2.2061,-2.2492,-2.2758,-2.2891,-2.2957,-2.3702,-2.3735,-2.3388,-2.3835,-2.3735,-2.3272,-2.2784,-2.2507,-2.2247,-2.1311,-2.1617,-2.2297,-2.1648,-2.1148,-2.0842,-2.1127,-2.0732,-2.0191,-2.0191,-1.9962,-1.9708,-1.9708,-1.965,-1.9611,-1.9632,-1.952,-1.9413,-1.9483,-1.9376,-1.9265,-1.912,-1.9101,-1.8898,-1.8303,0.0,0.0,0.0,0.0,0.0,0.0,0.0,0.0,0.0,0.0,0.0,0.0,0.0,0.0,0.0,0.0,0.0,-1.8938,0.0,-1.9339,-1.9339,-1.9265,-1.9213,-1.9213,-1.9176,-1.9176,-1.9176,-1.912,-1.9101,-1.9101,-1.9101,-1.9101,-1.9101,-1.9101,-1.9101,-1.9101,-1.9101,-1.9078,-1.9036,-1.9036,-1.8965,-1.887,-2.6333,0.0,-2.5163,0.0,-2.5581,-2.4662,-2.418,-2.3632,-2.292,-2.1928,-2.184,-2.1855,-2.1812,-2.184,-2.1855,-2.1796,-2.1812,-2.1812,-2.1812,-2.1812,-2.1812,-2.1812,-2.1812,0.0,-2.1812,-2.1812,-2.1812,-2.1812,-2.1812,0.0,0.0,0.0,0.0,0.0,-2.2029,-2.2094,-2.2591,-2.2591,-2.2591,-2.2609,-2.3139,-2.304,-2.2626,-2.3156,-2.296,-2.2405,-2.2167,-2.1682,-2.1103,-2.0745,-2.1128,-2.1613,-2.0854,-2.0562,-2.0478,-2.0478,-2.0291,-2.005,-2.005,-1.9871,-1.9672,-1.9672,-1.9596,-1.952,-1.9538,-1.9413,-1.9321,-1.9321,-1.9265,-1.9195,-1.912,-1.9101,-1.897,-1.8535,0.0,0.0,0.0,0.0,0.0,0.0,0.0,-1.7221,-1.7288,0.0,0.0,0.0,0.0,0.0,0.0,0.0,0.0,0.0,0.0,0.0,-1.9246,-1.9139,-1.9101,-1.9101,-1.9101,-1.9101,-1.9101,-1.9101,-1.9101,-1.9101,-1.9101,-1.9101,-1.9101,-1.9101,-1.9101,-1.9101,-1.9078,-1.9036,-1.8993,-1.896,-1.887,-1.876,-2.6278,-2.6296,-2.6314,-2.6468,-2.6382,-2.5779,-2.4314,-2.4033,-2.3454,-2.1995,-2.1812,-2.1812,-2.1812,-2.1812,-2.1812,-2.1812,-2.1812,-2.1812,-2.1812,-2.1812,-2.1812,0.0,0.0,-2.1812,-2.1812,-2.1812,-2.1812,-2.1812,0.0,0.0,-2.1812,0.0,-2.1812,-2.1812,-2.1812,-2.1812,-2.1812,-2.1812,-2.1812,-2.1812,-2.1829,-2.1829,-2.1812,-2.1829,-2.1619,-2.1309,-2.1309,-2.1087,-2.0729,-2.0328,-2.0224,-2.0224,-2.0208,-1.998,-1.9711,-1.9711,-1.9708,-1.9708,-1.9708,-1.965,-1.9593,-1.9593,-1.9465,-1.9321,-1.9395,-1.9246,-1.9101,-1.9101,-1.9101,-1.9101,-1.9101,-1.9101,-1.9101,-1.9087,0.0,0.0,0.0,0.0,0.0,0.0,-1.72,-1.7274,-1.7492,0.0,0.0,0.0,0.0,0.0,0.0,0.0,0.0,-1.9043,-1.9101,0.0,-1.9101,-1.9101,-1.9101,-1.9101,-1.9101,-1.9101,-1.9101,-1.9101,-1.9101,-1.9101,-1.9101,-1.9101,-1.9101,-1.9101,-1.9101,-1.9082,-1.9031,-1.8993,-1.8993,-1.8855,-1.876,-1.8692,-2.6239,-2.6222,-2.6257,-2.6274,-2.5444,-2.458,-2.4099,-2.3155,-2.2327,-2.1862,-2.1812,-2.1812,-2.1812,-2.1812,-2.1812,0.0,-2.1812,-2.1812,0.0,-2.1812,-2.1812,-2.1812,-2.1812,-2.1812,-2.1812,-2.1812,-2.1812,-2.1812,0.0,0.0,0.0,-2.2044,-2.2077,-2.2542,-2.2028,-2.1812,-2.1797,-2.1556,-2.1602,-2.1751,-2.1308,-2.1262,-2.1433,-2.1198,-2.1039,-2.0925,-2.0647,-2.0481,-2.0344,-1.998,-1.9871,-1.9871,-1.9871,-1.9782,-1.9708,-1.9708,-1.9672,-1.9629,-1.9629,-1.9541,-1.9465,-1.9465,-1.9376,-1.9321,-1.9339,-1.9195,-1.9101,-1.9101,-1.9101,-1.9101,-1.9101,-1.9101,-1.9101,-1.9101,-1.8325,0.0,0.0,0.0,0.0,0.0,-1.7398,-1.7319,0.0,-1.6802,0.0,0.0,0.0,0.0,0.0,0.0,0.0,0.0,-1.9101,0.0,-1.9101,-1.9101,-1.9101,-1.9101,-1.8822,-1.8519,-1.8206,-1.8206,-1.8383,-1.8688,-1.8688,-1.8841,-1.9101,-1.9101,-1.9078,-1.9036,-1.9012,-1.8917,-1.8803,-1.875,-1.8673,-1.8556,-2.6202,-2.6202,-2.6202,-2.6202,-2.5209,-2.4315,-2.405,-2.2973,-2.2096,-2.1845,-2.1812,-2.1812,-2.1812,-2.1812,0.0,-2.1812,-2.1812,-2.1812,-2.1812,-2.1812,-2.1812,-2.1812,-2.1812,-2.1812,-2.1812,-2.1812,0.0,-2.1812,-2.1812,-2.2044,-2.2492,-2.2028,-2.2061,-2.2475,-2.2011,-2.1738,-2.1602,-2.1387,-2.1356,-2.1386,-2.0974,-2.0925,-2.1087,-2.0876,-2.0712,-2.0545,-2.0258,-2.0102,-1.998,-1.9744,-1.9672,-1.9708,-1.9672,-1.9669,-1.9669,-1.9669,-1.9596,-1.952,-1.952,-1.9465,-1.9358,-1.9358,-1.9302,-1.9213,-1.9213,-1.9157,-1.9101,-1.9101,-1.9101,-1.9101,-1.9101,-1.9101,-1.9045,-1.8898,-1.8304,-1.7918,-1.804,0.0,0.0,0.0,0.0,0.0,0.0,-1.6817,-1.6845,0.0,0.0,0.0,0.0,0.0,0.0,-1.8597,-1.8611,-1.8611,-1.8611,-1.8611,-1.8611,-1.8611,-1.8364,-1.8068,-1.7787,-1.7787,-1.7948,-1.8246,-1.8246,-1.8383,-1.8611,-1.8592,-1.8548,-1.8503,-1.8397,-1.8279,-1.8161,-1.8135,-1.8075,-1.7996,-2.6114,-2.6114,-2.6097,0.0,-2.542,-2.4695,-2.4001,-2.3256,-2.2561,-2.1895,-2.1766,-2.1766,-2.1812,-2.1751,-2.1769,-2.1834,0.0,0.0,-2.1812,-2.1812,-2.1812,-2.1812,-2.1812,-2.1812,-2.1812,-2.1812,-2.1797,-2.1768,-2.1736,-2.1721,-2.1721,-2.1721,-2.1721,-2.1721,-2.1721,-2.1572,-2.1262,-2.123,-2.1055,-2.0794,-2.0745,-2.0745,-2.0761,-2.0745,-2.0495,-2.0154,-2.0083,-1.9904,-1.9672,-1.9611,-1.9632,-1.9672,-1.9611,-1.9574,-1.9574,-1.9574,-1.9501,-1.9395,-1.9395,-1.9339,-1.9302,-1.9302,-1.9176,-1.9101,-1.9101,-1.9101,-1.9101,-1.9101,-1.9082,-1.9064,-1.9064,-1.9026,-1.8879,-1.85,-1.8422,-1.8266,-1.7848,0.0,0.0,0.0,0.0,0.0,-1.6993,-1.6972,-1.6837,0.0,0.0,0.0,0.0,0.0,-1.8206,-1.7808,-1.7787,-1.7787,-1.7787,-1.7787,-1.7787,-1.776,-1.776,-1.7727,-1.7707,-1.7686,-1.7707,-1.7727,-1.7727,-1.7747,-1.7767,-1.7707,-1.7686,-1.7646,-1.7407,-1.7344,-1.7389,-1.7253,-1.7251,-1.7303,0.0,0.0,-2.5051,-2.4527,-2.3839,-2.3223,-2.2834,-2.215,-2.1707,-2.1784,-2.1587,-2.1526,-2.1766,-2.134,-2.1344,-2.2118,-2.1945,-2.1812,-2.1812,-2.1812,-2.1812,-2.1812,-2.1812,-2.1812,-2.1812,-2.1812,-2.1661,-2.1418,-2.1151,-2.1039,-2.1039,-2.1039,-2.1039,-2.1039,-2.1039,-2.099,-2.0893,-2.0597,-2.058,-2.0761,-2.0187,-2.0102,-2.0311,-2.0065,-1.9869,-1.9741,-1.9723,-1.9614,-1.9468,-1.945,-1.945,-1.9468,-1.945,-1.9413,-1.9376,-1.9431,-1.9395,-1.9321,-1.9321,-1.9246,-1.9139,-1.9139,-1.912,-1.9101,-1.9101,-1.9101,-1.9101,-1.9101,-1.886,-1.8649,-1.8649,-1.8344,-1.8068,-1.7968,-1.772,-1.7578,-1.7767,-1.7173,0.0,0.0,-1.718,-1.6985,-1.6436,-1.6752,-1.6909,0.0,0.0,0.0,-1.7047,-1.7242,-1.7489,-1.7787,-1.7787,-1.7787,-1.7787,-1.7787,-1.7659,-1.7344,-1.7235,-1.7026,-1.6723,-1.6629,-1.6744,-1.7047,-1.7047,-1.7242,-1.7578,-1.7558,-1.7476,-1.7394,-1.7333,-1.776,-1.8343,-1.7504,-1.7718,-1.8308,-2.4902,-2.4902,-2.4681,-2.4024,-2.3291,-2.2651,-2.2192,-2.1519,-2.1135,-2.1324,-2.1166,-2.1151,-2.1324,-2.1007,-2.1019,-2.1582,-2.1891,-2.2115,-2.2216,-2.241,-2.2296,-2.1778,-2.1762,-2.1616,-2.134,-2.134,-2.1246,-2.1071,-2.0828,-2.0729,-2.0794,-2.0729,-2.0729,-2.0794,-2.0794,-2.0696,-2.0496,-2.0294,-2.0241,-2.0256,-1.9854,-1.98,-1.9945,-1.9744,-1.9629,-1.9593,-1.9501,-1.9446,-1.9395,-1.9358,-1.9376,-1.9395,-1.9358,-1.9339,-1.9302,-1.9265,-1.9246,-1.9195,-1.9195,-1.9157,-1.9101,-1.9101,-1.9101,-1.9101,-1.9101,-1.9101,-1.9101,-1.9101,-1.8784,-1.85,-1.85,-1.8108,-1.774,-1.7557,-1.7344,-1.7199,-1.7152,-1.6723,-1.6457,-1.6616,-1.6637,-1.6488,-1.6132,-1.638,-1.6518,-1.6432,-1.6432,0.0,-1.6637,-1.6637,-1.6808,-1.7193,-1.7186,-1.7152,-1.7152,-1.7102,-1.7084,-1.7095,-1.6785,-1.6647,-1.6655,-1.6355,-1.6455,-1.6886,-1.6886,-1.7039,-1.7299,-1.7469,-1.7199,-1.6748,-1.7169,-1.7531,-1.7739,-1.7423,-1.7511,-1.7702,-2.4704,-2.4704,-2.4504,-2.3833,-2.3199,-2.259,-2.1971,-2.1388,-2.1027,-2.1078,-2.1027,-2.1027,-2.1078,-2.0915,-2.0849,-2.0994,-2.1773,-2.2336,-2.2539,-2.2922,-2.2703,-2.1738,-2.1689,-2.1424,-2.081,-2.0728,-2.0695,-2.0695,-2.0496,-2.0479,-2.0595,-2.0462,-2.0479,-2.0595,-2.0611,-2.0427,-2.012,-2.0122,-1.9945,-1.969,-1.969,-1.9672,-1.9654,-1.9593,-1.9556,-1.9538,-1.9358,-1.9321,-1.9358,-1.9302,-1.9321,-1.9339,-1.9302,-1.9265,-1.9246,-1.912,-1.9101,-1.9101,-1.9101,-1.9101,-1.9101,-1.9101,-1.9045,-1.9007,-1.9007,-1.8936,-1.8898,-1.8898,-1.8592,-1.8305,-1.8305,-1.7928,-1.7482,-1.7157,-1.7094,-1.6926,-1.6457,0.0,-1.6297,-1.6188,-1.6178,-1.6122,-1.5979,-1.5988,-1.5988,-1.5979,-1.6039,-1.6144,-1.6289,-1.6375,-1.65,-1.6685,-1.648,-1.6383,-1.6383,-1.6339,-1.6556,-1.6999,-1.6608,-1.6634,-1.7063,-1.6524,-1.6587,-1.7163,-1.7004,-1.7028,-1.7212,-1.7557,-1.7108,-1.6284,-1.7087,-1.7219,-1.6979,-1.7111,-1.7075,-1.6907,-2.3809,-2.3809,-2.3613,-2.2999,-2.2803,-2.2566,-2.2205,-2.2043,-2.2096,-2.2375,-2.2154,-2.2096,-2.236,-2.1384,-2.1068,-2.1916,-2.168,-2.1592,-2.1846,-2.1914,-2.1884,-2.1722,-2.1689,-2.1424,-2.081,-2.041,-2.0204,-2.0204,-1.9797,-1.9599,-1.9632,-1.9599,-1.9599,-1.9632,-1.9741,-1.9741,-1.9687,-1.9762,-1.9708,-1.9611,-1.9611,-1.9556,-1.945,-1.9446,-1.9395,-1.9339,-1.9321,-1.9228,-1.9139,-1.912,-1.9139,-1.9139,-1.912,-1.912,-1.912,-1.9101,-1.9101,-1.9101,-1.9101,-1.9101,-1.9101,-1.9101,-1.8841,-1.8592,-1.8592,-1.8285,-1.7988,-1.7988,-1.7679,-1.7393,-1.7393,-1.7018,-1.668,-1.6629,-1.6565,-1.65,-1.6414,0.0,-1.6054,-1.6044,-1.6044,-1.5979,-1.5836,-1.5935,-1.5957,-1.5836,-1.6245,-1.6567,-1.6692,-1.7155,-1.7446,-1.7576,-1.6712,-1.6244,-1.6244,-1.6665,-1.6925,-1.7011,-1.7251,-1.7423,-1.7484,-1.682,-1.7086,-1.7955,-1.7062,-1.7183,-1.8015,-1.8074,-1.7749,-1.7207,-1.7352,-1.7905,-1.8422,-1.6691,-1.7135,-1.8374,-2.3595,-2.3595,-2.34,-2.2808,-2.2703,-2.254,-2.2007,-2.1617,-2.1569,-2.2095,-2.1717,-2.1603,-2.211,-2.1292,-2.0884,-2.1341,-2.0825,-2.0639,-2.1133,-2.1691,-2.174,-2.1078,-2.1063,-2.0739,-2.0063,-1.9904,-1.9812,-1.9726,-1.9468,-1.9358,-1.9395,-1.9358,-1.9376,-1.9395,-1.9465,-1.9501,-1.9487,-1.9523,-1.9523,-1.9501,-1.9501,-1.9465,-1.9395,-1.9358,-1.9339,-1.9302,-1.9213,-1.9139,-1.9101,-1.9101,-1.9101,-1.9101,-1.9101,-1.9101,-1.9101,-1.9101,-1.9101,-1.9101,-1.9101,-1.9101,-1.9045,-1.8822,-1.8649,-1.8422,-1.8187,-1.7948,-1.7787,-1.7787,-1.7475,-1.7199,-1.7199,-1.682,-1.65,-1.65,-1.6479,-1.6414,-1.6318,-1.6188,-1.6057,-1.5913,-1.5891,-1.5869,-1.5814,-1.5859,-1.5989,-1.6223,-1.6463,-1.675,-1.7098,-1.7364,-1.7521,-1.7581,-1.7167,-1.6934,-1.6853,-1.7096,-1.7363,-1.7654,-1.7545,-1.7798,-1.833,-1.7448,-1.7628,-1.8578,-1.7808,-1.7748,-1.8229,-1.8506,-1.8145,-1.7496,-1.835,-1.8806,-1.8903,-1.8217,-1.8398,-1.8806,-2.3595,-2.3595,-2.3445,-2.3002,-2.2912,-2.2748,-2.2218,-2.171,-2.1575,-2.2069,-2.1695,-2.1575,-2.2084,-2.156,-2.1171,-2.1171,-2.0524,-2.0266,-2.0639,-2.1409,-2.144,-2.0544,-2.0343,-1.9975,-1.9409,-1.9501,-1.9483,-1.9376,-1.9302,-1.9284,-1.9339,-1.9284,-1.9284,-1.9339,-1.9358,-1.9376,-1.9376,-1.9395,-1.9395,-1.9376,-1.9376,-1.9358,-1.9321,-1.9265,-1.9246,-1.9246,-1.9139,-1.9101,-1.9101,-1.9101,-1.9101,-1.9101,-1.9101,-1.9101,-1.9101,-1.9101,-1.9101,-1.9101,-1.9101,-1.9026,-1.8879,-1.8592,-1.8344,-1.8088,-1.774,-1.7564,-1.7503,-1.7503,-1.7248,-1.7031,-1.7031,-1.6723,-1.6479,-1.6479,0.0,-1.6328,-1.6188,-1.6134,-1.6025,-1.5814,-1.5792,-1.5792,-1.5792,-1.59,-1.6175,-1.6571,-1.6835,-1.7147,-1.7568,-1.7712,-1.7772,-1.7772,-1.7629,-1.7497,-1.7387,-1.7507,-1.7796,-1.8205,-1.8037,-1.8386,-1.9143,-1.8338,-1.8542,-1.9516,-1.8855,-1.8638,-1.8794,-1.9336,-1.8782,-1.7724,-1.9215,-1.9411,-1.8843,-1.9158,-1.9158,-1.8903,-2.3595,-2.3595,-2.3595,-2.3535,-2.3535,-2.352,-2.3475,-2.3415,-2.34,-2.3445,-2.3415,-2.3415,-2.3445,-2.2927,-2.2553,-2.2553,-2.1839,-2.1119,-2.0559,-2.0531,-2.0531,-2.0495,-1.9853,-1.9472,-1.9395,-1.9358,-1.9321,-1.9321,-1.9176,-1.912,-1.912,-1.912,-1.912,-1.912,-1.9246,-1.9321,-1.9321,-1.9376,-1.9358,-1.9321,-1.9321,-1.9228,-1.912,-1.912,-1.9101,-1.9101,-1.9101,-1.9101,-1.9101,-1.9101,-1.9101,-1.9101,-1.9101,-1.9101,-1.9101,-1.9101,-1.9101,-1.9101,-1.9101,-1.8822,-1.8553,-1.85,-1.7888,-1.7303,-1.7261,-1.6913,-1.6595,-1.6595,-1.6565,-1.6543,-1.6543,-1.6479,-1.6414,-1.6414,0.0,0.0,-1.6022,-1.5925,-1.5814,-1.5792,-1.5792,-1.5792,-1.5792,-1.6259,-1.6559,-1.6607,-1.7507,-1.8097,-1.8145,-1.8614,-1.8867,-1.8867,-1.7929,-1.7424,-1.7387,-1.7905,-1.8157,-1.8205,-1.9155,-1.9676,-1.9748,-1.9664,-2.0201,-2.1175,-2.0117,-1.9965,-2.047,-2.0995,-2.0009,-1.8253,-1.9387,-1.9155,-1.8205,-1.776,-1.8181,-1.8843,-2.3595,-2.3595,-2.3595,-2.3595,-2.3595,-2.3595,-2.3595,-2.3266,-2.3161,-2.3478,-2.318,-2.3033,-2.337,-2.285,-2.2443,-2.2443,-2.1774,-2.1261,-2.1015,-2.1283,-2.0955,-1.9807,-1.9475,-1.9302,-1.9213,-1.9265,-1.9265,-1.9176,-1.912,-1.9101,-1.9101,-1.9101,-1.9101,-1.9101,-1.9139,-1.9176,-1.9176,-1.9195,-1.9195,-1.9176,-1.9176,-1.9139,-1.9101,-1.9101,-1.9101,-1.9101,-1.9101,-1.9101,-1.9101,-1.9101,-1.9101,-1.9101,-1.9101,-1.9101,-1.9045,-1.8803,-1.8726,-1.8669,-1.8324,-1.8364,-1.8422,-1.8127,-1.7639,-1.7115,-1.6778,-1.6565,-1.6414,-1.634,-1.6318,-1.6318,-1.6318,-1.6297,-1.6275,-1.6275,0.0,-1.6088,-1.601,-1.5957,-1.5891,-1.5814,-1.608,-1.6307,-1.6307,-1.6787,-1.7219,-1.758,-1.7977,-1.835,-1.8674,-1.8879,-1.8987,-1.8987,-1.8602,-1.8386,-1.8386,-1.8915,-1.9179,-1.9191,-1.9937,-2.0466,-2.0779,-2.0442,-2.0706,-2.1368,-2.0622,-2.0418,-2.061,-2.0803,-2.0434,-1.9772,-2.049,-2.0538,-2.0129,-1.9561,-1.9593,-1.9718,-2.3595,-2.3595,-2.3595,-2.3595,-2.3595,-2.3595,-2.3566,-2.3208,-2.3067,-2.3384,-2.3043,-2.2896,-2.3275,-2.2899,-2.2612,-2.2612,-2.215,-2.1792,-2.1601,-2.1693,-2.1178,-1.9904,-1.9451,-1.9176,-1.9101,-1.9176,-1.9176,-1.9101,-1.9101,-1.9101,-1.9101,-1.9101,-1.9101,-1.9101,-1.9101,-1.9101,-1.9101,-1.9101,-1.9101,-1.9101,-1.9101,-1.9101,-1.9101,-1.9101,-1.9101,-1.9101,-1.9101,-1.9101,-1.9101,-1.9101,-1.9101,-1.9101,-1.9101,-1.9007,-1.8822,-1.8403,-1.8285,-1.8206,-1.7808,-1.7868,-1.7935,-1.7585,-1.7186,-1.6778,-1.6426,-1.634,-1.6318,-1.6222,-1.62,-1.62,-1.62,-1.6178,-1.6144,-1.6144,-1.61,-1.6035,-1.5957,-1.5935,-1.5985,-1.6042,-1.6379,-1.6667,-1.6835,-1.7496,-1.8061,-1.8422,-1.8602,-1.8782,-1.8987,-1.8987,-1.8987,-1.8987,-1.8987,-1.9071,-1.9266,-1.9627,-1.9808,-1.982,-2.0514,-2.1055,-2.1392,-2.1199,-2.1308,-2.1632,-2.1272,-2.1019,-2.0846,-2.1019,-2.0808,-2.0422,-2.1115,-2.1199,-2.0875,-2.0682,-2.0512,-2.0277,-2.361,-2.3595,-2.3595,-2.3595,-2.3595,-2.3588,-2.3509,-2.3509,-2.3466,-2.3319,-2.3297,-2.3297,-2.3297,-2.3297,-2.3297,-2.3297,-2.3194,-2.2841,-2.2241,-2.1428,-2.0988,-2.0988,-1.9783,-1.9101,-1.9101,-1.9101,-1.9101,-1.9101,-1.9101,-1.9101,-1.9101,-1.9101,-1.9101,-1.9116,-1.9116,-1.9116,-1.9116,-1.9116,-1.9101,-1.9101,-1.9101,-1.9101,-1.9101,-1.9101,-1.9101,-1.9101,-1.9101,-1.9101,-1.9101,-1.9101,-1.9101,-1.9101,-1.9101,-1.8822,-1.8403,-1.7928,-1.7787,-1.7767,-1.772,-1.7359,-1.6951,-1.6837,-1.65,-1.62,-1.62,-1.62,-1.62,-1.62,-1.62,-1.62,-1.62,-1.61,-1.6001,-1.5988,-1.5903,-1.5804,-1.5804,-1.5804,-1.6008,-1.6559,-1.6619,-1.6835,-1.7363,-1.8386,-1.8999,-1.8999,-1.9507,-1.9567,-1.9023,-1.8987,-1.8987,-1.8999,-1.8999,-1.9251,-1.9796,-1.9808,-1.982,-1.9832,-2.0887,-2.1404,-2.1428,-2.1945,-2.2197,-2.2197,-2.2197,-2.1897,-2.1452,-2.1981,-2.1247,-1.9929,-2.0983,-2.0754,-1.9865,-2.0418,-2.0483,-2.0303,-2.4142,-2.3844,-2.3494,-2.3414,-2.3392,-2.337,-2.3363,-2.3363,-2.3312,-2.3194,-2.3171,-2.3112,-2.3023,-2.3023,-2.3023,-2.3023,-2.2978,-2.2694,-2.2112,-2.0994,-2.0364,-2.0364,-2.0001,-1.958,-1.9116,-1.9101,-1.9101,-1.9101,-1.9101,-1.9101,-1.9101,-1.9101,-1.9348,-1.9798,-1.9798,-1.9798,-1.9798,-1.9798,-1.9537,-1.9101,-1.9101,-1.9101,-1.9101,-1.9101,-1.9101,-1.9101,-1.9101,-1.9101,-1.9101,-1.9101,-1.9101,-1.9045,-1.8765,-1.8611,-1.8344,-1.7598,-1.7318,-1.7152,-1.6765,-1.6488,-1.6389,-1.671,-1.65,-1.6178,-1.6066,-1.6066,-1.6022,-1.5947,-1.5925,-1.5925,-1.5925,-1.6182,-1.6315,-1.5919,-1.6462,-1.6919,-1.6919,-1.6919,-1.7255,-1.8181,-1.8289,-1.8494,-1.9023,-1.936,-1.9567,-1.9567,-1.9375,-1.9324,-1.9567,-1.9191,-1.9167,-1.9567,-1.9567,-1.9652,-1.9808,-2.0165,-2.055,-2.0923,-2.1247,-2.1596,-2.1945,-2.174,-2.1849,-2.2197,-2.2197,-2.2101,-2.1969,-2.2125,-2.1836,-2.1319,-2.1641,-2.1509,-2.1121,-2.0896,-2.0724,-2.0527,-2.4341,-2.3867,-2.3385,-2.3319,-2.3297,-2.3275,-2.3223,-2.3223,-2.3179,-2.3037,-2.3015,-2.2992,-2.2925,-2.2888,-2.2786,-2.2562,-2.2301,-2.1982,-2.1627,-2.0886,-2.0349,-2.0117,-2.0103,-1.9783,-1.9116,-1.9101,-1.9101,-1.9101,-1.9101,-1.9101,-1.9101,-1.9101,-1.9319,-1.9696,-1.9696,-1.9696,-1.9696,-1.9696,-1.9464,-1.9101,-1.9101,-1.9101,-1.9101,-1.9101,-1.9101,-1.9101,-1.9101,-1.9101,-1.9101,-1.9101,-1.9101,-1.9007,-1.8403,-1.8226,-1.8048,-1.7186,-1.685,-1.668,-1.6297,-1.61,-1.6076,-1.6337,-1.6219,-1.6073,-1.6201,-1.6058,-1.6011,-1.6355,-1.6271,-1.6164,-1.6403,-1.6703,-1.6811,-1.6499,-1.6979,-1.7387,-1.7387,-1.7387,-1.7724,-1.8578,-1.8674,-1.8891,-1.9447,-1.9688,-1.9808,-1.9808,-1.9507,-1.9387,-1.9495,-1.9387,-1.9483,-1.9796,-2.0025,-2.0133,-2.0121,-2.0442,-2.0887,-2.1404,-2.1404,-2.168,-2.2185,-2.1861,-2.1897,-2.2197,-2.2197,-2.2154,-2.2092,-2.2092,-2.1968,-2.1812,-2.1812,-2.1651,-2.1369,-2.1252,-2.0995,-2.0675,-2.4322,-2.3739,-2.3275,-2.3275,-2.3275,-2.3209,-2.3105,-2.3082,-2.3037,-2.2925,-2.2844,-2.283,-2.2888,-2.2786,-2.2533,-2.2033,-2.1336,-2.0915,-2.0915,-2.0857,-2.0582,-2.003,-2.0016,-1.9725,-1.9116,-1.9101,-1.9101,-1.9101,-1.9101,-1.9101,-1.9101,-1.9101,-1.913,-1.9188,-1.9188,-1.9188,-1.9188,-1.9188,-1.9159,-1.9101,-1.9101,-1.9101,-1.9101,-1.9101,-1.9101,-1.9101,-1.9101,-1.9101,-1.9101,-1.9101,-1.9111,-1.8951,-1.8062,-1.7848,-1.7698,-1.6748,-1.6473,-1.6436,-1.6283,-1.6115,-1.5981,-1.5957,-1.5922,-1.5984,-1.6499,-1.6235,-1.6175,-1.7183,-1.7003,-1.6823,-1.7303,-1.7423,-1.7472,-1.7399,-1.7471,-1.7531,-1.7531,-1.7531,-1.7772,-1.835,-1.8374,-1.8554,-1.9083,-1.9555,-1.9784,-1.9736,-1.9736,-1.9543,-1.9083,-1.9495,-1.976,-1.9808,-2.0273,-2.0526,-2.0531,-2.0526,-2.0774,-2.1302,-2.1284,-2.1536,-2.2022,-2.1962,-2.1974,-2.2022,-2.2022,-2.193,-2.1763,-2.1799,-2.1741,-2.1608,-2.1655,-2.1362,-2.0986,-2.1491,-2.1269,-2.0826,-2.4817,-2.3948,-2.3105,-2.3,-2.2978,-2.2978,-2.2947,-2.2947,-2.2925,-2.2888,-2.249,-2.2374,-2.2844,-2.2011,-2.1569,-2.196,-2.0944,-2.0291,-2.0291,-1.9798,-1.9449,-1.9319,-1.9319,-1.9246,-1.9101,-1.9101,-1.9101,-1.9101,-1.9101,-1.9101,-1.9101,-1.9101,-1.9377,-1.9885,-1.9885,-1.9885,-1.9885,-1.9885,-1.958,-1.9101,-1.9101,-1.9101,-1.9101,-1.9101,-1.9101,-1.9101,-1.9101,-1.9101,-1.9101,-1.9101,-1.9171,-1.9087,-1.8038,-1.8121,-1.8273,-1.672,-1.6562,-1.685,-1.6724,-1.6262,-1.6041,-1.6847,-1.6739,-1.6463,-1.6571,-1.6511,-1.6607,-1.7255,-1.7327,-1.7255,-1.7388,-1.7748,-1.7893,-1.7459,-1.8109,-1.865,-1.865,-1.865,-1.9011,-1.9985,-1.9708,-1.9648,-2.0201,-1.9973,-1.964,-1.9218,-1.9167,-1.9314,-1.9615,-1.9351,-1.9387,-1.9796,-1.9901,-1.9989,-1.9977,-1.9989,-2.0181,-2.0621,-2.0305,-2.0304,-2.0612,-2.0313,-2.0349,-2.0636,-2.0636,-2.0606,-2.06,-2.0959,-2.1033,-2.0969,-2.1311,-2.1342,-2.1135,-2.1262,-2.1227,-2.1115,-2.498,-2.4159,-2.3356,-2.2968,-2.2888,-2.2888,-2.2888,-2.2888,-2.2888,-2.2888,-2.2635,-2.2432,-2.2461,-2.1888,-2.1365,-2.1119,-2.019,-1.9624,-1.9624,-1.929,-1.9101,-1.9101,-1.9101,-1.9101,-1.9101,-1.8898,-1.8898,-1.9101,-1.9101,-1.9101,-1.9101,-1.9101,-1.929,-1.9624,-1.9624,-1.9624,-1.9624,-1.9624,-1.942,-1.9101,-1.9101,-1.9101,-1.9101,-1.9101,-1.9101,-1.9101,-1.9101,-1.8988,-1.8765,-1.8519,-1.8615,-1.8726,-1.7903,-1.8091,-1.839,-1.7283,-1.6929,-1.6956,-1.7119,-1.6506,-1.6066,-1.7123,-1.6991,-1.6739,-1.7243,-1.7159,-1.7207,-1.8001,-1.7965,-1.7869,-1.8121,-1.8386,-1.8482,-1.8205,-1.8626,-1.8987,-1.8987,-1.8987,-1.9203,-1.9768,-1.9588,-1.9612,-2.0165,-1.9949,-1.9808,-1.9768,-1.9744,-1.9904,-2.0165,-2.0153,-2.0153,-2.0177,-2.067,-2.0682,-2.0189,-2.043,-2.0303,-1.9778,-1.9736,-1.9884,-2.0193,-1.9968,-2.0003,-2.0205,-2.0205,-2.0147,-2.0071,-2.0328,-2.0326,-2.0264,-2.073,-2.0746,-2.0546,-2.1017,-2.119,-2.119,-2.5096,-2.4399,-2.3717,-2.3171,-2.2975,-2.2888,-2.2888,-2.2888,-2.2888,-2.2888,-2.27,-2.2432,-2.2033,-2.1902,-2.1365,-2.0204,-1.9696,-1.9382,-1.9306,-1.9205,-1.9128,-1.9037,-1.8917,-1.8879,-1.8879,-1.8553,-1.863,-1.9101,-1.9026,-1.9026,-1.9101,-1.9082,-1.9082,-1.9082,-1.9064,-1.9045,-1.9045,-1.9045,-1.9064,-1.9082,-1.9082,-1.9082,-1.9082,-1.9026,-1.9007,-1.8988,-1.8898,-1.8706,-1.8418,-1.797,-1.8131,-1.8447,-1.7881,-1.8088,-1.8464,-1.7907,-1.7421,-1.7168,-1.7593,-1.6906,-1.6331,-1.7399,-1.7267,-1.7123,-1.8109,-1.7929,-1.782,-1.8794,-1.865,-1.847,-1.8915,-1.9059,-1.9122,-1.8999,-1.9071,-1.9095,-1.8999,-1.8987,-1.8987,-1.8987,-1.9071,-1.93,-1.9772,-1.9892,-2.0117,-2.0586,-2.0557,-2.0545,-2.0541,-2.096,-2.0996,-2.0553,-2.1452,-2.15,-2.0593,-2.1055,-2.0558,-1.9145,-1.939,-1.9608,-1.9802,-1.9703,-1.9715,-1.9848,-1.972,-1.9634,-1.9587,-1.9709,-1.9656,-1.9608,-2.009,-2.0044,-1.9792,-2.0638,-2.0937,-2.0948,-2.5701,-2.4704,-2.3862,-2.3775,-2.3287,-2.2888,-2.2888,-2.2888,-2.2888,-2.2888,-2.1939,-2.1452,-2.1946,-2.1481,-2.0857,-2.0161,-2.0494,-2.0557,-2.0154,-1.9653,-1.9181,-1.8755,-1.8242,-1.7968,-1.7968,-1.7908,-1.8285,-1.9101,-1.8745,-1.8765,-1.9101,-1.9036,-1.8998,-1.9012,-1.8893,-1.8841,-1.8841,-1.8841,-1.8908,-1.8998,-1.8998,-1.9055,-1.9064,-1.8707,-1.8592,-1.8519,-1.8108,-1.816,-1.8392,-1.8249,-1.8601,-1.898,-1.8318,-1.8646,-1.904,-1.7799,-1.7799,-1.8164,-1.8123,-1.7652,-1.7423,-1.8518,-1.8386,-1.8145,-1.8746,-1.8482,-1.8265,-1.8867,-1.8939,-1.8903,-1.8975,-1.9387,-1.9543,-1.9086,-1.9399,-1.9543,-1.9086,-1.8987,-1.8987,-1.8987,-1.9423,-1.9724,-1.9796,-2.0225,-2.0538,-2.0581,-2.043,-2.0332,-2.0332,-2.0391,-2.0432,-2.0332,-2.0649,-2.0759,-2.0581,-2.0653,-2.0223,-1.9283,-1.9197,-1.8806,-1.8101,-1.7699,-1.7842,-1.8345,-1.784,-1.7896,-1.838,-1.8844,-1.9028,-1.9057,-1.9585,-1.9757,-1.9711,-1.9838,-1.9895,-1.9824,-2.4863,-2.4283,-2.3775,-2.3403,-2.3113,-2.2888,-2.2888,-2.2684,-2.2509,-2.2509,-2.1747,-2.1083,-2.07,-2.0344,-1.989,-1.9355,-1.9806,-1.9759,-1.8969,-1.8659,-1.8406,-1.8201,-1.7936,-1.7787,-1.7787,-1.7578,-1.776,-1.8364,-1.8206,-1.8305,-1.8649,-1.8378,-1.824,-1.8167,-1.8094,-1.806,-1.806,-1.806,-1.8114,-1.8167,-1.8167,-1.8226,-1.8305,-1.8108,-1.8294,-1.8577,-1.8321,-1.8359,-1.8435,-1.8043,-1.8294,-1.8685,-1.8327,-1.8642,-1.9061,-1.8485,-1.8292,-1.8342,-1.858,-1.8049,-1.7664,-1.8734,-1.8819,-1.8782,-1.9312,-1.9507,-1.9531,-1.9471,-1.9684,-1.9805,-1.9519,-1.9652,-1.9724,-1.9495,-1.9652,-1.9805,-1.9889,-1.9636,-1.9567,-1.9868,-2.0386,-2.0803,-2.1103,-2.1518,-2.1779,-2.1779,-2.1602,-2.1454,-2.1454,-2.1226,-2.0942,-2.0624,-2.0842,-2.0669,-2.0176,-2.0274,-1.9755,-1.869,-1.8637,-1.8196,-1.7448,-1.7132,-1.7027,-1.7084,-1.681,-1.6849,-1.7095,-1.7357,-1.7455,-1.7499,-1.8039,-1.8417,-1.8646,-1.8646,-1.8646,-1.8585]},{"header":{"parameterUnit":"m.s-1","parameterCategory":1,"la1":30.6,"la2":28.766,"lo1":-90.7593,"lo2":-88.6598,"dy":0.0162,"dx":0.0183,"nx":116,"ny":114,"refTime":"2023-07-27T06:00:00:Z","depth":0,"parameterNumber":3,"parameterNumberName":"V-component_of_WINDS"},"data":[0.0,0.0,0.0,0.0,0.0,0.0,0.0,0.0,0.0,0.0,0.0,0.0,0.0,0.0,0.0,0.0,0.0,0.0,0.0,0.0,0.0,0.0,0.0,0.0,0.0,0.0,0.0,0.0,0.0,0.0,0.0,0.0,0.0,0.0,0.0,0.0,0.0,0.0,0.0,0.0,0.0,0.0,0.0,0.0,0.0,0.0,0.0,0.0,0.0,0.0,0.0,0.0,0.0,0.0,0.0,0.0,0.0,0.0,0.0,0.0,0.0,0.0,0.0,0.0,0.0,0.0,0.0,0.0,0.0,0.0,0.0,0.0,0.0,0.0,0.0,0.0,0.0,0.0,0.0,0.0,0.0,0.0,0.0,0.0,0.0,0.0,0.0,0.0,0.0,0.0,0.0,0.0,0.0,0.0,0.0,0.0,0.0,0.0,0.0,0.0,0.0,0.0,0.0,0.0,0.0,0.0,0.0,0.0,0.0,0.0,0.0,0.0,0.0,0.0,0.0,0.0,0.0,0.0,0.0,0.0,0.0,0.0,0.0,0.0,0.0,0.0,0.0,0.0,0.0,0.0,0.0,0.0,0.0,0.0,0.0,0.0,0.0,0.0,0.0,0.0,0.0,0.0,0.0,0.0,0.0,0.0,0.0,0.0,0.0,0.0,0.0,0.0,0.0,0.0,0.0,0.0,0.0,0.0,0.0,0.0,0.0,0.0,0.0,0.0,0.0,0.0,0.0,0.0,0.0,0.0,0.0,0.0,0.0,0.0,0.0,0.0,0.0,0.0,0.0,0.0,0.0,0.0,0.0,0.0,0.0,0.0,0.0,0.0,0.0,0.0,0.0,0.0,0.0,0.0,0.0,0.0,0.0,0.0,0.0,0.0,0.0,0.0,0.0,0.0,0.0,0.0,0.0,0.0,0.0,0.0,0.0,0.0,0.0,0.0,0.0,0.0,0.0,0.0,0.0,0.0,0.0,0.0,0.0,0.0,0.0,0.0,0.0,0.0,0.0,0.0,0.0,0.0,0.0,0.0,0.0,0.0,0.0,0.0,0.0,0.0,0.0,0.0,0.0,0.0,0.0,0.0,0.0,0.0,0.0,0.0,0.0,0.0,0.0,0.0,0.0,0.0,0.0,0.0,0.0,0.0,0.0,0.0,0.0,0.0,0.0,0.0,0.0,0.0,0.0,0.0,0.0,0.0,0.0,0.0,0.0,0.0,0.0,0.0,0.0,0.0,0.0,0.0,0.0,0.0,0.0,0.0,0.0,0.0,0.0,0.0,0.0,0.0,0.0,0.0,0.0,0.0,0.0,0.0,0.0,0.0,0.0,0.0,0.0,0.0,0.0,0.0,0.0,0.0,0.0,0.0,0.0,0.0,0.0,0.0,0.0,0.0,0.0,0.0,0.0,0.0,0.0,0.0,0.0,0.0,0.0,0.0,0.0,0.0,0.0,0.0,0.0,0.0,0.0,0.0,0.0,0.0,0.0,0.0,0.0,0.0,0.0,0.0,0.0,0.0,0.0,0.0,0.0,0.0,0.0,0.0,0.0,0.0,0.0,0.0,0.0,0.0,0.0,0.0,0.0,0.0,0.0,0.0,0.0,0.0,0.0,0.0,0.0,0.0,0.0,0.0,0.0,0.0,0.0,0.0,0.0,0.0,0.0,0.0,0.0,0.0,0.0,0.0,0.0,0.0,0.0,0.0,0.0,0.0,0.0,0.0,0.0,0.0,0.0,0.0,0.0,0.0,0.0,0.0,0.0,0.0,0.0,0.0,0.0,0.0,0.0,0.0,0.0,0.0,0.0,0.0,0.0,0.0,0.0,0.0,0.0,0.0,0.0,0.0,0.0,0.0,0.0,0.0,0.0,0.0,0.0,0.0,0.0,0.0,0.0,0.0,0.0,0.0,0.0,0.0,0.0,0.0,0.0,0.0,0.0,0.0,0.0,0.0,0.0,0.0,0.0,0.0,0.0,0.0,0.0,0.0,0.0,0.0,0.0,0.0,0.0,0.0,0.0,0.0,0.0,0.0,0.0,0.0,0.0,0.0,0.0,0.0,0.0,0.0,0.0,0.0,0.0,0.0,0.0,0.0,0.0,0.0,0.0,0.0,0.0,0.0,0.0,0.0,0.0,0.0,0.0,0.0,0.0,0.0,0.0,0.0,0.0,0.0,0.0,0.0,0.0,0.0,0.0,0.0,0.0,0.0,0.0,0.0,0.0,0.0,0.0,0.0,0.0,0.0,0.0,0.0,0.0,0.0,0.0,0.0,0.0,0.0,0.0,0.0,0.0,0.0,0.0,0.0,0.0,0.0,0.0,0.0,0.0,0.0,0.0,0.0,0.0,0.0,0.0,0.0,0.0,0.0,0.0,0.0,0.0,0.0,0.0,0.0,0.0,0.0,0.0,0.0,0.0,0.0,0.0,0.0,0.0,0.0,0.0,0.0,0.0,0.0,0.0,0.0,0.0,0.0,0.0,0.0,0.0,0.0,0.0,0.0,0.0,0.0,0.0,0.0,0.0,0.0,0.0,0.0,0.0,0.0,0.0,0.0,0.0,0.0,0.0,0.0,0.0,0.0,0.0,0.0,0.0,0.0,0.0,0.0,0.0,0.0,0.0,0.0,0.0,0.0,0.0,0.0,0.0,0.0,0.0,0.0,0.0,0.0,0.0,0.0,0.0,0.0,0.0,0.0,0.0,0.0,0.0,0.0,0.0,0.0,0.0,0.0,0.0,0.0,0.0,0.0,0.0,0.0,0.0,0.0,0.0,0.0,0.0,0.0,0.0,0.0,0.0,0.0,0.0,0.0,0.0,0.0,0.0,0.0,0.0,0.0,0.0,0.0,0.0,0.0,0.0,0.0,0.0,0.0,0.0,0.0,0.0,0.0,0.0,0.0,0.0,0.0,0.0,0.0,0.0,0.0,0.0,0.0,0.0,0.0,0.0,0.0,0.0,0.0,0.0,0.0,0.0,0.0,0.0,0.0,0.0,0.0,0.0,0.0,0.0,0.0,0.0,0.0,0.0,0.0,0.0,0.0,0.0,0.0,0.0,0.0,0.0,0.0,0.0,0.0,0.0,0.0,0.0,0.0,0.0,0.0,0.0,0.0,0.0,0.0,0.0,0.0,0.0,0.0,0.0,0.0,0.0,0.0,0.0,0.0,0.0,0.0,0.0,0.0,0.0,0.0,0.0,0.0,0.0,0.0,0.0,0.0,0.0,0.0,0.0,0.0,0.0,0.0,0.0,0.0,0.0,0.0,0.0,0.0,0.0,0.0,0.0,0.0,0.0,0.0,0.0,0.0,0.0,0.0,0.0,0.0,0.0,0.0,0.0,0.0,0.0,0.0,0.0,0.0,0.0,0.0,0.0,0.0,0.0,0.0,0.0,0.0,0.0,0.0,0.0,0.0,0.0,0.0,0.0,0.0,0.0,0.0,0.0,0.0,0.0,0.0,0.0,0.0,0.0,0.0,0.0,0.0,0.0,0.0,0.0,0.0,0.0,0.0,0.0,0.0,0.0,0.0,0.0,0.0,0.0,0.0,0.0,0.0,0.0,0.0,0.0,0.0,0.0,0.0,0.0,0.0,0.0,0.0,0.0,0.0,0.0,0.0,0.0,0.0,0.0,0.0,0.0,0.0,0.0,0.0,0.0,0.0,0.0,0.0,0.0,0.0,0.0,0.0,0.0,0.0,0.0,0.0,0.0,0.0,0.0,0.0,0.0,0.0,0.0,0.0,0.0,0.0,0.0,0.0,0.0,0.0,0.0,0.0,0.0,0.0,0.0,0.0,0.0,0.0,0.0,0.0,0.0,0.0,0.0,0.0,0.0,0.0,0.0,0.0,0.0,0.0,0.0,0.0,0.0,0.0,0.0,0.0,0.0,0.0,0.0,0.0,0.0,0.0,0.0,0.0,0.0,0.0,0.0,0.0,0.0,0.0,0.0,0.0,0.0,0.0,0.0,0.0,0.0,0.0,0.0,0.0,0.0,0.0,0.0,0.0,0.0,0.0,0.0,0.0,0.0,0.0,0.0,0.0,0.0,0.0,0.0,0.0,0.0,0.0,0.0,0.0,0.0,0.0,0.0,0.0,0.0,0.0,0.0,0.0,0.0,0.0,0.0,0.0,0.0,0.0,0.0,0.0,0.0,0.0,0.0,0.0,0.0,0.0,0.0,0.0,0.0,0.0,0.0,0.0,0.0,0.0,0.0,0.0,0.0,0.0,0.0,0.0,0.0,0.0,0.0,0.0,0.0,0.0,0.0,0.0,0.0,0.0,0.0,0.0,0.0,0.0,0.0,0.0,0.0,0.0,0.0,0.0,0.0,0.0,0.0,0.0,0.0,0.0,0.0,0.0,0.0,0.0,0.0,0.0,0.0,0.0,0.0,0.0,0.0,0.0,0.0,0.0,0.0,0.0,0.0,0.0,0.0,0.0,0.0,0.0,0.0,0.0,0.0,0.0,0.0,0.0,0.0,0.0,0.0,0.0,0.0,0.0,0.0,0.0,0.0,0.0,0.0,0.0,0.0,0.0,0.0,0.0,0.0,0.0,0.0,0.0,0.0,0.0,0.0,0.0,0.0,0.0,0.0,0.0,0.0,0.0,0.0,0.0,0.0,0.0,0.0,0.0,0.0,0.0,0.0,0.0,0.0,0.0,0.0,0.0,0.0,0.0,0.0,0.0,0.0,0.0,0.0,0.0,0.0,0.0,0.0,0.0,0.0,0.0,0.0,0.0,0.0,0.0,0.0,0.0,0.0,0.0,0.0,0.0,0.0,0.0,0.0,0.0,0.0,0.0,0.0,0.0,0.0,0.0,0.0,0.0,0.0,0.0,0.0,0.0,0.0,0.0,0.0,0.0,0.0,0.0,0.0,0.0,0.0,0.0,0.0,0.0,0.0,0.0,0.0,0.0,0.0,0.0,0.0,0.0,0.0,0.0,0.0,0.0,0.0,0.0,0.0,0.0,0.0,0.0,0.0,0.0,0.0,0.0,0.0,0.0,0.0,0.0,0.0,0.0,0.0,0.0,0.0,0.0,0.0,0.0,0.0,0.0,0.0,0.0,0.0,0.0,0.0,0.0,0.0,0.0,0.0,0.0,0.0,0.0,0.0,0.0,0.0,0.0,0.0,0.0,0.0,0.0,0.0,0.0,0.0,0.0,0.0,0.0,0.0,0.0,0.0,0.0,0.0,0.0,0.0,0.0,0.0,0.0,0.0,0.0,0.0,0.0,0.0,0.0,0.0,0.0,0.0,0.0,0.0,0.0,0.0,0.0,0.0,0.0,0.0,0.0,0.0,0.0,0.0,0.0,0.0,0.0,0.0,0.0,0.0,0.0,0.0,0.0,0.0,0.0,0.0,0.0,0.0,0.0,0.0,0.0,0.0,0.0,0.0,0.0,0.0,0.0,0.0,0.0,0.0,0.0,0.0,0.0,0.0,0.0,0.0,0.0,0.0,0.0,0.0,0.0,0.0,0.0,0.0,0.0,0.0,0.0,0.0,0.0,0.0,0.0,0.0,0.0,0.0,0.0,0.0,0.0,0.0,0.0,0.0,0.0,0.0,0.0,0.0,0.0,0.0,0.0,0.0,0.0,0.0,0.0,0.0,0.0,0.0,0.0,0.0,0.0,0.0,0.0,0.0,0.0,0.0,0.0,0.0,0.0,0.0,0.0,0.0,0.0,0.0,0.0,0.0,0.0,0.0,0.0,0.0,0.0,0.0,0.0,0.0,0.0,0.0,0.0,0.0,0.0,0.0,0.0,0.0,0.0,0.0,0.0,0.0,0.0,0.0,0.0,0.0,0.0,0.0,0.0,0.0,0.0,0.0,0.0,0.0,0.0,0.0,0.0,0.0,0.0,0.0,0.0,0.0,0.0,0.0,0.0,0.0,0.0,0.0,0.0,0.0,0.0,0.0,0.0,0.0,0.0,0.0,0.0,0.0,0.0,0.0,0.0,0.0,0.0,0.0,0.0,0.0,0.0,0.0,0.0,0.0,0.0,0.0,0.0,0.0,0.0,0.0,0.0,0.0,0.0,0.0,0.0,0.0,0.0,0.0,0.0,0.0,0.0,0.0,0.0,0.0,0.0,0.0,0.0,-0.3454,0.0,0.0,0.0,0.0,0.0,0.0,0.0,0.0,0.0,0.0,0.0,0.0,0.0,0.0,0.0,0.0,0.0,0.0,0.0,0.0,0.0,0.0,0.0,0.0,0.0,0.0,0.0,0.0,0.0,0.0,0.0,0.0,0.0,0.0,0.0,0.0,0.0,0.0,0.0,0.0,0.0,0.0,0.0,0.0,0.0,0.0,0.0,0.0,0.0,0.0,0.0,0.0,0.0,0.0,0.0,0.0,0.0,0.0,0.0,0.0,0.0,0.0,0.0,0.0,0.0,0.0,0.0,0.0,0.0,0.0,0.0,0.0,0.0,0.0,0.0,0.0,0.0,0.0,0.0,0.0,0.0,0.0,0.0,0.0,0.0,0.0,0.0,0.0,0.0,0.0,0.0,0.0,0.0,0.0,0.0,0.0,0.0,0.0,0.0,0.0,0.0,0.0,0.0,0.0,0.0,0.0,0.0,0.0,0.0,0.0,0.0,0.0,0.0,0.0,0.0,0.0,-0.3679,0.0,0.0,0.0,0.0,0.0,0.0,0.0,0.0,0.0,0.0,0.0,0.0,0.0,0.0,0.0,0.0,0.0,0.0,0.0,0.0,0.0,0.0,0.0,0.0,0.0,0.0,0.0,0.0,0.0,0.0,0.0,0.0,0.0,0.0,0.0,0.0,0.0,0.0,0.0,0.0,0.0,0.0,0.0,0.0,0.0,0.0,0.0,0.0,0.0,0.0,0.0,0.0,0.0,0.0,0.0,0.0,0.0,0.0,0.0,0.0,0.0,0.0,0.0,0.0,0.0,0.0,0.0,0.0,0.0,0.0,0.0,0.0,0.0,0.0,0.0,0.0,0.0,0.0,0.0,0.0,0.0,0.0,0.0,0.0,0.0,0.0,0.0,0.0,0.0,0.0,0.0,0.0,0.0,0.0,0.0,0.0,0.0,0.0,0.0,0.0,0.0,0.0,0.0,0.0,0.0,0.0,0.0,0.0,-0.2833,-0.2597,-0.2686,-0.209,-0.2084,-0.2586,-0.3189,-0.3591,-0.3796,-0.391,0.0,0.0,0.0,0.0,0.0,0.0,0.0,0.0,0.0,0.0,0.0,0.0,0.0,0.0,0.0,0.0,0.0,0.0,0.0,0.0,0.0,0.0,0.0,0.0,0.0,0.0,0.0,0.0,0.0,0.0,0.0,0.0,0.0,0.0,0.0,0.0,0.0,0.0,-0.658,-0.6927,-0.6808,-0.6318,-0.5452,0.0,0.0,0.0,0.0,0.0,0.0,0.0,0.0,0.0,0.0,0.0,0.0,0.0,0.0,0.0,0.0,0.0,0.0,0.0,0.0,0.0,0.0,0.0,0.0,0.0,0.0,0.0,0.0,0.0,0.0,0.0,0.0,0.0,0.0,0.0,0.0,0.0,0.0,0.0,0.0,0.0,0.0,0.0,-0.2691,-0.2691,0.0,0.0,0.0,0.0,0.0,0.0,0.0,0.0,0.0,0.0,0.0,0.0,0.0,-0.2041,-0.2038,-0.2038,-0.204,-0.2069,-0.1973,-0.1941,-0.1941,-0.1846,-0.1848,-0.1914,-0.2009,0.0,-0.3796,-0.3824,0.0,0.0,0.0,0.0,0.0,0.0,0.0,0.0,0.0,0.0,0.0,0.0,0.0,0.0,0.0,0.0,0.0,0.0,0.0,0.0,0.0,0.0,0.0,0.0,0.0,0.0,0.0,0.0,0.0,0.0,0.0,0.0,0.0,0.0,0.0,0.0,-0.8712,-0.8317,-0.7534,-0.7541,-0.7471,-0.7356,-0.6789,-0.6235,-0.5656,-0.5054,0.0,0.0,0.0,0.0,0.0,0.0,0.0,0.0,0.0,0.0,0.0,0.0,0.0,0.0,0.0,0.0,0.0,0.0,0.0,0.0,0.0,0.0,0.0,0.0,0.0,0.0,0.0,0.0,0.0,0.0,0.0,0.0,0.0,0.0,0.0,0.0,0.0,0.0,0.0,-0.2691,-0.2691,-0.2691,-0.2691,-0.2747,0.0,0.0,0.0,0.0,0.0,0.0,0.0,0.0,0.0,-0.1806,-0.1808,-0.1787,-0.181,-0.1811,-0.1837,-0.1891,-0.1486,-0.134,-0.1386,-0.0991,-0.0966,-0.1292,-0.1305,-0.1806,-0.2668,-0.2673,-0.2681,-0.2681,0.0,0.0,0.0,0.0,-0.363,-0.3996,0.0,0.0,0.0,0.0,0.0,0.0,0.0,0.0,0.0,0.0,0.0,0.0,0.0,0.0,0.0,-1.1811,0.0,0.0,0.0,0.0,0.0,0.0,0.0,0.0,0.0,0.0,0.0,-0.9145,-0.9766,-0.953,-0.8524,-0.8505,-0.8416,-0.8331,-0.8232,-0.744,-0.6208,-0.5533,-0.4876,0.0,0.0,0.0,0.0,0.0,0.0,0.0,0.0,0.0,0.0,0.0,0.0,0.0,0.0,0.0,0.0,0.0,0.0,0.0,0.0,0.0,0.0,0.0,0.0,0.0,0.0,0.0,0.0,0.0,0.0,0.0,0.0,0.0,0.0,0.0,0.0,0.0,0.0,-0.2758,-0.277,-0.2697,-0.2607,-0.2573,0.0,0.0,0.0,0.0,0.0,0.0,-0.156,-0.1573,-0.1482,-0.1349,-0.1351,-0.1351,-0.1351,-0.1351,-0.14,-0.1498,-0.0929,-0.0705,-0.079,-0.0241,-0.0233,-0.0662,-0.0657,-0.0923,-0.1351,-0.1672,-0.1804,-0.179,-0.1846,-0.2153,-0.2627,-0.2655,-0.2989,-0.3436,0.0,0.0,0.0,0.0,0.0,0.0,0.0,0.0,0.0,0.0,0.0,0.0,0.0,0.0,-1.2083,-1.2445,-1.2804,-1.2716,0.0,0.0,0.0,0.0,0.0,0.0,0.0,0.0,0.0,-1.0122,-1.1095,-1.0868,-0.9432,-1.0197,-1.007,-0.9231,-0.9334,-0.8645,-0.7375,-0.6481,-0.5725,-0.4905,0.0,0.0,0.0,0.0,0.0,0.0,0.0,0.0,0.0,0.0,0.0,0.0,0.0,0.0,0.0,0.0,0.0,0.0,0.0,0.0,0.0,0.0,0.0,0.0,0.0,0.0,0.0,0.0,0.0,0.0,0.0,0.0,0.0,0.0,0.0,0.0,0.0,0.0,0.0,-0.2711,-0.231,0.0,0.0,0.0,0.0,-0.1535,-0.1514,-0.1318,-0.0975,-0.0928,-0.0697,-0.0113,-0.0075,-0.0075,-0.0075,-0.0075,-0.0075,-0.0113,-0.0075,-0.0037,-0.0036,0.0,0.0,-0.0034,-0.0033,-0.0064,-0.0192,-0.1324,-0.1813,-0.1818,-0.193,-0.193,-0.1874,-0.1986,-0.1986,-0.1902,0.0,0.0,0.0,0.0,0.0,0.0,0.0,0.0,0.0,0.0,0.0,0.0,0.0,-1.2534,-1.3494,-1.4471,-1.4668,-1.4365,-1.3479,0.0,0.0,0.0,0.0,0.0,0.0,0.0,-1.2119,-1.1739,-1.1935,-1.1519,-1.0582,-1.0311,-1.0007,-0.9702,-0.9879,-0.952,-0.8735,-0.7859,-0.6968,-0.6043,-0.4819,-0.3663,0.0,0.0,0.0,0.0,0.0,0.0,0.0,0.0,0.0,0.0,0.0,0.0,0.0,0.0,0.0,0.0,0.0,0.0,0.0,0.0,0.0,0.0,0.0,0.0,0.0,0.0,0.0,0.0,0.0,0.0,0.0,0.0,0.0,0.0,0.0,0.0,0.0,-0.2115,-0.1509,0.0,-0.1221,-0.0586,-0.0314,-0.0629,-0.0361,-0.0111,-0.0075,-0.0232,-0.0238,0.0,0.0,0.0,0.0,0.0,0.0,0.0,0.0,0.0,0.0,0.0,0.0,0.0,0.0,0.0,-0.0033,-0.0454,-0.0656,-0.0655,-0.07,-0.0924,-0.1238,-0.1271,-0.1512,-0.179,0.0,0.0,0.0,0.0,0.0,0.0,0.0,0.0,0.0,0.0,0.0,-1.1012,-1.2119,-1.342,-1.4748,-1.6113,-1.6,-1.5473,-1.461,0.0,0.0,0.0,0.0,0.0,0.0,-1.3114,-1.3493,-1.2951,-1.3176,-1.2591,-1.1312,-1.087,-1.0428,-1.0075,-1.0201,-1.008,-0.978,-0.9157,-0.817,-0.699,-0.5803,-0.4566,-0.3301,0.0,0.0,0.0,0.0,0.0,0.0,0.0,0.0,0.0,0.0,0.0,0.0,0.0,0.0,0.0,0.0,0.0,0.0,0.0,0.0,0.0,0.0,0.0,0.0,0.0,0.0,0.0,0.0,0.0,0.0,0.0,0.0,0.0,0.0,0.0,-0.1406,-0.1395,-0.0776,-0.0382,-0.0378,0.0269,0.0543,0.0272,0.0556,0.0691,0.054,0.0296,0.0129,0.013,0.0044,0.0,0.0,0.0,0.0,0.0,0.0,0.0,0.0,0.0,0.0,0.0,0.0,0.0,0.0,0.0,0.0,0.0,0.0,-0.0235,-0.0585,-0.0596,-0.084,-0.1203,0.0,0.0,0.0,0.0,0.0,0.0,0.0,0.0,0.0,0.0,-1.0616,-1.1182,-1.2566,-1.4238,-1.5786,-1.7209,-1.6615,-1.5905,-1.525,-1.2912,0.0,0.0,0.0,0.0,-1.2565,-1.4096,-1.4504,-1.3674,-1.4772,-1.4027,-1.1557,-1.1893,-1.1496,-1.0391,-1.0391,-1.0391,-1.0379,-1.0253,-0.9325,-0.7751,-0.642,-0.5131,-0.3905,0.0,0.0,0.0,0.0,0.0,0.0,0.0,0.0,0.0,0.0,0.0,0.0,0.0,0.0,0.0,0.0,0.0,0.0,0.0,0.0,0.0,0.0,0.0,0.0,0.0,0.0,0.0,0.0,0.0,0.0,0.0,0.0,0.0,-0.1587,-0.1209,-0.0796,-0.0607,-0.0162,0.0209,0.0409,0.1019,0.1308,0.1135,0.1111,0.0997,0.0833,0.0556,0.0417,0.0416,0.0139,0.0,0.0,0.0,0.0,0.0,0.0,0.0,0.0,0.0,0.0,0.0,0.0,0.0,0.0,0.0,0.0,0.0,0.0,0.0,0.0,0.0,0.0,0.0,0.0,0.0,0.0,0.0,0.0,0.0,0.0,0.0,0.0,0.0,-1.0761,-1.1936,-1.3284,-1.5008,-1.6483,-1.7552,-1.6429,-1.5511,-1.5204,0.0,0.0,0.0,0.0,0.0,-1.4564,-1.4881,-1.5077,-1.5221,-1.4258,-1.3226,-1.2137,-1.1432,-1.0941,-1.0623,-1.0623,-1.0623,-1.0619,-1.0566,-1.0114,-0.9278,-0.804,-0.6367,-0.4471,0.0,0.0,0.0,0.0,0.0,0.0,0.0,0.0,0.0,0.0,0.0,0.0,0.0,0.0,0.0,0.0,0.0,0.0,0.0,0.0,0.0,0.0,0.0,0.0,0.0,0.0,0.0,0.0,0.0,0.0,0.0,0.0,-0.0185,-0.0944,-0.0428,0.0083,0.0128,0.0717,0.115,0.119,0.1386,0.1442,0.1396,0.1262,0.1128,0.1087,0.0851,0.0704,0.0694,0.0416,0.0274,0.0311,0.0086,0.0,0.0,0.0,0.0,0.0,0.0,0.0,0.0,0.0,0.0,0.0,0.0,0.0,0.0,0.0,0.0,0.0,0.0,0.0,0.0,0.0,0.0,0.0,0.0,0.0,0.0,0.0,0.0,0.0,0.0,-1.102,-1.2282,-1.3418,-1.4969,-1.6274,-1.7138,-1.5782,-1.4791,-1.4579,0.0,0.0,0.0,0.0,-1.4655,-1.5994,-1.5958,-1.5928,-1.5967,-1.478,-1.3543,-1.2382,-1.1728,-1.1181,-1.0692,-1.0692,-1.0692,-1.0692,-1.0692,-1.0522,-1.0204,-0.9318,-0.7385,-0.5016,-0.4276,-0.2854,-0.1233,-0.1141,-0.1119,-0.1126,-0.1051,0.0,0.0,0.0,0.0,0.0,0.0,0.0,0.0,0.0,0.0,0.0,0.0,0.0,0.0,0.0,0.0,0.0,0.0,0.0,0.0,0.0,0.0,0.0,0.0,0.0117,0.0653,0.0209,0.0559,0.089,0.0882,0.1285,0.155,0.1563,0.1564,0.1564,0.1564,0.1455,0.1356,0.1368,0.1115,0.096,0.0949,0.0706,0.0557,0.0545,0.0305,0.0171,0.0171,0.0041,0.0,0.0,0.0,0.0,0.0,0.0,0.0,0.0,0.0,0.0,0.0,0.0,0.0,0.0,0.0,0.0,0.0,0.0,0.0,0.0,0.0,0.0,0.0,0.0,0.0,0.0,0.0,0.0,-1.2367,-1.306,-1.4346,-1.5421,-1.6042,-1.4835,-1.3881,0.0,0.0,0.0,-1.3206,-1.4623,-1.5908,-1.6904,-1.6821,-1.6539,-1.6095,-1.5553,-1.4272,-1.2387,-1.2332,-1.1728,-1.0692,-1.0692,-1.0692,-1.0692,-1.0692,-1.0692,-1.068,-1.0189,-0.8238,-0.5498,-0.4774,-0.3232,-0.1455,-0.1294,-0.1232,-0.1219,-0.1129,0.0,0.0,0.0,0.0,0.0,0.0,0.0,0.0,0.0,0.0,0.0,0.0,0.0,0.0,0.0,0.0,0.0,0.0,0.0,0.0,0.0,0.0,0.0,0.0,0.0938,0.1365,0.1525,0.1515,0.1516,0.157,0.1577,0.1587,0.1614,0.1617,0.1617,0.1617,0.1592,0.1588,0.1615,0.0,0.0,0.0,0.0,0.0852,0.0833,0.0579,0.0436,0.0435,0.0208,0.0082,0.0041,0.0038,0.0037,0.0,0.0,0.0,0.0,0.0,0.0,0.0,0.0,0.0,0.0,0.0,0.0,0.0,0.0,0.0,0.0,0.0,0.0,0.0,0.0,0.0,0.0,-0.9702,-1.1105,-1.2065,-1.203,-1.3437,-1.4364,-1.421,-1.3471,-1.2813,0.0,0.0,-1.3375,-1.4477,-1.5168,-1.6016,-1.6974,-1.5929,-1.5483,-1.5642,-1.4363,-1.3256,-1.2382,-1.1951,-1.1404,-1.0692,-1.0692,-1.0692,-1.0692,-1.0692,-1.0692,-1.0688,-1.0382,-0.8548,-0.6005,-0.544,-0.3641,-0.1395,-0.136,-0.1319,-0.1278,-0.1267,-0.1259,-0.1245,-0.1262,0.0,0.0,0.0,0.0,0.0,0.0,0.0,0.0,0.0,0.0,0.0,0.0,0.0,0.0,0.0,0.0,0.0,0.0,0.0,0.0,0.0539,0.106,0.1525,0.1622,0.161,0.1595,0.1607,0.1608,0.161,0.1616,0.1617,0.1617,0.1617,0.1611,0.1611,0.1616,0.1561,0.1547,0.1523,0.1272,0.1104,0.1065,0.0813,0.0708,0.0653,0.0,0.0,0.0325,0.0315,0.0192,0.0,0.0,0.0,0.0,0.0,0.0,0.0,0.0,0.0,0.0,0.0,0.0,0.0,0.0,0.0,0.0,0.0,0.0,0.0,0.0,0.0,0.0,0.0,-1.1056,-1.1891,-1.1904,-1.2656,-1.3075,-1.2897,-1.2284,0.0,0.0,-1.3038,-1.4216,-1.5833,-1.6411,-1.696,-1.748,-1.6444,-1.5747,-1.5506,-1.4342,-1.3315,-1.2382,-1.2114,-1.1514,-1.0692,-1.0692,-1.0692,-1.0692,-1.0692,-1.0692,-1.0692,-1.0527,-0.9156,-0.6993,-0.5972,-0.3901,-0.1547,-0.1532,-0.1478,-0.1414,-0.1414,-0.136,-0.134,-0.1338,-0.1262,-0.1174,0.0,0.0,0.0,0.0,0.0,0.0,0.0,0.0,0.0,0.0,0.0,0.0,0.0,0.0,-0.1624,0.0,0.0,0.0544,0.1081,0.1394,0.161,0.1707,0.165,0.1634,0.1619,0.1617,0.1617,0.1617,0.1617,0.1617,0.1617,0.1617,0.1617,0.1617,0.1617,0.161,0.1594,0.1481,0.1362,0.1335,0.1064,0.0952,0.0898,0.0783,0.0638,0.0546,0.0562,0.0468,0.0346,0.0222,0.0145,0.0143,0.0035,0.0,0.0,0.0,0.0,0.0,0.0,0.0,0.0,0.0,0.0,0.0,0.0,0.0,0.0,0.0,0.0,0.0,0.0,-1.0812,-1.1535,-1.1616,-1.1722,-1.1768,0.0,0.0,0.0,0.0,-1.3536,-1.4863,-1.6588,-1.7208,-1.7462,-1.7462,-1.6645,-1.5885,-1.5244,-1.4563,-1.3591,-1.2387,-1.2424,-1.1841,-1.0745,-1.0745,-1.0745,-1.0745,-1.0708,-1.0692,-1.0692,-1.0637,-0.9416,-0.7511,-0.6278,-0.4196,-0.2009,-0.1713,-0.1534,-0.1448,-0.1466,-0.1452,-0.1379,-0.1405,-0.1363,-0.1296,-0.1174,-0.1105,0.0,0.0,0.0,0.0,0.0,0.0,0.0,0.0,0.0,-0.3216,-0.2402,-0.2133,-0.154,0.0142,0.0574,0.088,0.1587,0.1689,0.1722,0.1722,0.1718,0.1651,0.162,0.1617,0.1617,0.1617,0.1617,0.1617,0.1617,0.1617,0.1617,0.1617,0.1617,0.1617,0.1617,0.1593,0.1577,0.162,0.1332,0.1168,0.1163,0.0942,0.0835,0.0786,0.078,0.0755,0.0671,0.045,0.0367,0.033,0.0178,0.0104,0.0067,0.0065,0.0031,0.0,0.0,0.0,0.0,0.0,0.0,0.0,0.0,0.0,0.0,0.0,0.0,0.0,0.0,0.0,0.0,0.0,0.0,0.0,0.0,0.0,0.0,-1.287,-1.3872,-1.4851,-1.5807,-1.6186,-1.6105,-1.5425,-1.482,-1.4461,-1.4353,-1.4245,-1.3591,-1.2391,-1.2565,-1.2042,-1.0992,-1.0992,-1.0992,-1.0928,-1.0761,-1.0692,-1.0692,-1.0417,-0.8751,-0.634,-0.5871,-0.4688,-0.307,-0.1896,-0.1444,-0.1335,-0.137,-0.1421,-0.1399,-0.1378,-0.1407,-0.1356,-0.1236,0.0,-0.1003,-0.099,-0.1303,-0.1819,-0.2618,-0.2734,-0.2971,0.0,0.0,-0.3572,-0.3153,-0.2229,-0.1185,-0.03,0.0822,0.1587,0.1737,0.1719,0.1699,0.1699,0.1678,0.1651,0.162,0.1617,0.1617,0.1617,0.1617,0.1617,0.1617,0.1617,0.1617,0.1617,0.1617,0.1617,0.1617,0.1613,0.1598,0.1621,0.1565,0.15,0.1473,0.144,0.1275,0.1071,0.0982,0.0868,0.0687,0.0616,0.0565,0.0563,0.0537,0.0414,0.0269,0.0261,0.0158,0.0,0.0,0.0,0.0,0.0,0.0,0.0,0.0,0.0,0.0,0.0,0.0,0.0,0.0,0.0,0.0,0.0,0.0,0.0,0.0,0.0,0.0,-1.2115,-1.2893,-1.3876,-1.5114,-1.6027,-1.6276,-1.5884,-1.5543,-1.5258,-1.4982,-1.4455,-1.3591,-1.2387,-1.2471,-1.1908,-1.0806,-1.0806,-1.0806,-1.0802,-1.0724,-1.0692,-1.0637,-1.0029,-0.8756,-0.7108,-0.565,-0.4365,-0.3101,-0.1898,-0.1388,0.0,0.0,-0.135,-0.1348,-0.1394,-0.1377,-0.1319,-0.1215,-0.115,0.0,-0.1389,-0.1919,0.0,0.0,-0.346,-0.401,-0.4479,-0.4468,-0.414,-0.3488,-0.2402,-0.1241,-0.0267,0.0916,0.174,0.0,0.1765,0.1745,0.1709,0.1694,0.1662,0.1598,0.1606,0.1617,0.1617,0.1617,0.1617,0.1617,0.1617,0.1617,0.1617,0.1617,0.1617,0.1617,0.1617,0.1611,0.1598,0.1563,0.1538,0.1478,0.1477,0.1402,0.1254,0.1202,0.1033,0.0796,0.0781,0.0691,0.0605,0.0592,0.0542,0.0492,0.0472,0.0427,0.0323,0.0091,0.0,0.0,0.0,0.0,0.0,0.0,0.0,0.0,0.0,0.0,0.0,0.0,0.0,0.0,0.0,0.0,0.0,0.0,0.0,0.0,0.0,-1.2088,-1.2941,-1.3901,-1.5252,-1.5778,-1.5442,-1.5469,-1.5404,-1.5143,-1.4347,-1.3423,-1.2387,-1.2279,-1.1702,-1.0769,-1.0769,-1.0741,-1.0688,-1.0639,-1.0454,-1.0092,-0.9384,-0.8298,-0.6829,-0.5126,-0.3726,-0.2571,-0.1692,-0.1304,0.0,0.0,-0.1247,-0.125,-0.1309,-0.1305,-0.1264,-0.1198,-0.1253,-0.14,-0.1768,0.0,0.0,-0.3418,-0.421,-0.489,-0.4812,-0.4759,-0.4481,-0.3578,-0.2361,-0.112,-0.0109,0.1041,0.1809,0.1767,0.1784,0.1777,0.1724,0.1703,0.1666,0.1593,0.1588,0.1595,0.1604,0.1612,0.1617,0.1617,0.1617,0.1617,0.1617,0.1617,0.1617,0.1617,0.1617,0.1613,0.1605,0.1561,0.1534,0.1478,0.1473,0.1448,0.1445,0.1335,0.1195,0.0992,0.1024,0.0933,0.0803,0.0759,0.0749,0.0696,0.0696,0.0647,0.0574,0.025,0.015,0.0149,0.0,0.0,0.0,0.0,0.0,0.0,0.0,0.0,0.0,0.0,0.0,0.0,0.0,0.0,0.0,0.0,0.0,0.0,0.0,-1.1881,-1.2291,-1.1794,-1.3281,-1.3692,-1.2932,-1.3515,-1.3996,-1.4245,-1.3645,-1.2985,-1.2387,-1.1988,-1.1518,-1.1016,-1.1016,-1.0858,-1.068,-1.0513,-0.9813,-0.8834,-0.8531,-0.6888,-0.4538,-0.4093,-0.2852,-0.1343,-0.1313,0.0,0.0,0.0,-0.1107,-0.1127,-0.119,-0.1192,0.0,-0.1211,-0.1437,0.0,0.0,0.0,-0.3599,-0.4112,-0.4698,-0.5145,-0.5318,-0.4918,-0.4252,-0.3403,-0.2045,-0.0772,0.0105,0.1122,0.1795,0.1712,0.1757,0.1784,0.1807,0.1752,0.1652,0.162,0.1564,0.154,0.0,0.1599,0.1617,0.1617,0.1617,0.1617,0.1617,0.1617,0.1617,0.1617,0.1617,0.1603,0.1622,0.162,0.1555,0.1478,0.1494,0.1479,0.1476,0.1344,0.1289,0.1299,0.127,0.1295,0.1293,0.1224,0.1059,0.0903,0.0893,0.077,0.0591,0.0526,0.0474,0.0493,0.0,0.0,0.0,0.0,0.0,0.0,0.0,0.0,0.0,0.0,0.0,0.0,0.0,0.0,0.0,0.0,0.0,0.0,0.0,-0.9892,-1.0308,-1.0319,-1.1852,-1.2784,-1.2911,-1.3072,-1.3357,-1.3877,-1.2907,-1.2052,-1.132,-1.1198,-1.0827,-1.0245,-1.0132,-1.0107,-1.0136,-0.9843,-0.9545,-0.912,-0.817,-0.6646,-0.4851,-0.3955,-0.2589,-0.1176,0.0,0.0,0.0,-0.0971,-0.0965,-0.0994,-0.1035,-0.1042,-0.1078,-0.1415,-0.1725,-0.2107,0.0,0.0,-0.413,-0.4622,-0.509,-0.5423,-0.5543,-0.4665,-0.3774,-0.3449,-0.1718,-0.0102,0.02,0.101,0.1635,0.1644,0.1713,0.1809,0.1724,0.1703,0.1657,0.1567,0.1574,0.0,0.0,0.0,0.0,0.1613,0.1598,0.1596,0.1615,0.1617,0.1617,0.1617,0.1617,0.1602,0.1621,0.1551,0.1526,0.1495,0.1444,0.1411,0.1347,0.1341,0.1301,0.1312,0.1301,0.1296,0.1295,0.1285,0.1242,0.1161,0.1122,0.1059,0.1003,0.0933,0.0905,0.0845,0.0,0.0,0.0,0.0,0.0,0.0,0.0,0.0,0.0,0.0,0.0,0.0,0.0,0.0,0.0,0.0,0.0,0.0,0.0,0.0,-0.908,-0.909,-1.0467,-1.1388,-1.1799,-1.1945,-1.2241,-1.2743,-1.176,-1.0959,-1.0468,-1.0165,-0.9799,-0.9409,-0.9299,-0.9275,-0.9299,-0.9118,-0.8679,-0.8038,-0.7212,-0.5791,-0.4097,-0.3341,-0.2206,0.0,0.0,0.0,0.0,-0.0904,-0.0898,-0.0903,-0.0962,-0.0995,-0.1101,-0.169,-0.2069,-0.2563,0.0,-0.4203,-0.4677,-0.5152,-0.5478,-0.5692,-0.5692,-0.437,-0.307,-0.2814,-0.0978,0.0624,0.0787,0.1243,0.1539,0.1543,0.1618,0.1674,0.1688,0.168,0.1644,0.1568,0.1574,0.0,0.0,0.0,0.0,0.1612,0.1598,0.1596,0.1615,0.1617,0.1617,0.1617,0.1617,0.1602,0.1621,0.1541,0.1506,0.1464,0.1425,0.1391,0.1319,0.129,0.1302,0.1312,0.1302,0.1296,0.1296,0.1296,0.1296,0.1293,0.1224,0.12,0.1179,0.1149,0.1125,0.1099,0.0,0.0,0.0,0.0,0.0,0.0,0.0,0.0,0.0,0.0,0.0,0.0,0.0,0.0,0.0,0.0,0.0,0.0,0.0,0.0,0.0,-0.8184,-0.9047,-0.9542,-0.9549,-1.0186,-1.0603,-1.0875,-1.0174,-0.9804,-0.9747,-0.8918,-0.8543,-0.8543,-0.8531,-0.8437,-0.8235,-0.8215,-0.726,-0.5825,-0.5774,-0.4385,-0.2333,-0.2265,0.0,0.0,0.0,0.0,0.0,0.0,0.0,0.0,0.0,0.0,-0.132,-0.196,-0.244,-0.3002,-0.4133,-0.4746,-0.519,-0.5674,-0.578,-0.572,-0.5716,-0.3976,-0.2227,-0.1533,0.0,0.1417,0.0,0.0,0.1494,0.1418,0.1487,0.161,0.1705,0.1691,0.1669,0.0,0.0,0.0,0.0,0.0,0.0,0.1613,0.0,0.1615,0.1617,0.1617,0.1617,0.1617,0.1617,0.1602,0.1621,0.154,0.1447,0.1391,0.1389,0.1418,0.1388,0.1317,0.1288,0.1301,0.131,0.1296,0.1296,0.1296,0.1296,0.1293,0.1227,0.1215,0.1209,0.1218,0.1206,0.1194,0.0,0.0,0.0,0.0,0.0,0.0,0.0,0.0,0.0,0.0,0.0,0.0,0.0,0.0,0.0,0.0,0.0,0.0,0.0,0.0,0.0,0.0,0.0,0.0,0.0,0.0,0.0,0.0,-0.8786,-0.8403,-0.8262,-0.7783,-0.7569,-0.7561,-0.7465,-0.7449,-0.7442,-0.6841,-0.6331,-0.5912,0.0,-0.4143,-0.2808,0.0,0.0,0.0,0.0,0.0,0.0,0.0,0.0,0.0,0.0,0.0,-0.1407,-0.2405,-0.2617,-0.2847,-0.4499,-0.4893,-0.5051,-0.5634,-0.5482,-0.4983,-0.4328,-0.2553,-0.0874,-0.0098,0.1044,0.186,0.0,0.0,0.0,0.1686,0.1908,0.0,0.2354,0.2313,0.0,0.0,0.0,0.2165,0.192,0.1905,0.0,0.0,0.1596,0.1593,0.1615,0.1617,0.1617,0.1617,0.1617,0.1602,0.1621,0.1519,0.1473,0.139,0.1412,0.1397,0.1388,0.1337,0.131,0.1301,0.131,0.1296,0.1296,0.1296,0.1296,0.1298,0.1273,0.1251,0.1213,0.1267,0.1243,0.1197,0.0,0.0,0.0,0.0,0.0,0.0,0.0,0.0,0.0,0.0,0.0,0.0,0.0,0.0,0.0,0.0,0.0,0.0,0.0,0.0,0.0,0.0,0.0,0.0,0.0,0.0,0.0,0.0,0.0,0.0,-0.7108,-0.6773,-0.6639,-0.6635,-0.6563,-0.6542,-0.6593,-0.6156,0.0,0.0,0.0,0.0,0.0,0.0,0.0,0.0,0.0,0.0,0.0,0.0,0.0,-0.114,-0.1167,-0.1273,-0.1533,-0.2462,0.0,-0.28,-0.4155,-0.446,-0.4395,-0.4394,-0.4109,-0.3613,-0.2838,-0.1291,0.0047,0.0304,0.1315,0.0,0.0,0.0,0.0,0.0,0.0,0.0,0.2452,0.2468,0.245,0.0,0.2444,0.0,0.2217,0.2239,0.2158,0.0,0.1767,0.1598,0.1615,0.1617,0.1617,0.1617,0.1617,0.1801,0.2305,0.2663,0.2826,0.2767,0.2709,0.2669,0.2641,0.2578,0.2579,0.2554,0.0,0.2171,0.2468,0.2031,0.211,0.2472,0.2505,0.2238,0.1877,0.1902,0.1635,0.1239,0.0,0.0,0.0,0.0,0.0,0.0,0.0,0.0,0.0,0.0,0.0,0.0,0.0,0.0,0.0,0.0,0.0,0.0,0.0,0.0,0.0,0.0,0.0,0.0,0.0,0.0,0.0,0.0,0.0,0.0,0.0,0.0,0.0,0.0,0.0,0.0,0.0,0.0,0.0,0.0,0.0,0.0,0.0,0.0,0.0,0.0,0.0,0.0,0.0,0.0,-0.1172,-0.1241,-0.1306,-0.1406,-0.1658,-0.2301,-0.2504,-0.2667,-0.3534,-0.3638,-0.338,-0.2768,-0.24,-0.2007,-0.1382,-0.019,0.0695,0.0447,0.0,0.0,0.1754,0.0,0.1781,0.1863,0.0,0.2211,0.243,0.2471,0.2517,0.2531,0.2532,0.2545,0.2529,0.2506,0.2519,0.2588,0.2164,0.1925,0.1925,0.1871,0.1919,0.2019,0.2019,0.2446,0.3365,0.417,0.4557,0.4451,0.4371,0.4291,0.4214,0.42,0.4197,0.417,0.3318,0.34,0.3948,0.3135,0.3297,0.4031,0.4042,0.355,0.2891,0.2891,0.237,0.165,0.0,0.0,0.0,0.0,0.0,0.0,0.0,0.0,0.0,0.0,0.0,0.0,0.0,0.0,0.0,0.0,0.0,0.0,0.0,0.0,0.0,0.0,0.0,0.0,0.0,0.0,0.0,0.0,0.0,0.0,0.0,0.0,0.0,0.0,0.0,0.0,0.0,0.0,0.0,0.0,0.0,0.0,0.0,0.0,0.0,0.0,0.0,0.0,0.0,0.0,-0.1232,-0.1297,-0.1423,-0.1516,-0.1706,-0.2401,-0.2273,-0.2187,-0.3439,-0.2885,-0.2019,-0.2475,-0.1612,-0.0486,0.015,0.0714,0.0,0.0,0.0,0.1878,0.1667,0.1787,0.0,0.2171,0.0,0.0,0.0,0.0,0.3043,0.0,0.0,0.0,0.0,0.0,0.0,0.0,0.0,0.3657,0.3657,0.3404,0.3575,0.4225,0.4225,0.4305,0.4347,0.4522,0.4524,0.4312,0.4295,0.4279,0.4263,0.4231,0.4187,0.4171,0.4014,0.0,0.417,0.4004,0.4004,0.4176,0.4164,0.4065,0.392,0.3835,0.3658,0.3523,0.0,0.0,0.0,0.0,0.0,0.0,0.0,0.0,0.0,0.0,0.0,0.0,0.0,0.0,0.0,0.0,0.0,0.0,0.0,0.0,0.0,0.0,0.0,0.0,0.0,0.0,0.0,0.0,0.0,0.0,0.0,0.0,0.0,0.0,0.0,0.0,0.0,0.0,0.0,0.0,0.0,0.0,0.0,0.0,0.0,0.0,0.0,0.0,0.0,0.0,-0.1189,-0.1263,-0.1456,-0.1577,-0.172,-0.2014,-0.1978,-0.1828,-0.1989,-0.1556,-0.0908,-0.0236,0.0333,0.0918,0.1558,0.0,0.0,0.0,0.0,0.183,0.1717,0.0,0.0,0.0,0.0,0.0,0.0,0.0,0.0,0.0,0.0,0.0,0.0,0.0,0.0,0.0,0.0,0.4335,0.4079,0.4448,0.4826,0.5225,0.5772,0.6023,0.5963,0.6233,0.6345,0.6219,0.5908,0.5847,0.5983,0.592,0.5979,0.6104,0.548,0.0,0.5752,0.5156,0.5159,0.5591,0.5604,0.5333,0.4982,0.4838,0.4502,0.4148,0.0,0.0,0.0,0.0,0.0,0.0,0.0,0.0,-0.4987,-0.54,-0.5577,-0.5759,-0.6072,-0.6044,0.0,0.0,0.0,0.0,0.0,0.0,0.0,0.0,0.0,0.0,0.0,0.0,0.0,0.0,0.0,0.0,0.0,0.0,0.0,0.0,0.0,0.0,0.0,0.0,0.0,0.0,0.0,0.0,0.0,0.0,0.0,0.0,0.0,0.0,0.0,0.0,-0.1118,-0.1214,-0.1393,-0.1452,-0.1406,-0.1406,-0.1359,-0.1085,-0.0348,-0.0059,0.0357,0.1842,0.2084,0.2122,0.2523,0.2397,0.0,0.0,0.1797,0.1797,0.1797,0.0,0.0,0.0,0.0,0.0,0.0,0.0,0.0,0.0,0.0,0.0,0.0,0.0,0.0,0.0,0.0,0.0,0.4774,0.5774,0.6323,0.6271,0.712,0.7508,0.748,0.7866,0.8045,0.8009,0.7496,0.7367,0.7595,0.7595,0.7698,0.7904,0.6928,0.0,0.0,0.6412,0.6445,0.7106,0.7106,0.6691,0.6083,0.5949,0.5484,0.4871,0.0,0.0,0.0,0.0,0.0,0.0,0.0,0.0,-0.4452,-0.4671,-0.4564,-0.4638,-0.5088,-0.5644,0.0,0.0,0.0,0.0,0.0,0.0,0.0,0.0,0.0,0.0,0.0,0.0,0.0,0.0,0.0,0.0,0.0,0.0,0.0,0.0,0.0,0.0,0.0,0.0,0.0,0.0,0.0,0.0,0.0,0.0,0.0,0.0,0.0,0.0,0.0,0.0,0.0,-0.1135,-0.1213,-0.0891,-0.053,-0.0434,0.0,0.0,0.0673,0.1325,0.2047,0.2094,0.2547,0.2891,0.2672,0.0,0.0,0.0,0.1797,0.1797,0.1797,0.1807,0.1888,0.0,0.0,0.0,0.0,0.0,0.0,0.0,0.0,0.0,0.0,0.0,0.0,0.0,0.0,0.0,0.7279,0.828,0.8779,0.8524,0.8623,0.8607,0.8467,0.8335,0.8219,0.8079,0.7897,0.7856,0.7856,0.7856,0.7938,0.8076,0.783,0.0,0.0,0.776,0.7742,0.779,0.779,0.765,0.741,0.7257,0.7052,0.6788,0.0,0.0,0.0,0.0,0.0,0.0,0.0,0.0,-0.3954,-0.4144,-0.4287,-0.4451,-0.4741,-0.4926,0.0,0.0,0.0,0.0,0.0,0.0,0.0,0.0,0.0,0.0,0.0,0.0,0.0,0.0,0.0,0.0,0.0,0.0,0.0,0.0,0.0,0.0,0.0,0.0,0.0,0.0,0.0,0.0,0.0,0.0,0.0,0.0,0.0,0.0,0.0,0.0,0.0,0.0,-0.0595,-0.0035,0.0,0.0,0.0096,0.0674,0.1417,0.191,0.2267,0.2742,0.2883,0.2864,0.2552,0.0,0.0,0.1827,0.1797,0.1797,0.1797,0.1797,0.1852,0.0,0.0,0.0,0.0,0.0,0.0,0.0,0.0,0.0,0.0,0.0,0.0,0.0,0.0,0.0,0.8829,0.9229,0.9381,0.9278,0.9221,0.9186,0.918,0.8756,0.859,0.8628,0.8223,0.8095,0.8271,0.8271,0.83,0.8407,0.8304,0.0,0.0,0.797,0.79,0.79,0.79,0.7795,0.758,0.7469,0.7345,0.7232,0.0,0.0,0.0,0.0,0.0,0.0,-0.289,-0.3173,-0.3427,-0.353,-0.3744,-0.3947,-0.4088,-0.4111,-0.4268,-0.4699,0.0,0.0,0.0,0.0,0.0,0.0,0.0,0.0,0.0,0.0,0.0,0.0,0.0,0.0,0.0,0.0,0.0,0.0,0.0,0.0,0.0,0.0,0.0,0.0,0.0,0.0,0.0,0.0,0.0,0.0,0.0,0.0,0.0,0.0,0.0,0.0,0.0,0.0,0.0,0.0,0.0656,0.1296,0.2192,0.244,0.2588,0.3178,0.3015,0.267,0.0,0.0,0.1947,0.1817,0.1797,0.1797,0.1797,0.1797,0.183,0.0,0.0,0.0,0.0,0.0,0.0,0.0,0.0,0.0,0.0,0.0,0.0,0.0,0.0,0.0,0.9579,0.9579,0.9579,0.9579,0.9449,0.9441,0.9575,0.9076,0.8871,0.9041,0.8559,0.8393,0.8526,0.8578,0.8624,0.8649,0.8591,0.0,0.0,0.8184,0.812,0.8116,0.8019,0.7892,0.772,0.7559,0.744,0.7289,0.0,0.0,0.0,0.0,0.0,0.0,0.0,0.0,-0.2868,-0.2732,-0.2709,-0.2779,-0.2915,-0.3223,-0.361,-0.4074,0.0,0.0,0.0,0.0,0.0,0.0,0.0,0.0,0.0,0.0,0.0,-0.3217,-0.3404,0.0,0.0,0.0,0.0,0.0,0.0,0.0,0.0,0.0,0.0,0.0,0.0,0.0,0.0,0.0,0.0,0.0,0.0,0.0,0.0,0.0,0.0,0.0,0.0,0.0,0.0,0.0,0.2111,0.2801,0.2864,0.3053,0.3154,0.3131,0.287,0.2556,0.0,0.0,0.1894,0.1809,0.1797,0.1797,0.1797,0.1797,0.1816,0.1903,0.0,0.0,0.0,0.0,0.0,0.0,0.0,0.0,0.0,0.0,0.0,0.0,0.0,0.0,0.9579,0.9579,0.9579,0.9579,0.9449,0.9441,0.9575,0.9275,0.9096,0.9096,0.8909,0.8731,0.862,0.8743,0.8775,0.882,0.0,0.0,0.0,0.8637,0.8612,0.8596,0.8365,0.8178,0.7996,0.7825,0.7537,0.7167,0.0,0.0,0.0,0.0,0.0,0.0,0.0,0.0,-0.2527,-0.2431,-0.2352,-0.2306,-0.2353,-0.2526,-0.2784,-0.3117,0.0,0.0,0.0,0.0,0.0,0.0,0.0,0.0,0.0,0.0,-0.3546,-0.3546,-0.3148,-0.2945,-0.2945,0.0,0.0,0.0,0.0,0.0,0.0,0.0,0.0,0.0,0.0,0.0,0.0,0.0,0.0,0.0,0.0,0.0,0.0,0.0,0.0,0.0,0.0,0.0,0.0,0.0,0.0,0.0,0.2587,0.2711,0.2781,0.27,0.2518,0.2284,0.2181,0.2042,0.1894,0.1809,0.1797,0.1797,0.1797,0.1797,0.183,0.1958,0.199,0.0,0.0,0.0,0.0,0.0,0.0,0.0,0.0,0.0,0.0,0.0,0.0,0.0,0.9579,0.9579,0.9579,0.9579,0.9336,0.9324,0.9575,0.9275,0.9222,0.9458,0.9153,0.9043,0.9147,0.8909,0.882,0.0,0.0,0.0,0.0,0.8637,0.8535,0.8369,0.8312,0.8105,0.789,0.791,0.7634,0.7179,0.0,0.0,0.0,0.0,0.0,0.0,0.0,0.0,-0.2345,-0.2307,-0.213,-0.2061,-0.2133,-0.2239,-0.2393,-0.2595,0.0,0.0,0.0,0.0,0.0,0.0,0.0,0.0,0.0,-0.3192,-0.3126,-0.3126,-0.2709,-0.2509,-0.2509,-0.2288,-0.2201,0.0,0.0,0.0,0.0,0.0,0.0,0.0,0.0,0.0,-0.0238,0.0,0.0,0.0,0.0,0.0,0.0,0.0,0.0,0.0,0.0,0.0,0.0,0.0,0.1911,0.0,0.0,0.242,0.2486,0.2387,0.2256,0.0,0.0,0.1966,0.1839,0.1804,0.1797,0.1797,0.1797,0.1797,0.1822,0.1923,0.1973,0.0,0.0,0.0,0.0,0.0,0.0,0.0,0.0,0.0,0.0,0.0,0.0,0.0,0.9579,0.9579,0.9596,0.9527,0.9311,0.9271,0.9425,0.9271,0.9271,0.9425,0.9202,0.9153,0.9294,0.8954,0.882,0.0,0.0,0.0,0.0,0.8612,0.8543,0.8381,0.8239,0.8093,0.8,0.7931,0.7622,0.7187,0.0,0.0,0.0,0.0,0.0,0.0,0.0,0.0,0.0,0.0,0.0,-0.1952,-0.214,-0.2248,0.0,0.0,0.0,0.0,0.0,0.0,0.0,0.0,0.0,0.0,0.0,-0.24,-0.2243,-0.2243,-0.2205,-0.2209,-0.2209,-0.2215,-0.2215,-0.2209,-0.2209,-0.2182,-0.2109,-0.1861,-0.1411,-0.0805,-0.0537,0.0137,0.0,0.0,0.0,0.0,0.0,0.0,0.0,0.0,0.0,0.0,0.0,0.0,0.0,0.0,0.0,0.0,0.0,0.0,0.0,0.0,0.0,0.0,0.0,0.1876,0.0,0.1797,0.1797,0.1798,0.1802,0.18,0.1829,0.187,0.1997,0.0,0.0,0.0,0.0,0.0,0.0,0.0,0.0,0.0,0.0,0.0,0.0,0.0,0.9579,0.9616,0.9522,0.9388,0.9384,0.9306,0.91,0.9302,0.931,0.9116,0.9104,0.9104,0.9108,0.8897,0.8808,0.0,0.0,0.0,0.0,0.8584,0.8571,0.8535,0.8146,0.8101,0.8199,0.7947,0.7545,0.7171,0.0,0.0,0.0,0.0,0.0,0.0,0.0,0.0,0.0,0.0,0.0,-0.1708,-0.1808,-0.2069,0.0,0.0,0.0,0.0,0.0,0.0,0.0,0.0,0.0,0.0,0.0,-0.2751,-0.2576,-0.2576,-0.238,-0.2275,-0.2275,-0.2323,-0.2319,-0.2275,-0.2275,-0.1983,-0.15,-0.1433,-0.094,-0.0179,0.0134,0.054,0.0,0.0,0.0,0.0,0.1522,0.156,0.0,0.0,0.0,0.0,0.0,0.0,0.0,0.0,0.1776,0.194,0.1821,0.0,0.192,0.1906,0.0,0.0,0.0,0.0,0.1797,0.0,0.0,0.0,0.0,0.1826,0.2014,0.2685,0.0,0.0,0.0,0.0,0.0,0.0,0.0,0.0,0.0,0.0,0.0,0.0,0.0,0.9579,0.9579,0.9494,0.934,0.9165,0.9157,0.9137,0.9096,0.9137,0.9206,0.9339,0.9161,0.9165,0.9326,0.8877,0.8698,0.0,0.0,0.0,0.8592,0.826,0.8142,0.8134,0.8048,0.7874,0.7711,0.8044,0.7718,0.7094,0.0,0.0,0.0,0.0,0.0,0.0,0.0,0.0,0.0,0.0,0.0,0.0,0.0,0.0,0.0,0.0,0.0,0.0,0.0,0.0,0.0,0.0,0.0,0.0,-0.2729,-0.2553,-0.2467,-0.2467,-0.2356,-0.2304,-0.2306,-0.2374,-0.2368,-0.2278,-0.1982,-0.1646,-0.1277,-0.0873,-0.0336,0.0246,0.0559,0.0,0.0,0.0,0.0,0.0,0.1459,0.1498,0.0,0.1549,0.1667,0.1792,0.0,0.0,0.0,0.0,0.1915,0.2128,0.2041,0.1895,0.1762,0.179,0.1797,0.1797,0.0,0.0,0.0,0.0,0.0,0.0,0.0,0.0,0.0,0.0,0.0,0.0,0.0,0.0,0.0,0.0,0.0,0.0,0.0,0.0,0.0,0.0,0.0,0.9466,0.9388,0.9291,0.9157,0.8974,0.897,0.8934,0.8857,0.9015,0.91,0.9108,0.9015,0.9064,0.9269,0.8816,0.8662,0.0,0.0,0.0,0.8596,0.8349,0.8268,0.8251,0.8081,0.8,0.8037,0.8117,0.7752,0.7261,0.0,0.0,0.0,0.0,0.0,0.0,0.0,0.0,0.0,0.0,0.0,0.0,0.0,0.0,0.0,0.0,0.0,0.0,0.0,0.0,0.0,0.0,0.0,-0.2184,-0.2201,-0.2201,-0.2201,-0.2201,-0.2277,-0.2327,-0.2329,-0.2395,-0.2333,-0.2135,-0.155,-0.1208,-0.0985,-0.0246,0.0291,0.0649,0.0895,0.0,0.0,0.0,0.0,0.0,0.0,0.0,0.0,0.1511,0.1545,0.1612,0.1587,0.0,0.0,0.0,0.0,0.0,0.2384,0.2115,0.1815,0.1918,0.1908,0.188,0.0,0.0,0.0,0.0,0.0,0.0,0.0,0.0,0.0,0.0,0.0,0.0,0.0,0.0,0.0,0.0,0.0,0.0,0.0,0.0,0.0,0.0,0.0,0.9326,0.9151,0.9072,0.8982,0.8869,0.8796,0.8714,0.8612,0.8893,0.8978,0.8865,0.8865,0.8935,0.9049,0.8763,0.8645,0.8731,0.0,0.0,0.8608,0.8551,0.8543,0.8578,0.822,0.8316,0.8581,0.8246,0.7873,0.7546,0.0,0.0,0.0,0.0,0.0,0.0,0.0,0.0,0.0,0.0,0.0,0.0,0.0,0.0,0.0,0.0,0.0,0.0,0.0,0.0,0.0,0.0,-0.184,-0.2074,-0.2199,-0.2201,-0.2201,-0.2201,-0.2317,-0.2397,-0.2399,-0.2517,-0.219,-0.152,-0.1368,-0.0738,0.0224,0.0358,0.0738,0.1254,0.1299,0.0,0.0,0.0,0.0,0.0,0.0,0.0,0.0,0.156,0.1567,0.1737,0.1507,0.0,0.0,0.0,0.0,0.0,0.2426,0.2352,0.2324,0.251,0.2354,0.2214,0.2495,0.0,0.0,0.0,0.0,0.0,0.0,0.0,0.0,0.0,0.0,0.0,0.0,0.0,0.0,0.0,0.0,0.0,0.0,0.0,0.0,0.0,0.0,0.937,0.9334,0.9038,0.8939,0.9137,0.8816,0.8637,0.8612,0.8763,0.8939,0.9137,0.9137,0.9069,0.8903,0.8681,0.8512,0.8361,0.0,0.8276,0.8588,0.8227,0.8271,0.8577,0.8518,0.8564,0.87,0.8749,0.8338,0.7666,0.0,0.0,0.0,0.0,0.0,0.0,0.0,0.0,0.0,0.0,0.0,0.0,0.0,0.0,0.0,0.0,0.0,0.0,0.0,0.0,0.0,-0.1128,-0.1211,-0.1543,-0.2176,-0.2246,-0.2085,-0.1761,-0.1927,-0.1848,-0.1536,-0.1556,-0.1503,-0.1378,-0.0638,-0.0022,0.0514,0.085,0.1141,0.1411,0.0,0.0,0.0,0.0,0.0,0.0,0.0,0.0,0.0,0.0,0.2302,0.2368,0.2255,0.0,0.0,0.0,0.0,0.0,0.2694,0.2713,0.2837,0.3343,0.3115,0.2847,0.2989,0.0,0.0,0.0,0.0,0.0,0.0,0.0,0.0,0.0,0.0,0.0,0.0,0.0,0.0,0.0,0.0,0.0,0.0,0.0,0.0,0.0,0.0,0.0,0.9358,0.917,0.9071,0.9052,0.884,0.8755,0.8755,0.9304,0.9406,0.9034,0.906,0.9005,0.888,0.879,0.8704,0.8624,0.0,0.8794,0.8942,0.8764,0.8828,0.8983,0.8875,0.8891,0.8996,0.8616,0.8098,0.7547,0.0,0.0,0.0,0.0,0.0,0.0,0.0,0.0,0.0,0.0,0.0,0.0,0.0,0.0,0.0,0.0,0.0,0.0,0.0,0.0,-0.0621,-0.0692,-0.0623,-0.0985,-0.1837,-0.1921,-0.1733,-0.125,-0.1437,-0.1267,-0.0771,-0.0724,-0.0781,-0.0914,0.0068,0.0582,0.0738,0.1208,0.1411,0.1411,0.0,0.0,0.0,0.0,0.0,0.0,0.0,0.0,0.0,0.0,0.0,0.0,0.0,0.0,0.0,0.2821,0.2709,0.2573,0.2921,0.3071,0.3288,0.3869,0.0,0.3429,0.368,0.0,0.0,0.0,0.0,0.0,0.0,0.0,0.0,0.0,0.0,0.0,0.0,0.0,0.0,0.0,0.0,0.0,0.0,0.0,0.0,0.0,0.0,0.0,0.93,0.9235,0.9142,0.8939,0.8846,0.8846,0.8846,0.989,1.0069,0.9384,0.9605,0.9667,0.9667,0.9667,0.962,0.9587,0.9752,0.9899,0.9946,0.9946,0.9918,0.99,0.9733,0.9676,0.9563,0.8831,0.8325,0.7957,0.0,0.0,0.0,0.0,0.0,0.0,0.0,0.0,0.0,0.0,0.0,0.0,0.0,0.0,0.0,0.0,0.0,0.0,0.0,0.0,0.0,-0.0067,-0.0408,-0.0664,-0.0804,-0.0885,-0.0888,-0.0847,-0.0909,-0.0877,-0.0716,-0.0691,-0.0326,0.0359,0.0448,0.0805,0.1344,0.1389,0.1411,0.1433,0.1876,0.0,0.0,0.0,0.0,0.0,0.0,0.0,0.0,0.0,0.0,0.0,0.0,0.0,0.2551,0.2821,0.2709,0.2573,0.2921,0.3278,0.3589,0.3766,0.0,0.0,0.4834,0.4798,0.0,0.0,0.0,0.0,0.0,0.0,0.0,0.0,0.0,0.0,0.0,0.0,0.0,0.0,0.0,0.0,0.0,0.0,0.0,0.0,0.0,0.0,0.9314,0.907,0.893,0.8987,0.8736,0.8617,0.8617,0.9988,1.0747,1.0852,1.1675,1.197,1.1875,1.1875,1.1739,1.1515,1.1538,1.1637,1.1815,1.1815,1.1764,1.1721,1.1704,1.1324,1.0723,1.0147,0.9742,0.9432,0.0,0.0,0.0,0.0,0.0,0.0,0.0,0.0,0.0,0.0,0.0,0.0,0.0,0.0,0.0,0.0,0.0,0.0,0.0,0.0,0.0464,0.0426,0.0287,0.0198,0.0179,-0.0498,-0.0673,-0.0306,0.0046,0.0094,-0.0119,0.0325,0.0522,0.0514,0.0895,0.1186,0.1411,0.1411,0.1567,0.1856,0.2032,0.2299,0.0,0.0,0.0,0.0,0.0,0.0,0.0,0.0,0.3763,0.3763,0.0,0.0,0.3233,0.3461,0.3303,0.3109,0.3369,0.3698,0.4082,0.4494,0.0,0.0,0.0,0.0,0.0,0.0,0.0,0.0,0.0,0.0,0.0,0.0,0.0,0.0,0.0,0.0,0.0,0.0,0.0,0.0,0.0,0.0,0.0,0.0,0.0,0.0,0.9303,0.9193,0.9101,0.8987,0.8903,0.8858,0.8858,1.0662,1.1479,1.1266,1.2029,1.2218,1.1972,1.2175,1.1896,1.1259,1.1987,1.2147,1.1846,1.2247,1.2176,1.1728,1.1365,1.0865,1.0367,1.0172,0.9868,0.9521,0.0,0.0,0.0,0.0,0.0,0.0,0.0,0.0,0.0,0.0,0.0,0.0,0.0,0.0,0.0,0.0,0.0,0.0,0.0,0.0697,0.0697,0.0697,0.0697,0.0697,0.0697,-0.0023,-0.0183,0.0219,0.0678,0.0761,0.049,0.1043,0.1119,0.0805,0.1208,0.1478,0.1611,0.1611,0.1901,0.2366,0.2521,0.2788,0.0,0.0,0.0,0.0,0.0,0.0,0.0,0.0,0.4294,0.0,0.0,0.0,0.0,0.0,0.3653,0.3448,0.3653,0.398,0.438,0.0,0.0,0.0,0.0,0.0,0.0,0.0,0.0,0.0,0.0,0.0,0.0,0.0,0.0,0.0,0.0,0.0,0.0,0.0,0.0,0.0,0.0,0.0,0.0,0.0,0.0,0.0,0.0,0.9188,0.9213,0.9282,0.9272,0.9388,0.9655,1.1319,1.206,1.1851,1.2547,1.2744,1.2402,1.2861,1.2621,1.1947,1.2851,1.3012,1.2611,1.3069,1.2954,1.2336,1.1525,1.1108,1.0997,1.0695,1.0442,1.0277,0.0,0.0,0.0,0.0,0.0,0.0,0.0,0.0,0.0,0.0,0.0,0.0,0.0,0.0,0.0,0.0,0.0,0.0,0.0697,0.0697,0.0697,0.0697,0.0697,0.0697,0.0697,0.0697,0.0705,0.0695,0.0843,0.0968,0.1097,0.1232,0.1344,0.1411,0.1411,0.1678,0.2099,0.2099,0.241,0.2943,0.3407,0.3609,0.3653,0.0,0.0,0.0,0.0,0.0,0.0,0.0,0.4294,0.4294,0.0,0.0,0.0,0.0,0.3675,0.3448,0.3653,0.4056,0.0,0.0,0.0,0.0,0.0,0.0,0.0,0.0,0.0,0.0,0.0,0.0,0.0,0.0,0.0,0.0,0.0,0.0,0.0,0.0,0.0,0.0,0.0,0.0,0.0,0.0,0.0,0.0,0.0,0.902,0.9272,0.9889,0.9922,1.0293,1.1074,1.1892,1.2489,1.2815,1.3627,1.3814,1.3521,1.421,1.4328,1.4027,1.4364,1.4504,1.4496,1.4496,1.4306,1.385,1.2548,1.2397,1.2884,1.1951,1.1765,1.1952,0.0,0.0,0.0,0.0,0.0,0.0,0.0,0.0,0.0,0.0,0.0,0.0,0.0,0.0,0.0,0.0,0.0,0.0,0.0,0.0697,0.0697,0.0697,0.0697,0.0697,0.0697,0.0787,0.0849,0.0839,0.0883,0.101,0.1254,0.1321,0.1566,0.1899,0.1899,0.2188,0.2655,0.2655,0.2943,0.3407,0.3542,0.3807,0.4118,0.0,0.0,0.0,0.0,0.0,0.0,0.0,0.0,0.0,0.0,0.0,0.0,0.4188,0.4272,0.4377,0.4334,0.4779,0.0,0.0,0.0,0.0,0.0,0.0,0.0,0.0,0.0,0.0,0.0,0.0,0.0,0.0,0.0,0.0,0.0,0.0,0.0,0.0,0.0,0.0,0.0,0.0,0.0,0.0,0.0,0.0,0.0,0.918,0.9553,0.9879,1.0443,1.085,1.1111,1.213,1.2452,1.2124,1.3155,1.3711,1.385,1.4313,1.4078,1.3338,1.4166,1.4247,1.3784,1.3784,1.3726,1.3558,1.2674,1.2324,1.2259,1.1967,1.1816,1.1716,0.0,0.0,0.0,0.0,0.0,0.0,0.0,0.0,0.0,0.0,0.0,0.0,0.0,0.0,0.0,0.0,0.0,0.0,0.0,0.0,0.0831,0.0787,0.0787,0.0876,0.1055,0.1109,0.1299,0.1612,0.1243,0.1142,0.1299,0.1566,0.1834,0.2099,0.2322,0.2699,0.3186,0.3186,0.3451,0.3873,0.3873,0.4052,0.4294,0.0,0.0,0.0,0.0,0.0,0.0,0.0,0.0,0.0,0.0,0.0,0.0,0.4412,0.4583,0.4797,0.4808,0.0,0.0,0.0,0.0,0.0,0.0,0.0,0.0,0.0,0.0,0.0,0.0,0.0,0.0,0.0,0.0,0.0,0.0,0.0,0.0,0.0,0.0,0.0,0.0,0.0,0.0,0.0,0.0,0.0,0.0,0.9599,1.002,1.0428,1.0936,1.139,1.187,1.241,1.2601,1.2476,1.305,1.347,1.3792,1.3857,1.3565,1.3045,1.377,1.3857,1.3484,1.336,1.3375,1.3433,1.2775,1.2596,1.2686,1.2428,1.2361,1.237,0.0,0.0,0.0,0.0,0.0,0.0,0.0,0.0,0.0,0.0,0.0,0.0,0.0,0.0,0.0,0.0,0.0,0.0,0.0,0.0,0.1166,0.1061,0.1039,0.1239,0.1658,0.163,0.1975,0.2696,0.1833,0.1416,0.1454,0.1943,0.2188,0.2255,0.2743,0.323,0.3675,0.3675,0.3917,0.4294,0.4294,0.4294,0.4294,0.4294,0.0,0.0,0.0,0.0,0.0,0.0,0.0,0.0,0.4294,0.4386,0.4504,0.4478,0.4631,0.4825,0.0,0.0,0.0,0.0,0.0,0.0,0.0,0.0,0.0,0.0,0.0,0.0,0.0,0.0,0.0,0.0,0.0,0.0,0.0,0.0,0.0,0.0,0.0,0.0,0.0,0.0,0.0,0.0,0.0,0.0,0.0,1.0146,1.0526,1.1279,1.1382,1.1895,1.293,1.2638,1.2819,1.3404,1.3104,1.3119,1.3397,1.3162,1.3053,1.3067,1.3367,1.3492,1.347,1.3148,1.3235,1.3469,1.2846,1.3075,1.3714,1.3107,1.3157,1.3489,0.0,0.0,0.0,0.0,0.0,0.0,0.0,0.0,0.0,0.0,0.0,0.0,0.0,0.0,0.0,0.0,0.0,0.0,0.0,0.0,0.2193,0.2151,0.2152,0.2146,0.2148,0.2346,0.2536,0.2696,0.2392,0.2359,0.2566,0.2677,0.0,0.3274,0.0,0.3719,0.414,0.414,0.4206,0.4294,0.4294,0.4294,0.4294,0.4294,0.4294,0.0,0.0,0.0,0.0,0.0,0.0,0.0,0.4294,0.4386,0.4478,0.4364,0.4491,0.4662,0.0,0.0,0.0,0.0,0.0,0.0,0.0,0.0,0.0,0.0,0.0,0.0,0.0,0.0,0.0,0.0,0.0,0.0,0.0,0.0,0.0,0.0,0.0,0.0,0.0,0.0,0.0,0.0,0.0,0.0,1.0077,1.0543,1.0961,1.13,1.1901,1.2344,1.2594,1.2521,1.2558,1.2696,1.2623,1.2665,1.2745,1.3184,1.3389,1.3397,1.3462,1.3492,1.3506,1.3325,1.342,1.3716,1.3412,1.3414,1.364,1.3496,1.3313,1.3198,0.0,0.0,0.0,0.0,0.0,0.0,0.0,0.0,0.0,0.0,0.0,0.0,0.0,0.0,0.0,0.0,0.0,0.0,0.0,0.0,0.0,0.2696,0.2725,0.2766,0.2832,0.3028,0.3249,0.347,0.3392,0.0,0.0,0.0,0.0,0.3609,0.0,0.4074,0.4294,0.4294,0.4294,0.4294,0.4294,0.4294,0.4294,0.4294,0.4294,0.4294,0.4294,0.0,0.0,0.0,0.0,0.0,0.0,0.0,0.4478,0.4412,0.4491,0.4657,0.0,0.0,0.0,0.0,0.0,0.0,0.0,0.0,0.0,0.0,0.0,0.0,0.0,0.0,0.0,0.0,0.0,0.0,0.0,0.0,0.0,0.0,0.0,0.0,0.0,0.0,0.0,0.0,0.0,0.9717,1.0301,1.0776,1.1104,1.1201,1.1783,1.2065,1.2065,1.2065,1.2065,1.2065,1.2123,1.2188,1.2275,1.2961,1.3265,1.3265,1.3265,1.3336,1.3386,1.3157,1.3287,1.3643,1.354,1.3569,1.3723,1.3893,1.3708,1.3333,0.0,0.0,0.0,0.0,0.0,0.0,0.0,0.0,0.0,0.0,0.0,0.0,0.0,0.0,0.0,0.0,0.0,0.0,0.0,0.0,0.0,0.0,0.3265,0.3394,0.352,0.3677,0.3924,0.4294,0.0,0.0,0.0,0.0,0.0,0.3741,0.0,0.4294,0.4294,0.4294,0.432,0.4342,0.432,0.4316,0.436,0.4342,0.4338,0.436,0.436,0.436,0.436,0.436,0.0,0.0,0.0,0.0,0.4504,0.4478,0.4517,0.463,0.0,0.0,0.0,0.0,0.0,0.0,0.0,0.0,0.0,0.0,0.0,0.0,0.0,0.0,0.0,0.0,0.0,0.0,0.0,0.0,0.0,0.0,0.0,0.0,0.0,0.0,0.0,0.0,0.0,0.9957,1.058,1.0872,1.1019,1.1019,1.1314,1.1453,1.1453,1.1484,1.1491,1.1491,1.1607,1.1759,1.1935,1.2472,1.277,1.2829,1.2888,1.3014,1.3129,1.2766,1.2938,1.3477,1.3389,1.3546,1.389,1.4159,1.4021,1.3664,0.0,0.0,0.0,0.0,0.0,0.0,0.0,0.0,0.0,0.0,0.0,0.0,0.0,0.0,0.0,0.0,0.0,0.0,0.4241,0.0,0.0,0.4201,0.4488,0.4456,0.4005,0.4248,0.4366,0.4294,0.0,0.0,0.0,0.0,0.0,0.4206,0.0,0.0,0.4294,0.4294,0.4364,0.4456,0.4342,0.4403,0.4552,0.4499,0.4517,0.4552,0.4552,0.4552,0.4552,0.4552,0.4552,0.0,0.0,0.0,0.4478,0.4364,0.4338,0.0,0.0,0.0,0.0,0.0,0.0,0.0,0.0,0.0,0.0,0.0,0.0,0.0,0.0,0.0,0.0,0.0,0.0,0.0,0.0,0.0,0.0,0.0,0.0,0.0,0.0,0.0,0.0,0.0,0.9777,1.0204,1.0572,1.0631,1.0682,1.0682,1.0805,1.0914,1.0914,1.1015,1.108,1.108,1.1109,1.1268,1.1586,1.1654,1.1866,1.2138,1.2432,1.2593,1.2573,1.2066,1.2421,1.3282,1.2877,1.3257,1.4042,1.3781,1.3854,1.3997,0.0,0.0,0.0,0.0,0.0,0.0,0.0,0.0,0.0,0.0,0.0,0.0,0.0,0.0,0.0,0.4051,0.4643,0.5083,0.5278,0.5019,0.4822,0.4795,0.4943,0.4798,0.4328,0.4438,0.4432,0.0,0.0,0.0,0.0,0.4294,0.4351,0.0,0.0,0.0,0.0,0.0,0.4342,0.4386,0.432,0.4644,0.5131,0.0,0.0,0.0,0.0,0.0,0.0,0.0,0.5144,0.494,0.4609,0.0,0.0,0.0,0.0,0.0,0.0,0.0,0.0,0.0,0.0,0.0,0.0,0.0,0.0,0.0,0.0,0.0,0.0,0.0,0.0,0.0,0.0,0.0,0.0,0.0,0.0,0.0,0.0,0.0,0.0,0.0,0.0,0.0,0.9693,0.9892,1.0038,1.0214,1.0344,1.0442,1.0662,1.0754,1.0629,1.0692,1.0684,1.0609,1.0609,1.0713,1.095,1.1117,1.1403,1.173,1.1882,1.1966,1.2005,1.1654,1.1914,1.2562,1.2347,1.2536,1.2965,1.3219,1.3155,1.2973,0.0,0.0,0.0,0.0,0.0,0.0,0.0,0.0,0.0,0.0,0.0,0.0,0.0,0.0,0.0,0.0,0.5374,0.5685,0.5613,0.5149,0.4914,0.5007,0.5082,0.4914,0.4509,0.4614,0.0,0.0,0.0,0.0,0.4541,0.4588,0.4619,0.0,0.4542,0.0,0.0,0.0,0.0,0.0,0.0,0.0,0.0,0.0,0.0,0.0,0.0,0.0,0.0,0.0,0.0,0.0,0.0,0.0,0.0,0.0,0.0,0.0,0.0,0.0,0.0,0.0,0.0,0.0,0.0,0.0,0.0,0.0,0.0,0.0,0.0,0.0,0.0,0.0,0.0,0.0,0.0,0.0,0.0,0.0,0.0,0.0,0.0,0.0,0.0,0.0,0.9588,0.9588,0.9588,0.9848,1.0014,1.011,1.0442,1.0532,1.0379,1.0459,1.0514,1.0539,1.0539,1.0667,1.0905,1.1151,1.1383,1.161,1.1453,1.1418,1.1524,1.1364,1.1531,1.1905,1.2069,1.2084,1.2097,1.2818,1.2783,1.2451,0.0,0.0,0.0,0.0,0.0,0.0,0.0,0.0,0.0,0.0,0.0,0.0,0.0,0.5048,0.5306,0.5624,0.5668,0.5472,0.489,0.5,0.4991,0.4824,0.4987,0.0,0.4509,0.4935,0.0,0.0,0.0,0.0,0.5153,0.5338,0.5318,0.5065,0.4674,0.4614,0.4788,0.0,0.0,0.0,0.0,0.0,0.0,0.0,0.0,0.0,0.0,0.0,0.0,0.0,0.0,0.0,0.0,0.0,0.0,0.0,0.0,0.0,0.0,0.0,0.0,0.0,0.0,0.0,0.0,0.0,0.0,0.0,0.0,0.0,0.0,0.0,0.0,0.0,0.0,0.0,0.0,0.0,0.0,0.0,0.0,0.0,0.0,0.0,0.0,0.0,0.9588,0.9588,0.9588,0.9629,0.9636,0.9636,0.9907,1.0044,1.0022,1.034,1.0734,1.1251,1.1251,1.1494,1.1934,1.1952,1.1954,1.1942,1.129,1.1023,1.1045,1.1232,1.1386,1.16,1.2298,1.2331,1.2097,1.283,1.3239,1.3374,0.0,0.0,0.0,0.0,0.0,0.0,0.0,0.0,0.0,0.0,0.0,0.0,0.0,0.5276,0.5427,0.5802,0.6017,0.6175,0.6266,0.5871,0.5644,0.5697,0.5649,0.5553,0.5398,0.5483,0.0,0.0,0.0,0.5225,0.519,0.4959,0.514,0.5613,0.5285,0.5079,0.4992,0.5099,0.0,0.0,0.0,0.0,0.0,0.0,0.0,0.0,0.0,0.0,0.0,0.0,0.0,0.0,0.0,0.0,0.0,0.0,0.0,0.0,0.0,0.0,0.0,0.0,0.0,0.0,0.0,0.0,0.0,0.0,0.0,0.0,0.0,0.0,0.0,0.0,0.0,0.0,0.0,0.0,0.0,0.0,0.0,0.0,0.0,0.0,0.0,0.0,0.0,0.9588,0.9588,0.9588,0.9647,0.9732,0.9895,1.0102,1.0308,1.0445,1.0769,1.1301,1.1301,1.1544,1.2008,1.2008,1.2008,1.1993,1.176,1.1644,1.166,1.1722,1.1778,1.1843,1.2121,1.2135,1.2052,1.2581,1.2833,1.295,0.0,0.0,0.0,0.0,0.0,0.0,0.0,0.0,0.0,0.0,0.0,0.0,0.0,0.0,0.577,0.6263,0.6433,0.66,0.6742,0.6256,0.6055,0.6234,0.6117,0.6036,0.6036,0.604,0.0,0.0,0.0,0.0,0.0,0.5512,0.5668,0.6201,0.5952,0.5691,0.0,0.0,0.0,0.6042,0.0,0.0,0.8145,0.0,0.0,0.0,0.0,0.0,0.0,0.0,0.0,0.0,0.0,0.0,0.0,0.0,0.0,0.0,0.0,0.0,0.0,0.0,0.0,0.0,0.0,0.0,0.0,0.0,0.0,0.0,0.0,0.0,0.0,0.0,0.0,0.0,0.0,0.0,0.0,0.0,0.0,0.0,0.0,0.0,0.0,0.0,0.0,0.0,0.9588,0.9588,0.9673,0.9851,1.0025,1.0308,1.0769,1.0769,1.1116,1.1801,1.1801,1.2049,1.254,1.254,1.254,1.254,1.254,1.232,1.1999,1.2197,1.2172,1.2033,1.2393,1.232,1.2085,1.2695,1.2909,1.2962,0.0,0.0,0.0,0.0,0.0,0.0,0.0,0.0,0.0,0.0,0.0,0.0,0.0,0.0,0.0,0.7044,0.6945,0.6622,0.6151,0.6129,0.618,0.6322,0.6327,0.6327,0.6327,0.6585,0.0,0.0,0.0,0.0,0.0,0.0,0.6973,0.6799,0.6624,0.6425,0.6293,0.0,0.6991,0.6406,0.0,0.8392,0.7936,0.0,0.0,0.0,0.8714,0.873,0.0,0.0,0.0,0.0,0.0,0.0,0.0,0.0,0.0,0.0,0.0,0.0,0.0,0.0,0.0,0.0,0.0,0.0,0.0,0.0,0.0,0.0,0.0,0.0,0.0,0.0,0.0,0.0,0.0,0.0,0.0,0.0,0.0,0.0,0.0,0.0,0.0,0.0,0.9588,0.9588,0.9588,0.9614,0.9725,0.9999,1.0213,1.065,1.1293,1.1318,1.1825,1.2788,1.2788,1.3088,1.3597,1.3597,1.3597,1.3597,1.3597,1.3001,1.2082,1.2604,1.253,1.2157,1.3204,1.2953,1.2172,1.3228,1.3573,1.3515,0.0,0.0,0.0,0.0,0.0,0.0,0.0,0.0,0.0,0.0,0.0,0.0,0.0,0.0,0.7079,0.717,0.7429,0.7387,0.6922,0.6797,0.6819,0.694,0.6946,0.7004,0.709,0.7159,0.0,0.0,0.0,0.0,0.0,0.0,0.0,0.0,0.7176,0.7127,0.7043,0.6767,0.0,0.0,0.805,0.8495,0.0,0.0,0.0,0.0,0.0,0.9219,0.0,0.0,0.8458,0.826,0.0,0.0,0.0,0.0,0.0,0.0,0.744,0.0,0.0,0.0,0.0,0.0,0.0,0.0,0.0,0.0,0.0,0.0,0.0,0.0,0.0,0.0,0.0,0.0,0.0,0.0,0.0,0.0,0.0,0.0,0.0,0.0,0.0,0.0,0.9588,0.9588,0.9588,0.9706,0.9818,0.9999,1.0531,1.0964,1.1301,1.1644,1.2147,1.2788,1.2788,1.3088,1.3597,1.3597,1.3597,1.3597,1.3597,1.342,1.318,1.3324,1.33,1.3204,1.3467,1.342,1.3204,1.3491,1.3597,1.3559,0.0,0.0,0.0,0.0,0.0,0.0,0.0,0.0,0.0,0.0,0.0,0.0,0.0,0.0,0.7513,0.7484,0.7729,0.7745,0.7356,0.7259,0.7259,0.7405,0.7405,0.744,0.7524,0.7524,0.0,0.0,0.0,0.0,0.0,0.0,0.0,0.0,0.0,0.0,0.0,0.0,0.0,0.0,0.8353,0.0,0.0,0.9453,0.9541,0.0,0.0,0.0,0.9134,0.8664,0.8363,0.0,0.0,0.0,0.0,0.0,0.0,0.0,0.0,0.0,0.0,0.0,0.0,0.0,0.7997,0.8143,0.0,0.0,0.0,0.0,0.0,0.0,0.0,0.0,0.0,0.0,0.0,0.0,0.0,0.0,0.0,0.0,0.0,0.9588,0.9588,0.9588,0.9588,0.9588,0.9588,0.9784,1.0025,1.0326,1.0854,1.1385,1.1925,1.2197,1.2604,1.3136,1.3136,1.329,1.3597,1.3597,1.3597,1.3597,1.3597,1.3597,1.3597,1.3597,1.3597,1.3597,1.3597,1.3597,1.3597,1.3597,1.3597,1.3621,0.0,0.0,0.0,0.0,0.0,0.0,0.0,0.0,0.0,0.0,0.0,0.0,0.0,0.0,0.0,0.0,0.8005,0.7893,0.7624,0.7602,0.7637,0.7728,0.7742,0.7727,0.7691,0.7691,0.0,0.0,0.0,0.0,0.0,0.0,0.0,0.0,0.0,0.0,0.0,0.0,0.0,0.7758,0.8734,0.8972,0.0,0.0,0.9453,0.0,0.9251,0.9229,0.9104,0.8465,0.8253,0.0,0.0,0.0,0.0,0.0,0.7749,0.0,0.0,0.0,0.0,0.0,0.0,0.0,0.7691,0.7691,0.7691,0.0,0.0,0.0,0.0,0.0,0.0,0.0,0.0,0.0,0.0,0.0,0.0,0.0,0.0,0.0,0.9588,0.9588,0.9588,0.9588,0.9666,0.9692,0.9692,0.9991,1.0403,1.088,1.1259,1.19,1.2788,1.2861,1.3146,1.3597,1.3597,1.3597,1.3597,1.3597,1.3597,1.3597,1.3597,1.3597,1.3597,1.3597,1.3597,1.3597,1.3621,1.3621,1.3621,1.3644,1.3644,1.3668,0.0,0.0,0.0,0.0,0.0,0.0,0.0,0.0,0.0,0.0,0.0,0.0,0.0,0.0,0.0,0.0,0.8647,0.8537,0.8311,0.8197,0.8091,0.7946,0.7932,0.786,0.7698,0.7691,0.0,0.0,0.0,0.0,0.0,0.0,0.0,0.0,0.0,0.0,0.0,0.0,0.0,0.8116,0.8601,0.0,0.8758,0.938,0.9577,0.9526,0.9526,0.9372,0.9141,0.0,0.8597,0.8604,0.0,0.0,0.0,0.0,0.0,0.0,0.0,0.0,0.0,0.0,0.0,0.0,0.7691,0.7691,0.7691,0.0,0.0,0.0,0.0,0.0,0.0,0.0,0.0,0.0,0.0,0.0,0.0,0.0,0.0,0.0,0.9588,0.9588,0.9588,0.9588,1.001,1.0241,1.0241,1.0897,1.1326,1.1426,1.2138,1.2594,1.2788,1.3242,1.3491,1.3597,1.3597,1.3597,1.3597,1.3597,1.3597,1.3597,1.3597,1.3597,1.3597,1.3597,1.3597,1.361,1.3716,1.3763,1.3763,1.3868,1.3915,1.3926,0.0,0.0,0.0,0.0,0.0,0.0,0.0,0.0,0.0,0.0,0.0,0.0,0.0,0.0,0.0,0.0,0.0,0.0,0.0,0.0,0.0,0.0,0.0,0.0,0.0,0.0,0.0,0.0,0.0,0.0,0.0,0.0,0.0,0.0,0.0,0.0,0.0,0.0,0.7786,0.8004,0.8487,0.0,0.9002,0.9438,0.9588,0.9588,0.9588,0.9424,0.9192,0.9153,0.9051,0.0,0.0,0.9351,0.9281,0.0,0.8844,0.8761,0.0,0.0,0.0,0.7997,0.0,0.0,0.0,0.7691,0.7691,0.7691,0.0,0.0,0.0,0.0,0.0,0.0,0.0,0.0,0.0,0.0,0.0,0.0,0.0,0.0,0.9394,0.9526,0.9718,0.9984,1.0498,1.0804,1.0804,1.1309,1.1717,1.199,1.2521,1.2943,1.3194,1.3467,1.3597,1.3597,1.3597,1.3597,1.3597,1.3597,1.3597,1.3597,1.3597,1.3597,1.3621,1.3668,1.3692,1.3716,1.3763,1.3844,1.3926,1.3973,1.3997,1.402,0.0,0.0,0.0,0.0,0.0,0.0,0.0,0.0,0.0,0.0,0.0,0.0,0.0,0.0,0.0,0.0,0.0,0.0,0.0,0.0,0.0,0.0,0.0,0.8663,0.0,0.0,0.0,0.0,0.0,0.0,0.0,0.0,0.0,0.0,0.0,0.0,0.0,0.0,0.0,0.7953,0.0,0.887,0.9148,0.9475,0.9588,0.9614,0.9718,0.969,0.9617,0.9834,0.0,0.9537,1.0066,1.0164,0.0,0.0,0.0,0.0,0.0,0.0,0.0,0.0,0.0,0.8245,0.0,0.0,0.0,0.7732,0.0,0.0,0.0,0.0,0.0,0.0,0.0,0.0,0.0,0.0,0.0,0.0,0.0,0.0,0.0,0.9367,0.9736,1.0198,1.0881,1.1288,1.1313,1.1731,1.2163,1.2584,1.2837,1.316,1.3597,1.3597,1.3597,1.3597,1.3597,1.3597,1.3597,1.3597,1.3597,1.3597,1.3597,1.3597,1.361,1.3739,1.3821,1.3844,1.3858,1.3939,1.4033,1.4067,1.4091,1.408,0.6533,0.6639,0.0,0.0,0.0,0.0,0.0,0.0,0.0,0.0,0.0,0.0,0.0,0.0,0.0,0.0,0.0,0.0,1.0216,0.0,0.0,0.0,0.0,0.0,0.7399,0.0,0.0,0.0,0.0,0.0,0.0,0.0,0.0,0.0,0.7691,0.0,0.0,0.0,0.8048,0.0,0.8663,0.873,0.0,0.9394,0.9588,0.9666,1.0138,1.0601,1.0973,0.0,1.0669,1.0365,0.0,1.0746,0.0,0.0,0.0,0.0,0.0,0.0,0.0,0.0,0.8911,0.0,0.0,0.0,0.7732,0.7857,0.0,0.0,0.0,0.0,0.0,0.0,0.0,0.0,0.0,0.0,0.0,0.0,0.0,0.0,0.0,0.9096,0.9416,0.9595,1.0816,1.1616,1.1734,1.2665,1.3218,1.329,1.3433,1.3539,1.3597,1.3597,1.3597,1.3597,1.3597,1.3597,1.3597,1.3597,1.3597,1.3597,1.3597,1.3597,1.361,1.3739,1.3868,1.3997,1.4116,1.4152,1.4186,1.4303,1.435,1.4361,0.0,0.0,0.0,0.0,0.0,0.0,0.0,0.0,0.0,0.0,0.0,0.0,0.0,0.0,0.0,0.0,0.0,0.9925,0.0,0.0,0.0,0.0,0.0,0.0,0.0,0.0,0.0,0.0,0.9058,0.0,0.0,0.0,0.0,0.0,0.7916,0.0,0.8121,0.0,0.0,0.0,0.0,0.0,0.0,0.991,1.0303,1.0669,1.0897,1.1174,1.1434,0.0,1.1233,0.0,0.0,0.0,0.0,0.0,0.0,0.0,0.0,0.0,0.0,0.0,0.0,0.0,0.0,0.0,0.87,0.0,0.0,0.0,0.0,0.0,0.0,0.0,0.0,0.0,0.0,0.0,0.0,0.0,0.0,0.0,0.0,0.0,0.0,0.0,1.126,1.1921,1.2243,1.2745,1.3154,1.3386,1.3539,1.3597,1.3597,1.3597,1.3597,1.3597,1.3597,1.3597,1.3597,1.3597,1.3597,1.3597,1.3597,1.3644,1.3716,1.3868,1.401,1.414,1.4257,1.4326,1.4326,1.4373,1.4396,1.4396,0.0,0.0,0.0,0.0,0.0,0.0,0.0,0.0,0.0,0.0,0.0,0.0,0.9588,0.9718,0.0,0.0,0.0,1.0277,0.0,0.0,1.0101,0.0,0.0,0.0,0.0,0.0,0.0,0.0,0.0,0.0,0.0,0.0,0.0,0.0,0.0,0.8349,0.8488,0.0,0.0,0.9116,0.9779,1.0303,1.0654,1.0672,1.1082,1.1665,1.1665,1.1839,1.2036,1.2036,1.1888,0.0,1.2414,0.0,0.0,0.0,0.0,0.0,1.2036,0.0,0.0,0.0,0.0,0.0,0.0,0.0,0.0,0.0,0.0,0.0,0.0,0.0,0.0,0.0,0.0,0.0,0.0,0.0,0.0,0.0,0.0,0.0,0.0,0.0,0.0,1.0828,1.1532,1.2115,1.2493,1.284,1.3163,1.3457,1.3549,1.3597,1.3597,1.3597,1.3597,1.3597,1.3597,1.3597,1.3597,1.3597,1.3692,1.3823,1.3823,1.3965,1.4222,1.435,1.4455,1.4594,1.472,1.4777,1.4777,1.4651,1.4581,1.4605,0.9384,0.8646,0.0,0.0,0.0,0.0,0.0,0.0,0.0,0.0,0.0,0.0,0.0,0.0,0.0,0.0,0.0,1.2026,1.2026,0.0,1.1354,0.0,0.0,1.0785,0.0,0.0,0.0,0.0,0.0,0.0,0.0,0.0,0.0,0.0,0.0,0.8503,0.8692,0.8912,0.9367,0.9971,1.0124,1.1052,1.2248,0.0,1.1789,1.2365,1.2365,0.0,0.0,1.3146,1.2788,0.0,0.0,0.0,0.0,0.0,0.0,0.0,0.0,0.0,0.0,1.2146,0.0,0.0,0.0,0.0,1.0573,0.0,0.0,0.0,0.0,0.0,0.0,0.0,0.0,0.0,0.0,0.0,0.0,0.0,0.0,0.0,0.0,0.0,0.0,1.0127,1.1355,1.2157,1.2307,1.3113,1.3576,1.3586,1.3597,1.3597,1.3597,1.3597,1.3597,1.3597,1.3597,1.3597,1.3597,1.3597,1.3871,1.4373,1.4373,1.4709,1.5266,1.5321,1.5421,1.5565,1.5688,1.5766,1.57,1.5255,1.5085,1.5153,0.0,0.0,0.0,0.0,0.0,0.0,0.0,0.9562,0.0,0.0,0.0,0.0,0.0,0.0,1.1352,0.0,0.0,1.1526,1.1633,1.1225,0.0,0.0,0.0,1.0797,0.0,0.0,0.0,0.0,0.0,0.0,0.0,0.0,0.0,0.0,0.0,0.9205,0.0,0.0,0.0,0.0,0.0,1.2218,1.304,0.0,0.0,1.3064,1.3064,1.3242,0.0,1.3467,1.329,1.3112,1.3386,1.329,1.3112,1.3396,1.3467,0.0,0.0,0.0,1.3355,1.2908,0.0,0.0,0.0,0.0,0.0,0.0,0.0,0.0,0.0,0.0,0.0,0.0,0.0,0.0,0.0,0.0,0.0,0.0,0.0,0.0,0.0,0.0,0.0,1.0592,1.1419,1.2129,1.2679,1.2967,1.3276,1.3576,1.3597,1.3597,1.3597,1.3597,1.3787,1.414,1.414,1.4292,1.4593,1.4593,1.4731,1.5006,1.5006,1.5186,1.5511,1.5533,1.5622,1.5732,1.5788,1.581,1.5788,1.5611,1.5557,1.5601,1.1252,0.0,0.0,0.0,0.0,0.0,0.0,0.0,0.0,0.0,1.1274,0.0,1.185,0.0,1.1841,0.0,1.1735,1.19,1.199,1.1617,0.0,1.2144,1.1683,0.0,0.0,0.0,0.0,0.0,0.0,1.1527,0.0,0.0,0.0,0.0,0.0,0.0,0.0,0.0,1.1191,0.0,0.0,1.304,0.0,0.0,1.3528,1.3467,0.0,1.3515,1.3597,1.3597,1.3539,1.3491,1.3563,1.3539,1.3491,1.3563,1.3597,1.3586,1.3491,1.3539,0.0,1.3396,1.3242,0.0,1.3301,0.0,0.0,0.0,0.0,0.0,0.0,0.0,0.0,0.0,0.0,0.0,0.0,1.0345,0.0,0.0,0.0,0.0,0.0,0.0,1.0241,1.0386,1.1385,1.2244,0.0,0.0,1.3287,1.3576,1.3597,1.3597,1.3597,1.3787,1.4069,1.4396,1.4558,1.4811,1.5108,1.5108,1.5255,1.5557,1.5557,1.5766,1.6105,1.6105,1.6182,1.629,1.629,1.629,1.6281,1.6107,1.6139,1.629,0.0,0.0,0.0,0.0,1.1225,0.0,0.0,0.0,1.1718,0.0,1.1629,1.1973,1.1982,1.2095,1.2144,1.215,1.2735,0.0,1.3099,1.3142,0.0,0.0,1.3194,1.3242,1.342,0.0,0.0,0.0,0.0,0.0,0.0,0.0,0.0,0.0,1.0507,0.0,1.0703,1.1241,1.1774,1.2353,1.3098,1.3501,1.3669,1.4138,1.4045,1.3683,1.3638,1.3628,1.3628,1.3597,1.3597,1.3597,1.3597,1.3597,1.3597,1.3597,1.3597,1.3597,1.3597,1.3597,1.3597,1.3597,1.3597,0.0,0.0,0.0,1.3462,0.0,0.0,0.0,0.0,0.0,0.0,0.0,0.0,0.0,0.0,0.0,0.0,0.0,0.0,0.0,0.0,0.9522,1.0425,0.9681,1.127,0.0,0.0,0.0,1.3566,1.3597,1.3597,1.361,1.3644,1.414,1.4419,1.4466,1.4926,1.5153,1.5176,1.5176,1.5501,1.6032,1.6054,1.6402,1.7002,1.7002,1.7094,1.7199,1.7199,1.7199,1.7157,1.6714,1.682,1.7199,1.2715,1.2827,1.2808,0.0,1.176,1.115,0.0,0.0,0.0,0.0,1.268,1.2993,1.3072,1.3119,1.3013,1.2729,1.2929,0.0,0.0,0.0,0.0,1.3467,1.2909,1.2885,1.3539,1.3324,0.0,1.3338,0.0,0.0,1.2486,0.0,0.0,0.0,0.0,0.0,1.1746,1.2121,1.2667,1.3252,1.3467,1.3769,0.0,0.0,1.4449,1.4593,1.4252,1.4128,1.4076,1.3734,1.3597,1.3597,1.3597,1.3597,1.3597,1.3597,1.3597,1.3597,1.3597,1.3597,1.3597,1.3597,1.3597,1.3597,0.0,0.0,0.0,0.0,0.0,0.0,0.0,0.0,0.0,0.0,0.0,0.0,0.0,0.0,0.0,1.1119,0.0,0.0,0.9999,0.8912,0.9135,1.1343,1.1774,0.0,0.0,0.0,0.0,1.3576,1.3597,1.3787,1.4186,1.4326,1.4754,1.5433,1.5557,1.58,1.6141,1.6241,1.6426,1.6684,1.6714,1.6905,1.7157,1.7157,1.7178,1.7199,1.7199,1.7199,1.7199,1.7052,1.7094,1.7199,1.2905,0.0,0.0,1.2905,0.0,0.0,1.1662,0.0,0.0,1.2689,1.3101,0.0,1.3484,1.334,1.316,1.3008,1.3089,0.0,0.0,0.0,0.0,1.3586,1.317,1.3136,1.3586,1.3515,0.0,1.3597,0.0,0.0,1.3194,0.0,0.0,0.0,0.0,1.2351,0.0,1.2773,1.3304,1.3813,1.3886,0.0,0.0,1.4831,1.507,1.5266,1.5007,1.478,1.4573,1.4304,1.4086,1.3921,1.3921,1.3776,1.3597,1.3597,1.3597,1.3597,1.3597,1.3597,1.3597,1.3597,1.3597,1.3597,1.3597,1.3597,1.3668,0.0,1.374,1.3554,0.0,0.0,0.0,0.0,0.0,0.0,0.0,0.0,0.0,0.0,0.0,0.0,1.1582,0.9628,0.9242,1.138,1.1488,0.0,0.0,0.0,0.0,1.4235,1.4269,1.4408,1.4697,1.4915,1.5288,1.581,1.602,1.6272,1.6599,1.6675,1.6782,1.6939,1.6981,1.7073,1.7199,1.7199,1.7199,1.7199,1.7199,1.7199,1.7199,1.7199,1.7199,1.7199,0.0,0.0,0.0,0.0,0.0,0.0,0.0,1.3004,0.0,1.288,0.0,1.3486,1.3437,1.313,1.2978,1.3085,0.0,1.329,1.3386,1.3515,1.3597,1.3597,1.3597,1.3597,1.3597,1.3597,0.0,0.0,0.0,0.0,0.0,0.0,0.0,0.0,0.0,0.0,0.0,1.3288,1.376,1.4128,1.4316,1.4676,1.5132,1.5535,1.5732,1.5773,1.5711,1.5432,1.507,1.4945,1.4645,1.4304,1.4304,1.3983,1.3607,1.3669,1.371,1.3705,1.3705,1.3752,1.38,1.38,1.38,1.38,1.38,1.38,1.3928,1.4396,1.4512,1.4517,0.0,0.0,0.0,0.0,0.0,0.0,0.0,0.0,0.0,0.0,0.0,0.0,1.2638,1.1052,1.0294,0.0,0.0,0.0,0.0,0.0,0.0,1.4971,1.5073,1.5131,1.5187,1.5601,1.5832,1.5898,1.6315,1.6599,1.6697,1.6718,1.6825,1.7002,1.7023,1.7094,1.7199,1.7199,1.7199,1.7199,1.7199,1.7199,1.7199,1.7199,1.7199,1.7199,0.0,0.0,0.0,0.0,0.0,1.3344,1.2842,1.3449,1.3844,1.3417,1.3429,1.3379,1.3027,1.3052,1.3075,1.3109,1.3262,0.0,0.0,0.0,0.0,1.3597,1.3597,1.3597,1.3597,1.3597,1.3597,0.0,0.0,0.0,0.0,0.0,0.0,0.0,0.0,0.0,1.345,1.3951,0.0,1.4285,1.4702,1.5152,1.5577,1.5659,1.5929,1.6236,1.5825,1.5639,1.5452,1.4687,1.4376,1.4304,1.4304,1.3983,1.3669,1.4051,1.4235,1.4257,1.4257,1.4535,1.4834,1.4834,1.4834,1.4834,1.4834,1.4834,1.4846,1.4971,1.5074,1.5152,1.5149,0.0,0.0,0.0,0.0,0.0,0.0,0.0,0.0,0.0,0.0,0.0,0.0,0.0,0.0,0.0,0.0,0.0,0.0,0.0,0.0,0.0,1.4867,0.0,0.0,0.0,1.5986,1.638,1.6577,1.6675,1.6697,1.6854,1.696,1.7002,1.7115,1.7178,1.7199,1.7199,1.7199,1.7199,1.7199,1.7199,1.7199,1.7199,1.7199,1.7199,0.0,0.0,0.0,0.0,0.0,0.0,0.0,1.3956,0.0,1.3372,1.3283,1.3229,1.3075,1.3065,1.3148,1.3248,1.3334,1.342,1.3491,1.3563,1.3597,1.3597,1.3597,0.0,1.3597,1.3597,1.3597,1.3597,0.0,0.0,0.0,0.0,0.0,0.0,0.0,1.3697,0.0,0.0,0.0,1.462,1.5147,1.5484,1.5739,1.5977,1.606,1.6019,1.5773,1.5535,1.5266,1.4821,1.4666,1.4624,1.4386,1.3983,1.3638,1.3865,1.4156,1.4396,1.4396,1.4743,1.5108,1.5108,1.5108,1.5108,1.5108,1.5108,1.5176,1.54,1.5557,1.5668,1.571,1.5535,0.0,0.0,0.0,0.0,0.0,0.0,0.0,0.0,0.0,0.0,0.0,0.0,0.0,0.0,0.0,0.0,0.0,0.0,0.0,0.0,0.0,0.0,1.625,0.0,1.6488,1.6714,1.6769,1.6825,1.6867,1.696,1.7044,1.7115,1.7178,1.7199,1.7199,1.7199,1.7199,1.7199,1.7199,1.7199,1.7199,1.7199,1.7199,1.7199,0.0,1.3655,0.0,0.0,1.4209,0.0,1.4192,1.4321,1.4128,1.3372,1.3183,1.3128,1.3194,1.3176,1.3224,1.3396,1.342,1.3491,1.3586,1.3597,1.3597,1.3597,1.3597,1.3597,1.3597,1.3597,1.3597,0.0,0.0,0.0,0.0,0.0,0.0,0.0,0.0,0.0,0.0,0.0,1.4435,1.4753,1.5322,1.5546,1.5577,1.5977,1.5856,1.5535,1.5432,1.5225,1.4992,1.4898,1.4924,1.4934,1.4568,1.4202,1.3939,1.4034,1.4368,1.4686,1.4686,1.5028,1.5401,1.5401,1.5424,1.5424,1.539,1.5434,1.5568,1.591,1.612,1.625,1.6321,1.63,0.0,0.0,0.0,0.0,0.0,0.0,0.0,0.0,0.0,0.0,0.0,0.0,0.0,0.0,0.0,0.0,0.0,0.0,0.0,0.0,0.0,1.674,1.674,0.0,1.6897,1.6897,1.6897,1.6939,1.7002,1.7044,1.7094,1.7199,1.7199,1.7199,1.7199,1.7199,1.7199,1.7199,1.7199,1.7199,1.7199,1.7199,1.722,1.7253,0.0,0.0,0.0,0.0,0.0,0.0,1.3872,1.4314,1.4525,1.3907,1.3441,1.3194,1.3194,1.329,1.3372,1.3396,1.3515,1.3597,1.3597,1.3597,1.3597,1.3597,1.3597,1.3597,1.3597,1.3597,1.3597,0.0,0.0,0.0,0.0,0.0,0.0,0.0,0.0,0.0,0.0,1.4103,1.4335,1.4392,1.4873,1.5059,1.507,1.5111,1.5101,1.5007,1.4583,1.4676,1.4951,1.4569,1.4703,1.499,1.4947,1.4935,1.5051,1.546,1.5637,1.5678,1.5678,1.5998,1.6358,1.6358,1.647,1.6525,1.6392,1.6565,1.6705,1.6633,1.6769,1.6947,1.706,1.7084,1.6896,0.0,0.0,0.0,0.0,0.0,0.0,0.0,0.0,0.0,0.0,1.4076,0.0,0.0,0.0,0.0,0.0,0.0,0.0,1.601,1.6586,1.6876,1.6876,1.6876,1.6897,1.6897,1.696,1.6981,1.7002,1.7136,1.7199,1.7199,1.7199,1.7199,1.7199,1.7199,1.7199,1.7199,1.7199,1.7199,1.7199,1.7199,1.7274,1.7391,0.0,0.0,0.0,0.0,0.0,0.0,0.0,1.4379,1.4205,1.3791,1.3484,1.3338,1.3433,1.342,1.3433,1.3515,1.3573,1.3597,1.3597,1.3597,1.3597,1.3597,1.3597,1.3597,1.3597,1.3597,1.3597,0.0,0.0,0.0,0.0,0.0,0.0,0.0,0.0,1.3752,1.402,1.4221,1.4304,1.4345,1.4811,1.4831,1.4614,1.4894,1.4831,1.4577,1.469,1.4686,1.4655,1.4784,1.4892,1.5004,1.5053,1.5085,1.5142,1.5314,1.5587,1.581,1.581,1.6129,1.65,1.65,1.6599,1.6675,1.662,1.6782,1.6876,1.6825,1.6918,1.7044,1.7178,1.7199,1.7016,1.648,0.0,0.0,0.0,0.0,0.0,0.0,0.0,0.0,0.0,0.0,0.0,0.0,0.0,0.0,0.0,0.0,0.0,1.6499,0.0,1.696,1.696,1.7044,1.7073,1.7073,1.7115,1.7115,1.7115,1.7178,1.7199,1.7199,1.7199,1.7199,1.7199,1.7199,1.7199,1.7199,1.7199,1.7253,1.7329,1.7329,1.7378,1.7481,1.5901,0.0,1.5232,0.0,1.5409,1.5002,1.4818,1.4553,1.4183,1.3669,1.3515,1.3491,1.3597,1.3515,1.3491,1.3586,1.3597,1.3597,1.3597,1.3597,1.3597,1.3597,1.3597,0.0,1.3597,1.3597,1.3597,1.3597,1.3597,0.0,0.0,0.0,0.0,0.0,1.3765,1.3772,1.4082,1.4082,1.4082,1.4128,1.4459,1.4397,1.4138,1.4469,1.4487,1.4377,1.4707,1.4728,1.4674,1.5142,1.528,1.5239,1.5291,1.539,1.5501,1.5501,1.5746,1.602,1.602,1.6272,1.6543,1.6543,1.6663,1.6782,1.6761,1.6876,1.6981,1.6981,1.7044,1.7094,1.7178,1.7199,1.7081,1.6689,0.0,0.0,0.0,0.0,0.0,0.0,0.0,1.5608,1.5911,0.0,0.0,0.0,0.0,0.0,0.0,0.0,0.0,0.0,0.0,0.0,1.7065,1.7157,1.7199,1.7199,1.7199,1.7199,1.7199,1.7199,1.7199,1.7199,1.7199,1.7199,1.7199,1.7199,1.7199,1.7199,1.7253,1.7329,1.7404,1.7412,1.7481,1.757,1.6142,1.6075,1.6046,1.5904,1.6009,1.5797,1.4936,1.4908,1.4656,1.371,1.3597,1.3597,1.3597,1.3597,1.3597,1.3597,1.3597,1.3597,1.3597,1.3597,1.3597,0.0,0.0,1.3597,1.3597,1.3597,1.3597,1.3597,0.0,0.0,1.3597,0.0,1.3597,1.3597,1.3597,1.3597,1.3597,1.3597,1.3597,1.3597,1.3607,1.3607,1.3597,1.3607,1.3939,1.4407,1.4407,1.4697,1.5164,1.5634,1.58,1.58,1.5788,1.6107,1.6466,1.6466,1.65,1.65,1.65,1.6599,1.6697,1.6697,1.6846,1.6981,1.6897,1.7065,1.7199,1.7199,1.7199,1.7199,1.7199,1.7199,1.7199,1.7186,0.0,0.0,0.0,0.0,0.0,0.0,1.5487,1.5898,1.6892,0.0,0.0,0.0,0.0,0.0,0.0,0.0,0.0,1.7146,1.7199,0.0,1.7199,1.7199,1.7199,1.7199,1.7199,1.7199,1.7199,1.7199,1.7199,1.7199,1.7199,1.7199,1.7199,1.7199,1.7199,1.722,1.7363,1.7404,1.7404,1.7468,1.757,1.7699,1.6316,1.6306,1.6288,1.6259,1.5745,1.5248,1.4986,1.4434,1.3952,1.3628,1.3597,1.3597,1.3597,1.3597,1.3597,0.0,1.3597,1.3597,0.0,1.3597,1.3597,1.3597,1.3597,1.3597,1.3597,1.3597,1.3597,1.3597,0.0,0.0,0.0,1.3741,1.3762,1.4051,1.3731,1.3597,1.3621,1.3999,1.3928,1.3658,1.4339,1.4443,1.4186,1.4501,1.4731,1.4926,1.5243,1.5433,1.5645,1.6107,1.6272,1.6272,1.6272,1.638,1.65,1.65,1.6543,1.6654,1.6654,1.6727,1.6846,1.6846,1.6918,1.6981,1.696,1.7094,1.7199,1.7199,1.7199,1.7199,1.7199,1.7199,1.7199,1.7199,1.6977,0.0,0.0,0.0,0.0,0.0,1.651,1.6761,0.0,1.6619,0.0,0.0,0.0,0.0,0.0,0.0,0.0,0.0,1.7199,0.0,1.7199,1.7199,1.7199,1.7199,1.7475,1.7767,1.8088,1.8088,1.7908,1.7618,1.7618,1.7455,1.7199,1.7199,1.7253,1.7329,1.7384,1.7487,1.761,1.7638,1.772,1.7842,1.6413,1.6413,1.6413,1.6413,1.5753,1.5194,1.5028,1.4355,1.3807,1.3617,1.3597,1.3597,1.3597,1.3597,0.0,1.3597,1.3597,1.3597,1.3597,1.3597,1.3597,1.3597,1.3597,1.3597,1.3597,1.3597,0.0,1.3597,1.3597,1.3741,1.402,1.3731,1.3752,1.401,1.3721,1.3716,1.3928,1.4257,1.4303,1.4222,1.4857,1.4926,1.4697,1.4994,1.5221,1.5412,1.5756,1.5954,1.6107,1.6457,1.6543,1.65,1.6543,1.6577,1.6577,1.6577,1.6663,1.6782,1.6782,1.6846,1.6939,1.6939,1.7002,1.7073,1.7073,1.7136,1.7199,1.7199,1.7199,1.7199,1.7199,1.7199,1.7261,1.7393,1.737,1.7265,1.7194,0.0,0.0,0.0,0.0,0.0,0.0,1.7644,1.7482,0.0,0.0,0.0,0.0,0.0,0.0,1.7686,1.77,1.77,1.77,1.77,1.77,1.77,1.7928,1.8226,1.85,1.85,1.8344,1.8048,1.8048,1.7908,1.77,1.772,1.7794,1.7868,1.7922,1.8042,1.8161,1.8214,1.8274,1.8352,1.6516,1.6516,1.6506,0.0,1.6078,1.5581,1.507,1.4603,1.4132,1.3648,1.3634,1.3634,1.3597,1.3658,1.3702,1.371,0.0,0.0,1.3597,1.3597,1.3597,1.3597,1.3597,1.3597,1.3597,1.3597,1.3621,1.3668,1.3681,1.3705,1.3705,1.3705,1.3705,1.3705,1.3705,1.3975,1.4443,1.4489,1.4743,1.5108,1.5176,1.5176,1.5153,1.5176,1.5479,1.5888,1.601,1.6262,1.6543,1.6675,1.662,1.6543,1.6675,1.6718,1.6718,1.6718,1.6803,1.6897,1.6897,1.696,1.7002,1.7002,1.7115,1.7199,1.7199,1.7199,1.7199,1.7199,1.722,1.724,1.724,1.7282,1.7413,1.7787,1.7868,1.8028,1.8442,0.0,0.0,0.0,0.0,0.0,1.9207,1.9225,1.9369,0.0,0.0,0.0,0.0,0.0,1.8088,1.8481,1.85,1.85,1.85,1.85,1.85,1.8553,1.8553,1.8558,1.8577,1.8597,1.8577,1.8558,1.8558,1.8539,1.8519,1.8577,1.8597,1.8635,1.8831,1.8969,1.906,1.9078,1.9159,1.9217,0.0,0.0,1.7582,1.7174,1.6692,1.6073,1.5149,1.4661,1.4198,1.3678,1.3952,1.4046,1.3634,1.4292,1.4772,1.4814,1.4082,1.3597,1.3597,1.3597,1.3597,1.3597,1.3597,1.3597,1.3597,1.3597,1.38,1.421,1.457,1.4731,1.4731,1.4731,1.4731,1.4731,1.4731,1.4834,1.4971,1.5311,1.5333,1.5153,1.5879,1.5954,1.5656,1.6032,1.6306,1.6491,1.6513,1.6641,1.6812,1.6833,1.6833,1.6812,1.6833,1.6876,1.6918,1.6854,1.6897,1.6981,1.6981,1.7065,1.7157,1.7157,1.7178,1.7199,1.7199,1.7199,1.7199,1.7199,1.7434,1.7659,1.7659,1.7948,1.8226,1.8324,1.8592,1.8726,1.8519,1.9072,0.0,0.0,1.9039,1.924,1.9762,1.9442,1.9281,0.0,0.0,0.0,1.9184,1.8983,1.8755,1.85,1.85,1.85,1.85,1.85,1.8649,1.8969,1.9016,1.9203,1.9493,1.9599,1.9475,1.9184,1.9184,1.8983,1.8645,1.8664,1.8741,1.8817,1.8874,1.9595,2.0462,1.9483,1.9764,2.0467,1.8093,1.8093,1.7932,1.7375,1.6922,1.6306,1.5503,1.4998,1.4628,1.4316,1.4547,1.4605,1.4316,1.4777,1.5097,1.5147,1.4592,1.4465,1.4985,1.4798,1.4653,1.4655,1.4644,1.4546,1.4292,1.4292,1.4432,1.472,1.5028,1.5164,1.5108,1.5164,1.5164,1.5108,1.5108,1.521,1.5445,1.5678,1.5778,1.579,1.6293,1.6358,1.6151,1.6457,1.6654,1.6697,1.6803,1.6867,1.6897,1.6939,1.6918,1.6897,1.6939,1.696,1.7002,1.7044,1.7065,1.7094,1.7094,1.7136,1.7199,1.7199,1.7199,1.7199,1.7199,1.7199,1.7199,1.7199,1.7516,1.7787,1.7787,1.8187,1.8572,1.8745,1.8969,1.9101,1.9091,1.9493,1.9744,1.9584,1.9566,1.9693,2.001,1.9782,1.9642,1.9714,1.9714,0.0,1.9566,1.9566,1.942,1.9053,1.9087,1.9091,1.9091,1.9161,1.9438,1.9972,1.9697,1.9839,2.034,2.0106,2.005,2.0124,2.0124,1.9994,1.9769,2.014,1.996,1.9523,2.0191,2.0755,2.1141,2.0718,2.0823,2.1096,1.8363,1.8363,1.8173,1.7636,1.7245,1.6754,1.6146,1.5718,1.5418,1.5349,1.5418,1.5418,1.5349,1.5406,1.5463,1.5464,1.5317,1.5603,1.6527,1.6162,1.5897,1.5902,1.5903,1.5637,1.5119,1.5198,1.5244,1.5244,1.5445,1.5467,1.5379,1.549,1.5467,1.5379,1.5356,1.5568,1.5932,1.5898,1.6151,1.6522,1.6522,1.6543,1.6565,1.6697,1.674,1.6761,1.6939,1.6981,1.6939,1.7002,1.6981,1.696,1.7002,1.7044,1.7065,1.7178,1.7199,1.7199,1.7199,1.7199,1.7199,1.7199,1.7261,1.7303,1.7303,1.7352,1.7393,1.7393,1.772,1.7988,1.7988,1.8364,1.8789,1.9139,1.9195,1.9343,1.9744,0.0,1.9902,1.999,2.0023,2.0043,2.0133,2.01,2.01,2.0133,2.0209,2.0251,2.016,2.0266,2.024,2.0062,1.9903,1.983,1.983,2.0043,2.0446,2.0992,2.0555,2.0634,2.1166,2.0497,2.0621,2.1337,2.1139,2.1169,2.1398,2.2072,2.1605,2.0564,2.1821,2.2089,2.1781,2.1951,2.1904,2.1689,1.954,1.954,1.9379,1.8833,1.8672,1.8314,1.7388,1.7183,1.6955,1.6519,1.6847,1.6955,1.6507,1.682,1.706,1.7123,1.6598,1.6197,1.6018,1.5958,1.59,1.5891,1.5903,1.5637,1.5119,1.5591,1.5856,1.5856,1.6392,1.6629,1.662,1.6629,1.6629,1.662,1.6491,1.6491,1.6556,1.6436,1.65,1.6675,1.6675,1.674,1.6833,1.6867,1.6897,1.696,1.6981,1.7086,1.7157,1.7178,1.7157,1.7157,1.7178,1.7178,1.7178,1.7199,1.7199,1.7199,1.7199,1.7199,1.7199,1.7199,1.7455,1.772,1.772,1.8008,1.8305,1.8305,1.863,1.8898,1.8898,1.9236,1.953,1.9599,1.9654,1.9708,1.978,0.0,2.0048,2.008,2.008,2.0133,2.027,2.0168,2.015,2.027,2.0793,2.1062,2.0938,2.1518,2.1786,2.1656,2.0546,1.997,1.997,2.0534,2.0901,2.1007,2.1591,2.1904,2.198,2.1384,2.1772,2.2878,2.1741,2.1894,2.2955,2.3082,2.2667,2.1975,2.2209,2.2917,2.3579,2.1411,2.1981,2.3517,1.9798,1.9798,1.9635,1.9096,1.9008,1.8746,1.798,1.7623,1.7466,1.7496,1.7469,1.7455,1.7509,1.7435,1.7407,1.7436,1.6864,1.6565,1.6697,1.6681,1.6681,1.6767,1.6754,1.6534,1.6066,1.6262,1.6405,1.6479,1.6812,1.6939,1.6897,1.6939,1.6918,1.6897,1.6846,1.6803,1.6791,1.6748,1.6748,1.6803,1.6803,1.6846,1.6897,1.6939,1.696,1.7002,1.7073,1.7157,1.7199,1.7199,1.7199,1.7199,1.7199,1.7199,1.7199,1.7199,1.7199,1.7199,1.7199,1.7199,1.7261,1.7475,1.7659,1.7868,1.8108,1.8344,1.85,1.85,1.8822,1.9101,1.9101,1.9435,1.9708,1.9708,1.9726,1.978,1.9884,1.999,2.0096,2.0185,2.0202,2.022,2.0287,2.0252,2.0373,2.0811,2.1119,2.1439,2.1738,2.2075,2.2225,2.2152,2.1534,2.1194,2.1234,2.154,2.1877,2.2244,2.2256,2.2628,2.3303,2.2282,2.2563,2.3779,2.2794,2.2717,2.3332,2.3686,2.3225,2.2394,2.3486,2.4071,2.4194,2.3317,2.3548,2.4071,1.9798,1.9798,1.9673,1.9259,1.9183,1.9045,1.8643,1.8216,1.8103,1.8518,1.8204,1.8103,1.853,1.8091,1.7765,1.7765,1.726,1.7081,1.7395,1.7414,1.7439,1.7508,1.7413,1.7211,1.691,1.6803,1.6825,1.6918,1.7002,1.7023,1.696,1.7023,1.7023,1.696,1.6939,1.6918,1.6918,1.6897,1.6897,1.6918,1.6918,1.6939,1.6981,1.7044,1.7065,1.7065,1.7157,1.7199,1.7199,1.7199,1.7199,1.7199,1.7199,1.7199,1.7199,1.7199,1.7199,1.7199,1.7199,1.7282,1.7413,1.772,1.7948,1.8206,1.8572,1.8712,1.8769,1.8769,1.903,1.925,1.925,1.9493,1.9726,1.9726,0.0,1.9851,1.999,2.0058,2.0146,2.0287,2.0304,2.0304,2.0304,2.0443,2.0749,2.1257,2.1596,2.1997,2.2486,2.2671,2.2748,2.2748,2.2413,2.2244,2.2305,2.2459,2.2778,2.3302,2.3086,2.3533,2.4502,2.3471,2.3733,2.4979,2.4133,2.3856,2.4056,2.4748,2.404,2.2736,2.4594,2.4789,2.4117,2.4466,2.4466,2.4194,1.9798,1.9798,1.9798,1.9748,1.9748,1.9736,1.9698,1.9648,1.9635,1.9673,1.9648,1.9648,1.9673,1.9196,1.8882,1.8882,1.8488,1.8037,1.752,1.7613,1.7613,1.7505,1.7144,1.6927,1.6897,1.6939,1.6981,1.6981,1.7115,1.7178,1.7178,1.7178,1.7178,1.7178,1.7065,1.6981,1.6981,1.6918,1.6939,1.6981,1.6981,1.7086,1.7178,1.7178,1.7199,1.7199,1.7199,1.7199,1.7199,1.7199,1.7199,1.7199,1.7199,1.7199,1.7199,1.7199,1.7199,1.7199,1.7199,1.7475,1.776,1.7787,1.8403,1.9007,1.9045,1.9328,1.9603,1.9603,1.9654,1.9672,1.9672,1.9726,1.978,1.978,0.0,0.0,2.0098,2.02,2.0287,2.0304,2.0304,2.0304,2.0304,2.0857,2.1242,2.1304,2.2459,2.3163,2.3225,2.3825,2.4148,2.4148,2.2948,2.2301,2.2305,2.2917,2.324,2.3302,2.4518,2.5127,2.5219,2.5112,2.5857,2.7103,2.5749,2.5496,2.6142,2.6872,2.561,2.3363,2.4758,2.4518,2.3302,2.2732,2.3271,2.4117,1.9798,1.9798,1.9798,1.9798,1.9798,1.9798,1.9798,1.9522,1.9434,1.9876,1.9623,1.9585,2.0004,1.9559,1.9253,1.9253,1.8803,1.8441,1.8188,1.8624,1.8377,1.7256,1.7042,1.7002,1.7073,1.7044,1.7044,1.7115,1.7178,1.7199,1.7199,1.7199,1.7199,1.7199,1.7157,1.7115,1.7115,1.7094,1.7094,1.7115,1.7115,1.7157,1.7199,1.7199,1.7199,1.7199,1.7199,1.7199,1.7199,1.7199,1.7199,1.7199,1.7199,1.7199,1.7261,1.7496,1.7578,1.7639,1.7968,1.7928,1.7868,1.8167,1.8669,1.9176,1.9472,1.9654,1.978,1.9866,1.9884,1.9884,1.9884,1.9902,1.9919,1.9919,0.0,2.0045,2.0083,2.015,2.0202,2.0287,2.0674,2.0919,2.0919,2.1535,2.2089,2.2501,2.3009,2.3486,2.3902,2.4164,2.4302,2.4302,2.381,2.3533,2.3533,2.421,2.4548,2.4564,2.5518,2.6195,2.6595,2.6164,2.6503,2.7349,2.6395,2.6134,2.638,2.6626,2.6096,2.525,2.6226,2.6287,2.5764,2.5093,2.5191,2.5466,1.9798,1.9798,1.9798,1.9798,1.9798,1.9798,1.9862,1.956,1.9485,2.0016,1.9724,1.9685,2.0144,1.9862,1.9656,1.9656,1.9383,1.9111,1.8943,1.9193,1.8861,1.7648,1.7247,1.7115,1.7199,1.7115,1.7115,1.7199,1.7199,1.7199,1.7199,1.7199,1.7199,1.7199,1.7199,1.7199,1.7199,1.7199,1.7199,1.7199,1.7199,1.7199,1.7199,1.7199,1.7199,1.7199,1.7199,1.7199,1.7199,1.7199,1.7199,1.7199,1.7199,1.7303,1.7475,1.7888,1.8008,1.8088,1.8481,1.8422,1.833,1.8693,1.9087,1.9472,1.9795,1.9866,1.9884,1.9988,2.0005,2.0005,2.0005,2.0023,2.0025,2.0025,2.0061,2.0113,2.015,2.0168,2.0277,2.058,2.1011,2.1381,2.1596,2.2394,2.3117,2.3579,2.381,2.404,2.4302,2.4302,2.4302,2.4302,2.4302,2.441,2.4604,2.5066,2.5296,2.5312,2.6257,2.6949,2.738,2.7134,2.7272,2.7688,2.7226,2.6903,2.6741,2.6903,2.6573,2.6081,2.7026,2.7134,2.6718,2.6472,2.6432,2.6366,1.9811,1.9798,1.9798,1.9798,1.9798,1.9837,1.999,1.999,2.0042,2.0182,2.0207,2.0207,2.0207,2.0207,2.0207,2.0207,2.0385,2.0253,1.9634,1.9167,1.8898,1.8898,1.7813,1.7199,1.7199,1.7199,1.7199,1.7199,1.7199,1.7199,1.7199,1.7199,1.7199,1.7212,1.7212,1.7212,1.7212,1.7212,1.7199,1.7199,1.7199,1.7199,1.7199,1.7199,1.7199,1.7199,1.7199,1.7199,1.7199,1.7199,1.7199,1.7199,1.7199,1.7475,1.7888,1.8364,1.85,1.8519,1.8592,1.8903,1.9244,1.9369,1.9708,2.0005,2.0005,2.0005,2.0005,2.0005,2.0005,2.0005,2.0005,2.0061,2.0115,2.01,2.0218,2.032,2.032,2.032,2.0582,2.1242,2.1319,2.1596,2.2274,2.3533,2.4317,2.4317,2.4912,2.4989,2.4348,2.4302,2.4302,2.4317,2.4317,2.4641,2.5281,2.5296,2.5312,2.5327,2.6734,2.7396,2.7426,2.8088,2.8411,2.8411,2.8411,2.8027,2.7457,2.8134,2.7196,2.545,2.6857,2.6565,2.5426,2.6134,2.6454,2.6519,2.0483,2.023,1.9978,2.0042,2.0067,2.0093,2.0131,2.0131,2.022,2.0385,2.041,2.0448,2.0549,2.0549,2.0549,2.0549,2.0599,2.0389,1.9779,1.8862,1.8336,1.8336,1.8009,1.763,1.7212,1.7199,1.7199,1.7199,1.7199,1.7199,1.7199,1.7199,1.7421,1.7826,1.7826,1.7826,1.7826,1.7826,1.7591,1.7199,1.7199,1.7199,1.7199,1.7199,1.7199,1.7199,1.7199,1.7199,1.7199,1.7199,1.7199,1.7261,1.7537,1.77,1.7948,1.8707,1.894,1.9091,1.9457,1.9693,1.9749,1.9479,1.9708,2.0023,2.0063,2.0063,2.0098,2.0183,2.02,2.02,2.02,2.0619,2.0788,2.0329,2.107,2.1704,2.1704,2.1704,2.2135,2.3271,2.3409,2.3671,2.4348,2.4779,2.4989,2.4989,2.4743,2.4733,2.4989,2.4564,2.4533,2.4989,2.4989,2.5096,2.5296,2.581,2.6303,2.678,2.7196,2.7642,2.8088,2.7827,2.7965,2.8411,2.8411,2.8288,2.8119,2.8319,2.8074,2.7659,2.8077,2.8031,2.7713,2.7417,2.7377,2.7427,2.0881,2.0474,2.0105,2.0182,2.0207,2.0233,2.0322,2.0322,2.0372,2.0562,2.0587,2.0612,2.0687,2.0699,2.0607,2.036,2.0124,1.9836,1.9473,1.8806,1.8323,1.8114,1.81,1.7813,1.7212,1.7199,1.7199,1.7199,1.7199,1.7199,1.7199,1.7199,1.7395,1.7735,1.7735,1.7735,1.7735,1.7735,1.7525,1.7199,1.7199,1.7199,1.7199,1.7199,1.7199,1.7199,1.7199,1.7199,1.7199,1.7199,1.7199,1.7303,1.7888,1.8068,1.8246,1.9087,1.9384,1.953,1.9902,2.0061,2.003,1.9818,1.994,2.0207,2.0505,2.0369,2.0356,2.098,2.0872,2.0782,2.1042,2.1427,2.1565,2.1165,2.1781,2.2305,2.2305,2.2305,2.2686,2.3779,2.3902,2.4179,2.4835,2.5142,2.5296,2.5296,2.4912,2.4758,2.4896,2.4758,2.4881,2.5281,2.5573,2.5711,2.5696,2.6164,2.6734,2.7396,2.7396,2.775,2.8396,2.798,2.8027,2.8411,2.8411,2.842,2.8468,2.8468,2.8565,2.8684,2.8684,2.8537,2.8358,2.8202,2.8052,2.7877,2.1142,2.0681,2.0233,2.0233,2.0233,2.0309,2.0486,2.0511,2.0562,2.0687,2.066,2.0646,2.0699,2.0607,2.0334,1.9839,1.9211,1.8832,1.8832,1.878,1.8532,1.8035,1.8022,1.7761,1.7212,1.7199,1.7199,1.7199,1.7199,1.7199,1.7199,1.7199,1.7225,1.7277,1.7277,1.7277,1.7277,1.7277,1.7251,1.7199,1.7199,1.7199,1.7199,1.7199,1.7199,1.7199,1.7199,1.7199,1.7199,1.7199,1.7246,1.748,1.826,1.8604,1.8854,1.9523,1.9807,1.9939,2.0064,2.0124,2.0181,2.0424,2.0426,2.0551,2.1165,2.0826,2.0749,2.2043,2.1812,2.1581,2.2197,2.2351,2.2363,2.232,2.2413,2.249,2.249,2.249,2.2748,2.3486,2.3517,2.3748,2.4425,2.4973,2.5266,2.5204,2.5204,2.4958,2.4425,2.4896,2.5235,2.5296,2.5949,2.6272,2.6219,2.6272,2.6649,2.7327,2.7242,2.7565,2.8251,2.8174,2.8189,2.8251,2.8251,2.8323,2.8426,2.8473,2.8591,2.874,2.8803,2.8412,2.7913,2.8584,2.8482,2.8081,2.1764,2.1095,2.0486,2.0574,2.0599,2.0599,2.0662,2.0662,2.0687,2.0699,2.0294,2.019,2.066,1.9863,1.942,1.9773,1.8858,1.827,1.827,1.7826,1.7512,1.7395,1.7395,1.7329,1.7199,1.7199,1.7199,1.7199,1.7199,1.7199,1.7199,1.7199,1.7447,1.7904,1.7904,1.7904,1.7904,1.7904,1.763,1.7199,1.7199,1.7199,1.7199,1.7199,1.7199,1.7199,1.7199,1.7199,1.7199,1.7199,1.776,1.8473,1.8557,1.9475,2.0473,2.0059,2.0316,2.0761,2.0837,2.0581,2.0531,2.1612,2.1473,2.1119,2.1257,2.118,2.1304,2.2135,2.2178,2.2135,2.2255,2.2717,2.2902,2.2397,2.3179,2.3871,2.3871,2.3871,2.4333,2.558,2.5226,2.5149,2.5857,2.5564,2.5081,2.4543,2.4533,2.4666,2.505,2.4712,2.4758,2.5281,2.5472,2.5527,2.5512,2.5527,2.5947,2.6693,2.6048,2.6222,2.7045,2.6413,2.6459,2.7076,2.7076,2.7098,2.7152,2.7688,2.7975,2.8145,2.8669,2.8841,2.8824,2.8997,2.895,2.8863,2.2198,2.1563,2.0938,2.0726,2.0699,2.0699,2.0699,2.0699,2.0699,2.0699,2.0425,2.0242,2.0268,1.9708,1.9237,1.9015,1.8179,1.7669,1.7669,1.7369,1.7199,1.7199,1.7199,1.7199,1.7199,1.7393,1.7393,1.7199,1.7199,1.7199,1.7199,1.7199,1.7369,1.7669,1.7669,1.7669,1.7669,1.7669,1.7486,1.7199,1.7199,1.7199,1.7199,1.7199,1.7199,1.7199,1.7199,1.7323,1.7537,1.7767,1.8453,1.9223,1.941,2.0269,2.1202,2.1012,2.0999,2.1127,2.1522,2.0985,2.061,2.1966,2.1797,2.1473,2.212,2.2012,2.2074,2.304,2.2994,2.2871,2.3194,2.3533,2.3656,2.3302,2.384,2.4302,2.4302,2.4302,2.4579,2.5302,2.5072,2.5102,2.581,2.5533,2.5296,2.5302,2.5272,2.5419,2.581,2.5795,2.5795,2.5826,2.6457,2.6472,2.5841,2.6149,2.6519,2.6912,2.5895,2.5855,2.6676,2.6259,2.6305,2.6691,2.6691,2.6736,2.6817,2.7161,2.7406,2.7573,2.8273,2.8358,2.8214,2.8861,2.9098,2.9098,2.2596,2.1969,2.1355,2.0909,2.0777,2.0699,2.0699,2.0699,2.0699,2.0699,2.0529,2.0242,1.9839,1.9721,1.9237,1.8192,1.7735,1.7529,1.7613,1.7521,1.7489,1.7559,1.7487,1.7413,1.7413,1.776,1.7679,1.7199,1.7282,1.7282,1.7199,1.722,1.722,1.722,1.724,1.7261,1.7261,1.7261,1.724,1.722,1.722,1.722,1.722,1.7282,1.7303,1.7323,1.7393,1.7713,1.8179,1.8649,1.9358,2.0131,2.048,2.1178,2.1859,2.2015,2.1755,2.1583,2.2217,2.1541,2.0949,2.232,2.2151,2.1966,2.3179,2.2948,2.2809,2.4056,2.3871,2.364,2.421,2.4394,2.442,2.4317,2.441,2.4441,2.4317,2.4302,2.4302,2.4302,2.441,2.4702,2.525,2.5404,2.5749,2.6349,2.6371,2.6356,2.6409,2.6949,2.6995,2.6425,2.7457,2.7519,2.6418,2.6949,2.7281,2.7342,2.6325,2.6139,2.67,2.6749,2.6643,2.6398,2.6469,2.6533,2.6592,2.6696,2.6808,2.6988,2.7652,2.7589,2.7241,2.834,2.8751,2.8767,2.3091,2.2243,2.1485,2.1407,2.1014,2.0699,2.0699,2.0699,2.0699,2.0699,1.9797,1.9316,1.976,1.9342,1.878,1.8153,1.8453,1.8878,1.9336,1.8814,1.8685,1.9085,1.8603,1.8324,1.8324,1.8383,1.8008,1.7199,1.7557,1.7537,1.7199,1.7329,1.737,1.7384,1.7427,1.7455,1.7455,1.7455,1.744,1.737,1.737,1.7308,1.724,1.7598,1.772,1.7767,1.8187,1.8764,1.9381,1.9569,2.0703,2.1931,2.1495,2.2419,2.3461,2.2528,2.2528,2.2887,2.3093,2.2594,2.2351,2.3702,2.3533,2.3225,2.3994,2.3656,2.3379,2.4148,2.4241,2.4194,2.4287,2.4758,2.4958,2.4374,2.4773,2.4958,2.4374,2.4302,2.4302,2.4302,2.4804,2.5189,2.5281,2.5887,2.6287,2.6402,2.6445,2.6497,2.6497,2.6574,2.6567,2.6497,2.6548,2.6511,2.6402,2.6495,2.6776,2.7222,2.7163,2.6983,2.671,2.6931,2.639,2.525,2.5538,2.5499,2.5298,2.5877,2.613,2.623,2.6957,2.7194,2.713,2.7304,2.7383,2.7411,2.2387,2.1864,2.1407,2.1119,2.0857,2.0699,2.0699,2.0923,2.1082,2.1082,2.0864,2.0538,2.0121,1.9306,1.8792,1.8814,1.8795,1.8873,1.901,1.874,1.8689,1.8888,1.8655,1.85,1.85,1.8726,1.8553,1.7928,1.8088,1.7988,1.7659,1.7942,1.8082,1.8127,1.8173,1.8179,1.8179,1.8179,1.8153,1.8127,1.8127,1.8068,1.7988,1.8187,1.8414,1.8822,1.9689,2.0211,2.0564,2.0986,2.1899,2.2818,2.2581,2.328,2.407,2.3554,2.3308,2.3319,2.3728,2.3102,2.2609,2.3979,2.4087,2.404,2.4718,2.4912,2.4943,2.4866,2.5195,2.5349,2.4927,2.5096,2.5189,2.4896,2.5096,2.5349,2.5456,2.5133,2.4989,2.5373,2.6034,2.6626,2.7011,2.7728,2.8192,2.8192,2.8279,2.8342,2.8342,2.7976,2.7603,2.7183,2.8166,2.8318,2.7517,2.8554,2.9151,2.9268,2.9325,2.8494,2.6932,2.7088,2.6599,2.5629,2.5762,2.576,2.5645,2.5916,2.6062,2.6127,2.687,2.7369,2.7709,2.7709,2.7709,2.7749]}]]